Date StartTime U_cm/s V_cm/s W_cm/s Ustd_cm/s Vstd_cm/s Wstd_cm/s Uvar_(cm/s)^2 Vvar_(cm/s)^2 Wvar_(cm/s)^2 KE_(m/s)^2 TurbulentKE_(m/s)^2 HorizWindSpeed_cm/s FrictionSpeec_cm/s DragCoef SpeedOfSound_m/s SonicTemperature_C Pressure_mb 
08/18/2013  00:00:00     -124.612      -14.920       -3.595       23.810       25.049       13.921      566.923      627.466      193.807        0.858        0.069      125.502       11.038        0.008      345.545       23.152      861.579
08/18/2013  00:01:00      -84.304      -31.765       -2.703       23.877       14.470        9.815      570.114      209.373       96.342        0.450        0.044       90.089        5.907        0.004      345.728       23.466      861.587
08/18/2013  00:02:00      -83.954      -60.130        0.824       42.057       33.705       23.949     1768.788     1136.052      573.542        0.707        0.174      103.266       20.274        0.039      345.431       22.957      861.575
08/18/2013  00:03:00      -46.768      -25.673        2.747       39.393       32.418       17.665     1551.824     1050.941      312.040        0.288        0.146       53.351       21.415        0.161      345.396       22.895      861.581
08/18/2013  00:04:00      -22.063      -15.868       -5.433       21.004        8.738        6.911      441.164       76.350       47.759        0.067        0.028       27.177        6.987        0.066      345.513       23.099      861.590
08/18/2013  00:05:00      -46.378      -35.765        3.755       36.502       19.038       14.963     1332.430      362.453      223.877        0.268        0.096       58.566       12.457        0.045      345.539       23.140      861.571
08/18/2013  00:06:00       -9.304      -46.868       11.517       30.805       26.475       23.914      948.957      700.914      571.890        0.232        0.111       47.782       18.229        0.146      345.407       22.916      861.558
08/18/2013  00:07:00      -19.255      -57.774       10.933       22.465       28.523       15.193      504.660      813.541      230.840        0.269        0.077       60.898       15.900        0.068      345.655       23.339      861.570
08/18/2013  00:08:00      -58.160       36.985       -5.013       16.462       16.629       11.822      270.996      276.525      139.763        0.273        0.034       68.924       10.079        0.021      345.640       23.316      861.585
08/18/2013  00:09:00     -117.688       20.297       -8.984       48.794       32.675       17.414     2380.859     1067.637      303.241        0.905        0.188      119.426       20.626        0.030      345.521       23.110      861.608
08/18/2013  00:10:00      -97.826      -49.661        4.184       53.538       34.974       26.312     2866.267     1223.166      692.316        0.842        0.239      109.710       29.202        0.071      345.287       22.709      861.625
08/18/2013  00:11:00      -43.935     -163.089       -0.628       29.109       90.147       22.803      847.343     8126.428      519.991        1.901        0.475      168.903       22.695        0.018      345.763       23.522      861.592
08/18/2013  00:12:00      -57.459     -242.065       -1.925       58.803       61.602       30.892     3457.839     3794.790      954.342        3.505        0.410      248.792        8.985        0.001      346.096       24.093      861.537
08/18/2013  00:13:00      -98.150     -120.600      -18.739       40.817       89.401       28.943     1666.040     7992.569      837.669        1.751        0.525      155.492       26.845        0.030      346.204       24.283      861.547
08/18/2013  00:14:00     -175.029       80.633      -11.302       82.616       55.639       34.509     6825.391     3095.696     1190.883        2.419        0.556      192.710       39.454        0.042      345.393       22.891      861.627
08/18/2013  00:15:00      -80.066       87.608      -13.551       45.745       62.528       26.001     2092.570     3909.787      676.071        1.047        0.334      118.683       22.492        0.036      345.310       22.748      861.666
08/18/2013  00:16:00      -90.384       -2.018      -12.577       65.773       83.166       28.708     4326.096     6916.578      824.122        1.020        0.603       90.407       29.874        0.109      346.031       23.987      861.669
08/18/2013  00:17:00      -62.299     -194.757       -0.044       37.414       58.086       20.978     1399.796     3373.968      440.086        2.351        0.261      204.479       10.188        0.002      346.141       24.172      861.624
08/18/2013  00:18:00      -79.652     -145.065       -8.275       53.108       45.877       31.902     2820.425     2104.728     1017.737        1.670        0.297      165.495       22.768        0.019      346.361       24.553      861.601
08/18/2013  00:19:00     -139.210      -62.239       -4.432       59.630       48.961       27.872     3555.760     2397.212      776.829        1.500        0.336      152.490       21.411        0.020      346.083       24.076      861.664
08/18/2013  00:20:00      -30.228     -115.950        1.340       59.563       33.879       23.689     3547.741     1147.777      561.154        0.981        0.263      119.825       18.477        0.024      346.229       24.327      861.678
08/18/2013  00:21:00        0.208      -65.234       11.571       33.387       34.468       27.633     1114.661     1188.073      763.560        0.373        0.153       65.235       18.034        0.076      346.256       24.373      861.649
08/18/2013  00:22:00      -23.350       23.672        2.130       29.769       76.840       27.338      886.172     5904.412      747.379        0.432        0.377       33.250       33.657        1.025      345.752       23.508      861.712
08/18/2013  00:23:00      -74.807       96.639      -12.888       42.751       34.365       25.343     1827.619     1180.979      642.268        0.938        0.183      122.209       16.576        0.018      345.430       22.954      861.790
08/18/2013  00:24:00        8.031       68.641        9.854       27.724       42.317       19.859      768.636     1790.702      394.381        0.391        0.148       69.109       20.289        0.086      345.498       23.072      861.787
08/18/2013  00:25:00       78.946       10.928       15.013       35.150       31.107       30.140     1235.532      967.676      908.418        0.484        0.156       79.699       16.534        0.043      345.060       22.321      861.776
08/18/2013  00:26:00       41.246        7.808       37.247       39.975       30.499       22.805     1597.979      930.161      520.050        0.310        0.152       41.978       19.936        0.226      344.446       21.269      861.756
08/18/2013  00:27:00       14.959       12.150       15.830       29.217       19.417       25.223      853.639      377.027      636.186        0.124        0.093       19.271       13.961        0.525      344.542       21.433      861.782
08/18/2013  00:28:00        3.318       23.870        5.862       18.574       23.759       12.554      344.999      564.495      157.592        0.084        0.053       24.100       13.461        0.312      344.998       22.215      861.826
08/18/2013  00:29:00       52.140       16.729        4.797       37.924       21.439       23.567     1438.219      459.644      555.411        0.274        0.123       54.758       18.934        0.120      344.383       21.162      861.827
08/18/2013  00:30:00       18.308       -0.255       16.663       39.663       35.469       28.076     1573.119     1258.058      788.286        0.212        0.181       18.310       20.346        1.235      344.164       20.788      861.773
08/18/2013  00:31:00        8.213      -24.682       17.935       26.929       31.216       31.202      725.158      974.424      973.557        0.184        0.134       26.013       19.863        0.583      344.474       21.318      861.739
08/18/2013  00:32:00       -2.372      -30.759       -0.388       27.006       34.332       19.223      729.310     1178.652      369.524        0.161        0.114       30.850       10.371        0.113      344.819       21.909      861.766
08/18/2013  00:33:00      -88.132       34.688      -14.313       39.609       23.692       15.187     1568.855      561.298      230.632        0.577        0.118       94.713       14.362        0.023      345.001       22.220      861.789
08/18/2013  00:34:00      -32.321       19.854       -9.361       28.624       16.348       16.270      819.343      267.247      264.720        0.144        0.068       37.932       14.957        0.155      345.359       22.833      861.787
08/18/2013  00:35:00      -16.686        6.223       -2.133       11.107        7.004       10.583      123.370       49.052      111.999        0.030        0.014       17.809        7.098        0.159      345.326       22.777      861.775
08/18/2013  00:36:00      -11.278       -8.897       -2.993        7.491       11.764        6.100       56.122      138.381       37.212        0.022        0.012       14.365        4.929        0.118      345.418       22.935      861.759
08/18/2013  00:37:00      -48.697      -19.084       -0.456       26.386       11.125        8.773      696.209      123.769       76.958        0.182        0.045       52.303        6.583        0.016      345.304       22.737      861.765
08/18/2013  00:38:00      -31.208       12.700       -3.109       22.153       16.255        8.331      490.758      264.232       69.402        0.098        0.041       33.693       12.526        0.138      345.473       23.028      861.771
08/18/2013  00:39:00      -16.809       14.175       15.045       30.810       14.689       20.090      949.266      215.768      403.593        0.114        0.078       21.988       20.611        0.879      344.825       21.919      861.773
08/18/2013  00:40:00      -88.132      -21.631      -13.739        7.616       14.606        7.005       57.996      213.337       49.073        0.437        0.016       90.747        2.345        0.001      345.165       22.501      861.793
08/18/2013  00:41:00      -74.641      -23.175       -8.699       14.749       15.830        7.794      217.538      250.598       60.744        0.336        0.026       78.156        7.334        0.009      345.322       22.769      861.781
08/18/2013  00:42:00      -57.101      -33.465       -8.595       11.725       10.368        5.884      137.474      107.495       34.619        0.237        0.014       66.185        1.994        0.001      345.418       22.935      861.758
08/18/2013  00:43:00     -105.667      -22.913      -12.486       24.217       16.842       13.004      586.458      283.662      169.110        0.644        0.052      108.123        9.488        0.008      345.347       22.812      861.777
08/18/2013  00:44:00      -86.260      -12.330       -5.194       29.690       29.681       18.854      881.479      880.972      355.468        0.487        0.106       87.137       16.901        0.038      345.071       22.340      861.801
08/18/2013  00:45:00      -28.573       -1.817       -4.501       23.486       16.165       10.049      551.581      261.303      100.978        0.088        0.046       28.631        8.700        0.092      344.846       21.957      861.810
08/18/2013  00:46:00      -10.125       10.998        2.119        8.112       13.037        7.848       65.800      169.958       61.595        0.026        0.015       14.949        8.325        0.310      344.862       21.984      861.806
08/18/2013  00:47:00      -31.399       18.828       -1.153       10.971       11.610        6.572      120.357      134.794       43.196        0.082        0.015       36.611        7.087        0.037      345.331       22.785      861.810
08/18/2013  00:48:00      -40.425       -6.892       -0.692        9.000        9.635        7.166       81.000       92.829       51.353        0.095        0.011       41.008        6.070        0.022      345.649       23.330      861.813
08/18/2013  00:49:00      -49.507      -30.558       -6.835       11.384       16.727        9.927      129.592      279.783       98.548        0.197        0.025       58.178        9.334        0.026      345.107       22.402      861.818
08/18/2013  00:50:00      -29.274      -29.825       -5.452       21.838       14.737       14.159      476.878      217.179      200.464        0.134        0.045       41.791       15.153        0.131      345.311       22.752      861.830
08/18/2013  00:51:00        5.395      -17.176        4.242       14.806       15.645        9.067      219.232      244.781       82.207        0.044        0.027       18.003        6.623        0.135      345.475       23.032      861.834
08/18/2013  00:52:00        1.491        4.045        9.264       14.220       16.230       14.134      202.206      263.410      199.782        0.038        0.033        4.312       11.935        7.662      344.687       21.683      861.828
08/18/2013  00:53:00      -38.233       -2.218       -3.415       32.180       10.023        6.822     1035.547      100.458       46.546        0.133        0.059       38.297        6.104        0.025      344.941       22.117      861.844
08/18/2013  00:54:00      -47.804       13.117        0.645       10.680        7.689        7.444      114.055       59.124       55.408        0.134        0.011       49.571        4.220        0.007      344.781       21.844      861.859
08/18/2013  00:55:00      -24.708       -0.059        0.427        7.648        7.957        5.906       58.493       63.314       34.879        0.038        0.008       24.708        3.296        0.018      344.799       21.874      861.869
08/18/2013  00:56:00      -15.298      -11.311        0.664       12.900        7.843        5.659      166.411       61.516       32.024        0.031        0.013       19.026        3.635        0.037      344.895       22.039      861.872
08/18/2013  00:57:00      -54.459      -13.238       -2.311       16.746       10.451        7.433      280.425      109.214       55.252        0.180        0.022       56.045        7.670        0.019      344.893       22.035      861.863
08/18/2013  00:58:00      -79.659      -10.387       -7.034       14.785       11.568        7.429      218.596      133.818       55.196        0.346        0.020       80.333        4.666        0.003      344.820       21.911      861.866
08/18/2013  00:59:00      -90.068       -2.898       -9.457       17.656       14.632        8.281      311.750      214.085       68.574        0.440        0.030       90.115        7.247        0.006      344.772       21.827      861.860
08/18/2013  01:00:00      -93.677      -10.228       -9.358       17.856       14.510        8.961      318.846      210.550       80.296        0.479        0.030       94.234        9.062        0.009      344.685       21.679      861.858
08/18/2013  01:01:00     -145.409        3.421      -18.590       24.885       16.276       11.526      619.265      264.922      132.851        1.126        0.051      145.449        6.084        0.002      344.521       21.399      861.860
08/18/2013  01:02:00     -134.926       46.734      -16.371       89.058       43.141       22.531     7931.286     1861.138      507.633        1.548        0.515      142.791       29.998        0.044      344.335       21.078      861.879
08/18/2013  01:03:00     -101.432        4.544      -10.060       53.013       43.112       29.785     2810.394     1858.604      887.143        0.798        0.278      101.534       26.383        0.068      344.369       21.139      861.896
08/18/2013  01:04:00      -44.756      -11.478       -7.442       33.203       22.690       20.701     1102.407      514.831      428.527        0.212        0.102       46.204       18.747        0.165      344.577       21.496      861.893
08/18/2013  01:05:00      -24.846        1.666       14.544       13.207       13.358        9.970      174.437      178.433       99.400        0.064        0.023       24.902        7.463        0.090      344.682       21.675      861.863
08/18/2013  01:06:00      -44.678      -35.629       -6.484       21.545       19.392       17.820      464.207      376.044      317.563        0.223        0.058       57.145       12.746        0.050      344.741       21.775      861.853
08/18/2013  01:07:00      -20.857      -25.438       15.035       39.750       25.901       19.269     1580.065      670.861      371.286        0.196        0.131       32.895       26.471        0.648      344.588       21.514      861.842
08/18/2013  01:08:00      -63.362      -29.909        2.958       36.587       22.904       13.647     1338.611      524.606      186.234        0.348        0.102       70.066       19.556        0.078      344.732       21.759      861.818
08/18/2013  01:09:00      -81.360        2.522       -4.730       27.900       26.342       11.591      778.385      693.889      134.358        0.413        0.080       81.399       11.564        0.020      344.765       21.817      861.805
08/18/2013  01:10:00     -102.910       12.531       -8.110       29.071       22.491       15.027      845.099      505.845      225.813        0.619        0.079      103.670       15.113        0.021      344.486       21.340      861.807
08/18/2013  01:11:00      -62.355       25.696       -3.199       56.306       37.442       21.500     3170.312     1401.878      462.258        0.480        0.252       67.442       23.019        0.116      344.347       21.100      861.812
08/18/2013  01:12:00      -98.164       17.133       -7.921       40.809       36.023       22.145     1665.372     1297.643      490.412        0.672        0.173       99.648       19.720        0.039      344.333       21.077      861.782
08/18/2013  01:13:00     -155.682       40.902      -13.741       39.758       39.522       21.364     1580.729     1562.004      456.419        1.485        0.180      160.965        9.593        0.004      344.278       20.983      861.776
08/18/2013  01:14:00      -94.557       51.520      -14.586       46.604       75.785       30.410     2171.941     5743.372      924.767        1.032        0.442      107.682       35.298        0.107      344.416       21.219      861.779
08/18/2013  01:15:00      -96.692      117.016      -18.214       29.139       45.932       27.870      849.101     2109.748      776.739        1.355        0.187      151.796       22.371        0.022      344.713       21.727      861.751
08/18/2013  01:16:00      -58.644       44.032       -9.795       25.629       21.400       15.232      656.849      457.962      232.007        0.341        0.067       73.335       14.534        0.039      344.786       21.853      861.716
08/18/2013  01:17:00      -17.493       25.817       -8.668       12.346       13.358        5.577      152.424      178.433       31.105        0.070        0.018       31.185        6.204        0.040      345.124       22.430      861.687
08/18/2013  01:18:00       -8.002       17.026        0.686        9.387        5.965        6.044       88.111       35.579       36.530        0.026        0.008       18.813        5.253        0.078      345.691       23.405      861.650
08/18/2013  01:19:00       -1.506       29.417        2.091       10.133        8.063        6.469      102.686       65.012       41.844        0.054        0.010       29.455        5.405        0.034      345.733       23.476      861.622
08/18/2013  01:20:00     -102.492       -2.047      -10.653       71.982       22.479       18.601     5181.478      505.303      345.993        0.833        0.302      102.513       24.214        0.056      344.697       21.700      861.632
08/18/2013  01:21:00     -188.423       47.124      -13.137       86.840       51.133       33.821     7541.161     2614.542     1143.844        2.460        0.565      194.227       36.616        0.036      344.396       21.181      861.657
08/18/2013  01:22:00      -55.609       13.652      -13.234       38.128       20.076       14.342     1453.739      403.061      205.707        0.276        0.103       57.260       12.759        0.050      344.879       22.011      861.637
08/18/2013  01:23:00      -15.773        8.374        3.645       25.685       17.218       12.189      659.736      296.476      148.561        0.072        0.055       17.858       15.293        0.733      344.752       21.795      861.622
08/18/2013  01:24:00     -108.736       -6.770       -8.739       47.554       42.015       25.007     2261.377     1765.229      625.332        0.830        0.233      108.947       25.933        0.057      344.538       21.429      861.646
08/18/2013  01:25:00      -76.437      -17.647       -2.194       49.268       28.748       15.321     2427.335      826.423      234.720        0.482        0.174       78.448       19.931        0.065      344.520       21.399      861.652
08/18/2013  01:26:00       -8.434       11.169      -11.159       27.082       25.831       21.991      733.417      667.255      483.603        0.110        0.094       13.996       16.074        1.319      344.800       21.877      861.631
08/18/2013  01:27:00     -103.882      -40.625      -11.535       32.642       18.895       11.611     1065.478      357.029      134.813        0.707        0.078      111.543        6.542        0.003      344.534       21.421      861.637
08/18/2013  01:28:00      -70.474      -59.319        7.075       62.737       31.551       23.073     3935.936      995.437      532.349        0.700        0.273       92.116       28.552        0.096      344.411       21.211      861.638
08/18/2013  01:29:00      -30.300      -35.537        9.561       41.269       23.595       18.256     1703.106      556.731      333.288        0.243        0.130       46.701       20.487        0.192      344.419       21.226      861.621
08/18/2013  01:30:00      -86.139      -27.490       -4.908       30.165       25.550       15.848      909.921      652.825      251.165        0.501        0.091       90.419       13.102        0.021      344.494       21.353      861.613
08/18/2013  01:31:00      -88.347      -25.522       -6.990       37.968       18.004       18.693     1441.538      324.133      349.431        0.531        0.106       91.959       20.713        0.051      344.368       21.137      861.619
08/18/2013  01:32:00      -89.586      -16.288       -7.623       28.971       15.416       15.901      839.339      237.644      252.838        0.484        0.066       91.054       13.773        0.023      344.427       21.238      861.616
08/18/2013  01:33:00     -112.210       -5.922       -9.989       40.010       31.804       17.297     1600.807     1011.475      299.175        0.782        0.146      112.366       17.023        0.023      344.420       21.226      861.613
08/18/2013  01:34:00      -93.320      -13.292       -5.798       51.351       29.909       16.379     2636.883      894.534      268.256        0.636        0.190       94.262       17.581        0.035      344.415       21.217      861.618
08/18/2013  01:35:00      -84.707      -17.891       -4.835       24.608       29.441       14.581      605.563      866.786      212.594        0.460        0.084       86.576       11.163        0.017      344.385       21.165      861.617
08/18/2013  01:36:00      -91.912       -6.087       -9.799       38.092       24.144       13.743     1451.023      582.936      188.869        0.540        0.111       92.113       11.958        0.017      344.416       21.219      861.616
08/18/2013  01:37:00      -61.314       15.771      -10.016       29.502       31.514       19.640      870.379      993.131      385.744        0.318        0.112       63.309       12.926        0.042      344.370       21.141      861.606
08/18/2013  01:38:00      -35.275        8.287       -2.963       31.586       22.536       13.972      997.648      507.877      195.207        0.151        0.085       36.235        8.245        0.052      344.584       21.508      861.603
08/18/2013  01:39:00      -61.476       36.087      -16.713       19.768       20.035       10.109      390.780      401.385      102.201        0.313        0.045       71.285        9.821        0.019      344.941       22.118      861.603
08/18/2013  01:40:00      -40.509       74.521      -12.550       15.459       18.107        8.860      238.973      327.880       78.505        0.400        0.032       84.820        6.654        0.006      345.346       22.810      861.591
08/18/2013  01:41:00      -33.582       54.218       -8.610       12.584       12.864        9.495      158.358      165.472       90.146        0.228        0.021       63.776        7.376        0.013      344.749       21.789      861.577
08/18/2013  01:42:00      -43.121       53.244       -7.349       16.801       33.270        8.502      282.285     1106.880       72.288        0.310        0.073       68.515        9.419        0.019      345.007       22.231      861.575
08/18/2013  01:43:00      -76.488      -25.873      -10.778       10.126       10.427        7.297      102.541      108.717       53.241        0.345        0.013       80.745        1.733        0.000      344.446       21.269      861.591
08/18/2013  01:44:00      -48.753      -18.380       -6.441       27.053       14.701       13.737      731.876      216.133      188.696        0.195        0.057       52.103        6.948        0.018      344.241       20.920      861.594
08/18/2013  01:45:00      -65.751      -26.629       -2.959       24.528       18.427       11.095      601.643      339.547      123.098        0.305        0.053       70.938        5.117        0.005      344.184       20.821      861.597
08/18/2013  01:46:00      -18.090      -30.102        2.182       21.643       15.400        9.542      468.435      237.175       91.047        0.102        0.040       35.120        7.056        0.040      344.248       20.931      861.599
08/18/2013  01:47:00      -85.134      -36.992       -7.992       17.315       21.216       14.911      299.814      450.112      222.330        0.483        0.049       92.824       10.685        0.013      344.256       20.944      861.609
08/18/2013  01:48:00      -68.865      -30.277       -9.757       20.802       15.667       11.805      432.713      245.448      139.357        0.329        0.041       75.227        8.792        0.014      344.237       20.913      861.609
08/18/2013  01:49:00       -4.597      -41.360       -3.054       32.134       11.350       13.586     1032.622      128.812      184.573        0.154        0.067       41.615       15.484        0.138      344.291       21.006      861.592
08/18/2013  01:50:00       -9.026      -30.274        1.552       34.119       17.308        9.980     1164.109      299.581       99.607        0.128        0.078       31.591       12.661        0.161      344.388       21.171      861.587
08/18/2013  01:51:00      -67.353      -11.939       -6.569       18.222       14.158        9.759      332.027      200.458       95.237        0.267        0.031       68.403        7.745        0.013      344.436       21.253      861.586
08/18/2013  01:52:00      -64.276      -26.989       -2.035       14.530       11.785       10.177      211.107      138.878      103.574        0.266        0.023       69.712        8.551        0.015      344.437       21.254      861.566
08/18/2013  01:53:00      -69.040       -9.141       -5.972       10.519       10.282        6.913      110.646      105.718       47.790        0.257        0.013       69.642        5.086        0.005      344.331       21.075      861.553
08/18/2013  01:54:00      -92.572        1.684      -13.834        9.069        6.081        6.427       82.254       36.984       41.306        0.446        0.008       92.588        2.540        0.001      344.389       21.171      861.550
08/18/2013  01:55:00      -67.000       -1.088      -12.978        6.939        6.029        5.159       48.148       36.345       26.611        0.238        0.006       67.009        3.599        0.003      344.492       21.350      861.551
08/18/2013  01:56:00      -33.439       11.571       -6.587       13.639        4.718        4.525      186.035       22.256       20.472        0.076        0.011       35.384        6.464        0.033      344.833       21.934      861.540
08/18/2013  01:57:00       -9.397       18.531       -3.062        5.528        7.722        4.803       30.556       59.629       23.071        0.028        0.006       20.777        4.552        0.048      344.993       22.206      861.535
08/18/2013  01:58:00      -19.732        8.064       -0.698        8.425        9.311        5.031       70.973       86.693       25.309        0.032        0.009       21.316        4.335        0.041      344.863       21.983      861.561
08/18/2013  01:59:00      -10.979       -6.505       -6.277       10.327       14.820        6.671      106.651      219.633       44.501        0.029        0.019       12.761        6.370        0.249      344.562       21.468      861.579
08/18/2013  02:00:00      -34.291      -23.720      -11.170       12.701       11.164        9.605      161.315      124.627       92.262        0.112        0.019       41.696        4.370        0.011      344.224       20.891      861.587
08/18/2013  02:01:00      -19.626      -11.321       -3.787       11.197        7.155        9.491      125.383       51.187       90.084        0.040        0.013       22.657        4.214        0.035      344.139       20.748      861.602
08/18/2013  02:02:00       -9.533      -30.632       -2.308       14.635       11.884       11.282      214.170      141.221      127.289        0.076        0.024       32.081        9.023        0.079      344.147       20.759      861.610
08/18/2013  02:03:00      -44.908      -32.664       -6.678       13.229        8.307        5.631      175.001       69.009       31.704        0.170        0.014       55.531        4.473        0.006      344.220       20.882      861.609
08/18/2013  02:04:00      -89.600      -10.150      -13.638       17.129        9.892        8.345      293.394       97.855       69.638        0.439        0.023       90.173        7.390        0.007      344.093       20.667      861.615
08/18/2013  02:05:00     -136.125       -2.542      -16.056       28.468       14.829       12.261      810.453      219.900      150.327        0.999        0.059      136.149       13.270        0.009      344.003       20.514      861.626
08/18/2013  02:06:00     -129.823      -14.312      -15.699       27.505       16.373       15.877      756.520      268.060      252.093        0.929        0.064      130.610       10.623        0.007      343.885       20.312      861.627
08/18/2013  02:07:00      -64.856      -16.404       -3.822       28.869       15.766       13.670      833.443      248.573      186.865        0.288        0.063       66.898       12.547        0.035      343.942       20.409      861.630
08/18/2013  02:08:00      -63.824      -32.025      -10.310       26.435       16.214       12.154      698.811      262.909      147.709        0.316        0.055       71.408        8.008        0.013      344.089       20.661      861.614
08/18/2013  02:09:00      -84.556      -48.259      -12.114       23.294       13.937        9.432      542.594      194.244       88.956        0.523        0.041       97.358        3.698        0.001      344.110       20.697      861.606
08/18/2013  02:10:00      -25.830      -30.880        7.605       35.682       23.664       13.179     1273.211      559.981      173.675        0.184        0.100       40.259       15.775        0.154      344.067       20.622      861.606
08/18/2013  02:11:00      -30.369      -55.035       -0.412       30.341       22.652       22.100      920.581      513.111      488.426        0.294        0.096       62.858       20.760        0.109      344.392       21.179      861.588
08/18/2013  02:12:00      -55.974      -18.218       -3.409       18.951       15.050       11.472      359.127      226.502      131.611        0.210        0.036       58.864        6.603        0.013      344.363       21.128      861.580
08/18/2013  02:13:00      -57.295      -13.098       -4.393       27.056       18.316       14.805      732.009      335.482      219.175        0.238        0.064       58.773       14.141        0.058      344.040       20.577      861.562
08/18/2013  02:14:00     -107.849      -16.491      -14.573       22.626       11.091       13.544      511.926      123.014      183.443        0.647        0.041      109.103       12.849        0.014      343.916       20.366      861.556
08/18/2013  02:15:00     -123.382      -15.322      -13.661       34.063       29.714       20.347     1160.266      882.934      413.983        0.905        0.123      124.329       20.148        0.026      343.835       20.226      861.547
08/18/2013  02:16:00      -86.810      -17.700       -2.683       27.314       19.543       17.560      746.029      381.931      308.350        0.465        0.072       88.596       13.253        0.022      343.787       20.146      861.537
08/18/2013  02:17:00      -24.249      -35.144       10.527       35.745       22.684       17.103     1277.684      514.545      292.515        0.201        0.104       42.698       16.171        0.143      343.789       20.149      861.507
08/18/2013  02:18:00      -35.303      -26.968        3.005       35.850       20.714       17.556     1285.195      429.083      308.199        0.200        0.101       44.424       18.815        0.179      344.128       20.726      861.495
08/18/2013  02:19:00      -79.844       30.385       -8.796       27.059       25.054       15.749      732.177      627.722      248.044        0.449        0.080       85.430       14.397        0.028      344.015       20.535      861.522
08/18/2013  02:20:00     -135.536       16.714       -7.562       38.037       37.756       20.720     1446.832     1425.504      429.311        1.100        0.165      136.562       21.875        0.026      343.814       20.191      861.553
08/18/2013  02:21:00     -106.712      -49.176       -0.616       68.805       36.157       23.513     4734.164     1307.361      552.861        1.020        0.330      117.498       23.153        0.039      343.600       19.825      861.547
08/18/2013  02:22:00       24.778      -19.899       23.897       23.922       38.465       17.901      572.262     1479.592      320.432        0.198        0.119       31.780       19.504        0.377      343.580       19.791      861.542
08/18/2013  02:23:00       20.808       18.068       16.663       16.684       10.986       11.637      278.359      120.684      135.411        0.079        0.027       27.558       10.667        0.150      343.414       19.510      861.559
08/18/2013  02:24:00        0.534       -5.997       12.680        8.889       17.763       11.037       79.008      315.527      121.808        0.036        0.026        6.020       11.705        3.780      343.393       19.473      861.565
08/18/2013  02:25:00      -50.809      -22.861        2.849       36.027       13.761        9.458     1297.911      189.377       89.455        0.234        0.079       55.715        9.691        0.030      343.772       20.119      861.580
08/18/2013  02:26:00      -88.799       -6.236       -5.677       36.476       23.044       16.336     1330.503      531.007      266.868        0.504        0.106       89.018       18.487        0.043      343.804       20.173      861.603
08/18/2013  02:27:00      -68.563      -16.560       -6.041       38.704       19.109       15.492     1497.975      365.163      240.015        0.356        0.105       70.534       18.445        0.068      343.666       19.937      861.617
08/18/2013  02:28:00      -13.317      -14.389        5.233       22.675       15.651       13.630      514.139      244.950      185.788        0.068        0.047       19.606       13.891        0.502      343.773       20.122      861.619
08/18/2013  02:29:00      -88.336      -49.447        3.222       27.385       24.380       15.641      749.941      594.363      244.649        0.592        0.079      101.234       16.122        0.025      343.740       20.063      861.624
08/18/2013  02:30:00      -92.340      -27.881       -1.319       25.441       16.051       12.027      647.234      257.635      144.659        0.518        0.052       96.457       10.246        0.011      343.641       19.894      861.618
08/18/2013  02:31:00       -7.455      -24.146        6.223       17.651       19.412       15.349      311.568      376.834      235.592        0.080        0.046       25.270       13.770        0.297      343.590       19.809      861.619
08/18/2013  02:32:00       16.083      -10.487        9.162       27.150       27.592       16.234      737.117      761.315      263.545        0.111        0.088       19.200       11.982        0.389      343.296       19.308      861.622
08/18/2013  02:33:00      -20.448      -20.516        3.635       11.517       26.188       10.765      132.643      685.797      115.878        0.089        0.047       28.966        7.164        0.061      343.775       20.126      861.615
08/18/2013  02:34:00      -10.767      -60.214        9.113       23.334       32.684       14.666      544.478     1068.228      215.089        0.283        0.091       61.169       13.682        0.050      344.194       20.839      861.607
08/18/2013  02:35:00      -26.702        4.621        4.370       27.845       13.182       11.363      775.326      173.771      129.107        0.092        0.054       27.099       14.667        0.293      343.945       20.415      861.615
08/18/2013  02:36:00     -117.322      -12.779      -13.396       28.049       23.634       14.900      786.754      558.545      222.009        0.784        0.078      118.016       12.731        0.012      343.837       20.229      861.622
08/18/2013  02:37:00      -56.850      -30.266        4.627       48.997       21.317       20.474     2400.686      454.394      419.187        0.372        0.164       64.404       27.056        0.176      343.498       19.652      861.607
08/18/2013  02:38:00      -18.044      -11.550        6.753       28.665       17.241       16.258      821.690      297.259      264.311        0.094        0.069       21.424       12.116        0.320      343.555       19.749      861.589
08/18/2013  02:39:00      -58.577       -0.385       -1.600       20.520       10.748        8.212      421.066      115.513       67.440        0.202        0.030       58.578        9.690        0.027      343.854       20.258      861.613
08/18/2013  02:40:00       19.644      -19.453        7.404       27.130       24.750       13.188      736.037      612.565      173.932        0.117        0.076       27.646       11.892        0.185      343.737       20.059      861.607
08/18/2013  02:41:00        4.718       -6.582       24.077       20.168       31.971       16.507      406.732     1022.133      272.480        0.117        0.085        8.098       17.112        4.465      343.663       19.933      861.600
08/18/2013  02:42:00      -46.967      -22.526        2.727       48.348       20.042       13.548     2337.483      401.669      183.546        0.282        0.146       52.090       13.530        0.067      344.066       20.621      861.614
08/18/2013  02:43:00      -92.556      -22.933       -1.121       24.059       19.352       12.030      578.812      374.496      144.719        0.510        0.055       95.355       10.382        0.012      343.800       20.167      861.627
08/18/2013  02:44:00      -40.566      -21.906       -4.553       32.456       12.757        6.204     1053.367      162.734       38.491        0.170        0.063       46.103       10.574        0.053      343.708       20.011      861.633
08/18/2013  02:45:00       11.030      -27.266       -7.358       12.629       13.890       11.217      159.481      192.943      125.820        0.070        0.024       29.412        3.589        0.015      343.845       20.245      861.640
08/18/2013  02:46:00        0.584      -30.453       -2.026       20.964       16.423       14.894      439.504      269.716      221.825        0.093        0.047       30.459        7.837        0.066      343.970       20.457      861.646
08/18/2013  02:47:00      -67.731      -46.022        1.596       43.319       26.974       20.429     1876.571      727.621      417.363        0.486        0.151       81.887       16.701        0.042      343.727       20.042      861.637
08/18/2013  02:48:00      -17.030      -19.723       15.967       27.067       32.505       23.678      732.631     1056.551      560.631        0.164        0.117       26.058       17.990        0.477      343.555       19.749      861.645
08/18/2013  02:49:00      -39.823      -27.293        1.635       27.026       35.016       21.741      730.401     1226.125      472.657        0.238        0.121       48.278       19.068        0.156      343.839       20.234      861.658
08/18/2013  02:50:00      -22.187       44.009        3.949       28.762       31.961       22.532      827.250     1021.528      507.692        0.240        0.118       49.286       13.920        0.080      343.608       19.839      861.700
08/18/2013  02:51:00      -41.339      -42.309       -2.853       31.323       44.419       17.106      981.109     1973.051      292.609        0.338        0.162       59.152       14.495        0.060      343.702       19.999      861.705
08/18/2013  02:52:00      -59.166      -80.033       -3.045       29.678       29.941       15.668      880.774      896.480      245.481        0.597        0.101       99.529       14.432        0.021      343.836       20.229      861.709
08/18/2013  02:53:00      -43.608      -39.065       10.027       42.296       33.681       19.780     1788.960     1134.386      391.240        0.342        0.166       58.547       20.707        0.125      343.763       20.105      861.720
08/18/2013  02:54:00      -43.560       -3.143       10.474       35.604       26.150       18.304     1267.630      683.798      335.028        0.215        0.114       43.673       18.053        0.171      343.760       20.099      861.732
08/18/2013  02:55:00     -154.536      -45.430       -3.783       48.205       34.579       22.343     2323.767     1195.722      499.207        1.499        0.201      161.075       23.964        0.022      343.468       19.602      861.731
08/18/2013  02:56:00     -101.455      -36.229       -9.870       53.799       39.480       19.127     2894.301     1558.706      365.837        0.826        0.241      107.730       11.469        0.011      343.352       19.402      861.720
08/18/2013  02:57:00      -89.889      -43.308        2.898       58.312       21.823       15.922     3400.263      476.241      253.496        0.705        0.207       99.778       22.442        0.051      343.456       19.580      861.723
08/18/2013  02:58:00      -29.508      -86.822        5.992       32.326       42.648       17.084     1044.970     1818.849      291.848        0.580        0.158       91.699       21.064        0.053      343.874       20.293      861.706
08/18/2013  02:59:00      -51.592      -58.449       12.140       37.050       71.214       24.096     1372.732     5071.482      580.598        0.662        0.351       77.962       32.162        0.170      343.954       20.430      861.701
08/18/2013  03:00:00      -42.776       32.981        7.563       51.369       23.882       20.403     2638.743      570.338      416.270        0.330        0.181       54.014       19.447        0.130      343.504       19.661      861.724
08/18/2013  03:01:00     -120.719       45.161       -7.034       50.173       23.621       22.927     2517.332      557.959      525.629        1.013        0.180      128.890       16.919        0.017      343.667       19.939      861.749
08/18/2013  03:02:00      -58.923      -60.671       -8.073       50.841       31.314       24.215     2584.845      980.542      586.342        0.568        0.208       84.575       23.981        0.080      343.604       19.832      861.737
08/18/2013  03:03:00       -6.478      -47.971       10.119       32.907       32.882       27.107     1082.871     1081.220      734.816        0.267        0.145       48.406       21.431        0.196      343.699       19.994      861.703
08/18/2013  03:04:00      -10.094       17.931        0.508       21.177       25.746       16.812      448.456      662.850      282.649        0.091        0.070       20.577       14.877        0.523      343.592       19.813      861.722
08/18/2013  03:05:00      -48.507       23.424      -17.883       12.085       21.540        7.305      146.036      463.969       53.357        0.194        0.033       53.867        9.234        0.029      343.537       19.716      861.752
08/18/2013  03:06:00      -40.722      -40.386       -0.115       23.293       12.898       12.691      542.555      166.360      161.060        0.208        0.043       57.352       10.567        0.034      343.721       20.033      861.730
08/18/2013  03:07:00      -66.734      -22.365       -5.199       35.632       20.428       14.623     1269.675      417.291      213.835        0.344        0.095       70.382       19.234        0.075      343.790       20.150      861.722
08/18/2013  03:08:00      -58.130       65.328       -8.283       17.535       24.590        9.705      307.477      604.692       94.194        0.436        0.050       87.446        9.786        0.013      343.541       19.725      861.740
08/18/2013  03:09:00     -126.817      -23.844      -11.279       49.829       41.469       17.114     2482.968     1719.699      292.885        1.064        0.225      129.039       11.656        0.008      343.577       19.785      861.731
08/18/2013  03:10:00     -173.457      -18.589       -8.011       74.443       48.379       30.931     5541.735     2340.512      956.727        1.967        0.442      174.450       30.161        0.030      343.413       19.505      861.699
08/18/2013  03:11:00      -47.239      -50.200       11.389       61.186       35.214       30.846     3743.714     1240.002      951.477        0.541        0.297       68.932       32.979        0.229      343.437       19.549      861.657
08/18/2013  03:12:00      -44.807      -28.114        5.818       38.410       27.814       16.819     1475.316      773.603      282.867        0.268        0.127       52.896       15.280        0.083      343.546       19.733      861.661
08/18/2013  03:13:00      -31.946       18.300        5.432       26.963       16.267       16.205      726.992      264.600      262.615        0.132        0.063       36.817       17.404        0.223      343.398       19.481      861.683
08/18/2013  03:14:00      -30.585        5.129       -5.482       13.880        9.623        7.654      192.659       92.610       58.582        0.067        0.017       31.012        6.674        0.046      343.440       19.553      861.690
08/18/2013  03:15:00      -29.327       11.903       -6.803        8.058        7.939        6.961       64.928       63.028       48.459        0.061        0.009       31.650        1.967        0.004      343.540       19.723      861.704
08/18/2013  03:16:00      -76.961      -20.765      -13.912       35.986       20.260        8.806     1294.970      410.456       77.553        0.417        0.089       79.713        6.752        0.007      343.626       19.867      861.699
08/18/2013  03:17:00      -92.317      -26.470       -7.679       34.709       26.958       13.578     1204.711      726.752      184.370        0.570        0.106       96.037       11.382        0.014      343.518       19.686      861.710
08/18/2013  03:18:00       -3.855       -1.302        0.117       16.912       15.514       10.155      286.003      240.676      103.118        0.032        0.031        4.068        4.933        1.470      343.488       19.634      861.731
08/18/2013  03:19:00      -24.628      -12.274       -7.155       19.886       14.288       12.224      395.460      204.143      149.434        0.078        0.037       27.517       13.521        0.241      343.282       19.285      861.755
08/18/2013  03:20:00      -10.975        1.109       -4.391       24.656       25.471       14.223      607.902      648.787      202.304        0.080        0.073       11.031       13.546        1.508      343.422       19.523      861.759
08/18/2013  03:21:00       39.750      -76.994       -8.503       13.655       23.397       15.666      186.457      547.428      245.434        0.428        0.049       86.649        5.555        0.004      343.423       19.523      861.749
08/18/2013  03:22:00      -51.563      -47.042        4.852       37.730       34.111       22.105     1423.565     1163.588      488.652        0.399        0.154       69.798       21.305        0.093      343.531       19.708      861.746
08/18/2013  03:23:00      -56.381        4.818       -3.009       39.448       32.163       19.574     1556.107     1034.435      383.135        0.309        0.149       56.586       13.939        0.061      343.472       19.607      861.772
08/18/2013  03:24:00       17.269        8.427       11.483        9.556       12.208        9.044       91.326      149.031       81.785        0.041        0.016       19.215        4.095        0.045      343.219       19.177      861.779
08/18/2013  03:25:00       16.157       -3.069        3.643       12.222       28.607       10.399      149.381      818.362      108.149        0.068        0.054       16.446        5.646        0.118      343.390       19.466      861.783
08/18/2013  03:26:00      -73.692      -41.019       -7.642       51.577       27.005       20.897     2660.169      729.289      436.705        0.550        0.191       84.340       27.967        0.110      343.490       19.637      861.790
08/18/2013  03:27:00     -104.264      -42.593       -6.777       19.173       24.426       13.983      367.609      596.652      195.511        0.695        0.058      112.628        7.165        0.004      343.508       19.668      861.810
08/18/2013  03:28:00      -48.364      -49.233        4.897       28.300       21.583       17.063      800.903      465.833      291.146        0.317        0.078       69.014       12.331        0.032      343.452       19.575      861.825
08/18/2013  03:29:00      -72.194      -39.918       -6.497       41.566       20.095       18.426     1727.771      403.813      339.523        0.466        0.124       82.495       12.223        0.022      343.427       19.529      861.826
08/18/2013  03:30:00      -95.545      -21.688       -8.788       23.505       22.259       13.888      552.501      495.474      192.890        0.546        0.062       97.976        9.414        0.009      343.404       19.491      861.822
08/18/2013  03:31:00     -117.760      -58.682       -8.413       17.793       17.920       15.772      316.594      321.130      248.751        0.913        0.044      131.572        8.015        0.004      343.464       19.593      861.825
08/18/2013  03:32:00      -59.673      -61.108       -6.391       27.979       20.318       16.322      782.826      412.814      266.401        0.440        0.073       85.411       14.116        0.027      343.480       19.621      861.813
08/18/2013  03:33:00      -56.144      -15.276        5.266       18.300       15.984       11.672      334.881      255.499      136.226        0.207        0.036       58.185        6.966        0.014      343.457       19.581      861.800
08/18/2013  03:34:00      -94.330       -6.254       -1.308       52.381       37.242       25.627     2743.752     1386.963      656.755        0.686        0.239       94.537       27.483        0.085      343.409       19.499      861.814
08/18/2013  03:35:00     -126.529       26.602      -17.434       38.202       33.217       26.268     1459.408     1103.376      690.027        1.014        0.163      129.295       19.780        0.023      343.157       19.071      861.835
08/18/2013  03:36:00      -67.628      -29.824       -5.207       64.053       19.420       18.411     4102.756      377.152      338.960        0.515        0.241       73.912       28.658        0.150      343.238       19.210      861.824
08/18/2013  03:37:00      -71.690      -79.506      -11.844       52.541       25.841       24.149     2760.609      667.733      583.154        0.781        0.201      107.054       25.048        0.055      343.444       19.560      861.802
08/18/2013  03:38:00     -132.109      -87.723       -1.349       54.803       39.865       31.079     3003.343     1589.183      965.920        1.535        0.278      158.582       26.162        0.027      343.225       19.186      861.791
08/18/2013  03:39:00      -92.091      -79.416        1.794       54.518       38.626       23.411     2972.167     1491.956      548.061        0.990        0.251      121.605       23.641        0.038      343.195       19.137      861.790
08/18/2013  03:40:00     -131.829      -80.657        2.920       41.186       37.660       27.651     1696.270     1418.278      764.580        1.389        0.194      154.546       23.442        0.023      343.357       19.412      861.788
08/18/2013  03:41:00      -88.413      -57.095        1.651       61.891       68.362       26.529     3830.470     4673.321      703.793        1.014        0.460      105.246       32.557        0.096      343.311       19.332      861.814
08/18/2013  03:42:00     -115.420      -76.231       -8.202       65.433       32.335       25.494     4281.474     1045.583      649.938        1.259        0.299      138.322       28.494        0.042      343.282       19.282      861.833
08/18/2013  03:43:00      -74.393      -74.868       -0.350       42.787       41.414       26.523     1830.725     1715.117      703.469        0.769        0.212      105.544       25.252        0.057      343.238       19.208      861.827
08/18/2013  03:44:00     -118.136      -64.353      -11.124       45.631       47.883       27.303     2082.196     2292.744      745.459        1.167        0.256      134.526       22.450        0.028      343.212       19.164      861.821
08/18/2013  03:45:00      -60.742      -40.387        5.229       56.773       34.471       25.328     3223.184     1188.279      641.500        0.520        0.253       72.944       30.266        0.172      343.173       19.098      861.820
08/18/2013  03:46:00     -108.406      -71.251        0.634       48.644       35.825       29.255     2366.200     1283.425      855.859        1.067        0.225      129.725       23.634        0.033      343.156       19.069      861.808
08/18/2013  03:47:00      -60.172      -48.862        7.218       61.404       48.473       35.281     3770.422     2349.659     1244.765        0.671        0.368       77.512       29.471        0.145      343.126       19.019      861.790
08/18/2013  03:48:00     -106.494      -77.917       11.236       66.409       69.115       37.235     4410.163     4776.868     1386.437        1.405        0.529      131.954       39.313        0.089      343.113       18.995      861.792
08/18/2013  03:49:00     -134.353     -105.932        1.297       68.969       47.902       34.603     4756.759     2294.585     1197.348        1.876        0.412      171.092       34.036        0.040      343.163       19.080      861.796
08/18/2013  03:50:00     -106.292      -56.174        5.130       45.869       39.123       27.009     2103.933     1530.606      729.487        0.942        0.218      120.222       26.904        0.050      343.188       19.124      861.786
08/18/2013  03:51:00      -87.461      -68.709       -1.743       64.824       47.181       28.693     4202.168     2226.081      823.276        0.981        0.363      111.222       32.359        0.085      343.132       19.028      861.774
08/18/2013  03:52:00     -134.133     -107.396        1.370       78.649       49.389       34.982     6185.599     2439.226     1223.752        1.969        0.492      171.830       38.962        0.051      343.094       18.961      861.767
08/18/2013  03:53:00     -112.265      -79.597        8.350       71.767       66.949       32.842     5150.435     4482.130     1078.593        1.486        0.536      137.619       38.766        0.079      343.080       18.938      861.778
08/18/2013  03:54:00     -138.475     -108.644       -4.409       34.570       48.370       26.208     1195.074     2339.681      686.846        1.761        0.211      176.008       15.753        0.008      343.095       18.965      861.770
08/18/2013  03:55:00      -99.548     -106.729       -1.372       63.498       47.794       36.428     4031.990     2284.305     1326.964        1.447        0.382      145.948       41.952        0.083      343.045       18.879      861.750
08/18/2013  03:56:00     -140.591      -87.721       -5.328       76.279       47.373       30.935     5818.540     2244.231      956.944        1.825        0.451      165.713       26.198        0.025      343.009       18.816      861.750
08/18/2013  03:57:00      -63.412      -67.774       -1.393       45.366       44.641       32.247     2058.106     1992.787     1039.871        0.685        0.255       92.814       35.121        0.143      343.001       18.805      861.759
08/18/2013  03:58:00      -89.866      -77.085       -0.337       74.364       65.785       40.090     5529.975     4327.697     1607.227        1.274        0.573      118.397       48.514        0.168      343.017       18.832      861.766
08/18/2013  03:59:00      -38.846      -43.033       11.028       38.324       29.577       21.588     1468.753      874.816      466.061        0.315        0.140       57.973       19.958        0.119      342.917       18.664      861.795
08/18/2013  04:00:00      -61.643      -61.076       -3.326       52.081       31.269       25.056     2712.446      977.761      627.782        0.593        0.216       86.777       19.722        0.052      343.031       18.858      861.791
08/18/2013  04:01:00      -83.833      -58.834       -8.707       59.527       26.719       21.711     3543.414      713.906      471.387        0.765        0.236      102.418       26.448        0.067      342.988       18.784      861.791
08/18/2013  04:02:00     -143.048      -82.126      -11.876       47.599       43.377       23.535     2265.637     1881.593      553.884        1.602        0.235      164.947       15.262        0.009      342.981       18.770      861.830
08/18/2013  04:03:00      -72.917      -46.216       -0.253       43.839       30.130       24.136     1921.877      907.810      582.559        0.543        0.171       86.330       27.883        0.104      342.819       18.494      861.839
08/18/2013  04:04:00      -17.652      -75.269       -3.028       25.292       38.744       15.388      639.703     1501.086      236.778        0.418        0.119       77.311       15.869        0.042      342.882       18.604      861.812
08/18/2013  04:05:00      -75.904      -40.877        9.874       51.540       48.983       25.850     2656.355     2399.309      668.248        0.663        0.286       86.211       28.101        0.106      342.994       18.793      861.812
08/18/2013  04:06:00     -108.184      -41.526       -4.802       43.611       43.106       22.491     1901.928     1858.144      505.867        0.886        0.213      115.880       19.080        0.027      342.945       18.710      861.837
08/18/2013  04:07:00      -63.909      -21.613       -3.414       31.184       29.546       12.915      972.458      872.983      166.803        0.329        0.101       67.465       15.988        0.056      342.891       18.619      861.852
08/18/2013  04:08:00        4.024     -119.616        6.028       33.810       30.731       23.522     1143.114      944.403      553.267        0.850        0.132      119.684       17.540        0.021      343.305       19.323      861.824
08/18/2013  04:09:00       28.959      -52.791       -4.354       41.400       60.874       27.722     1713.976     3705.625      768.537        0.492        0.309       60.212       16.607        0.076      343.207       19.156      861.835
08/18/2013  04:10:00      -36.221       -1.593        2.118       45.566       32.206       29.365     2076.290     1037.248      862.284        0.265        0.199       36.256       19.520        0.290      342.949       18.718      861.870
08/18/2013  04:11:00     -114.564       -6.149       -5.757       36.916       35.901       19.686     1362.760     1288.859      387.545        0.812        0.152      114.728       15.794        0.019      343.020       18.837      861.895
08/18/2013  04:12:00     -117.037      -11.376      -11.448       48.595       32.727       23.204     2361.455     1071.061      538.437        0.896        0.199      117.589       21.996        0.035      342.859       18.564      861.918
08/18/2013  04:13:00      -57.528      -41.607        4.370       45.758       17.056       15.894     2093.811      290.900      252.621        0.385        0.132       70.998       20.727        0.085      342.897       18.628      861.926
08/18/2013  04:14:00      -41.127        5.620       -4.214       26.888       32.599       14.067      722.975     1062.687      197.867        0.186        0.099       41.509       17.859        0.185      342.858       18.563      861.925
08/18/2013  04:15:00      -78.206       -6.400       -8.472       36.660       29.100       16.979     1343.950      846.824      288.275        0.435        0.124       78.467        8.613        0.012      342.978       18.766      861.935
08/18/2013  04:16:00     -101.553      -61.375       -1.953       41.764       29.773       21.300     1744.195      886.414      453.678        0.858        0.154      118.659       13.098        0.012      342.869       18.581      861.944
08/18/2013  04:17:00      -38.052      -28.955        9.091       52.143       27.275       23.082     2718.864      743.912      532.764        0.318        0.200       47.815       22.111        0.214      342.869       18.581      861.944
08/18/2013  04:18:00      -76.184      -22.575        3.901       26.365       25.176       18.117      695.137      633.836      328.210        0.399        0.083       79.458       19.881        0.063      342.871       18.584      861.949
08/18/2013  04:19:00      -25.837      -24.068       -8.182       13.921       13.093        9.696      193.788      171.417       94.008        0.089        0.023       35.310        9.245        0.069      342.962       18.737      861.954
08/18/2013  04:20:00      -65.603      -29.794       -5.549       27.275       13.466       11.017      743.914      181.344      121.364        0.313        0.052       72.052        8.552        0.014      342.964       18.743      861.945
08/18/2013  04:21:00      -61.638      -24.441        2.766       33.636       15.453       10.498     1131.401      238.801      110.210        0.294        0.074       66.307       15.302        0.053      342.901       18.636      861.968
08/18/2013  04:22:00       22.431      -13.831       12.612       19.801       17.086       13.070      392.087      291.939      170.833        0.085        0.043       26.353        4.754        0.033      342.876       18.593      861.972
08/18/2013  04:23:00       -3.297        0.390       11.282       20.438       13.703       10.796      417.722      187.769      116.551        0.043        0.036        3.320        9.600        8.359      342.758       18.392      861.987
08/18/2013  04:24:00        5.533      -27.560       13.202       28.650       22.222       16.528      820.847      493.802      273.178        0.128        0.079       28.110       15.692        0.312      342.768       18.410      861.981
08/18/2013  04:25:00      -98.108      -38.586      -11.448       19.450       20.242       12.793      378.291      409.733      163.655        0.610        0.048      105.424        9.166        0.008      342.961       18.739      861.993
08/18/2013  04:26:00      -55.130      -33.375       -4.189       50.746       22.275       15.373     2575.120      496.188      236.314        0.374        0.165       64.445       22.100        0.118      342.855       18.558      861.985
08/18/2013  04:27:00     -109.005      -47.228        0.031       41.062       18.234       13.375     1686.108      332.489      178.892        0.815        0.110      118.797       13.368        0.013      342.871       18.583      861.977
08/18/2013  04:28:00      -87.774      -36.815        4.177       46.305       29.458       16.212     2144.188      867.760      262.831        0.618        0.164       95.182       21.581        0.051      342.831       18.515      861.986
08/18/2013  04:29:00        2.212        7.644       16.291       11.717       15.481       14.722      137.278      239.665      216.748        0.046        0.030        7.957       10.175        1.635      342.623       18.161      861.983
08/18/2013  04:30:00      -17.678      -38.641       -1.059       18.748       12.484       10.268      351.484      155.843      105.427        0.121        0.031       42.493       10.582        0.062      342.894       18.622      861.987
08/18/2013  04:31:00      -37.949      -32.633       -2.228       30.695       20.519       10.957      942.157      421.047      120.056        0.200        0.074       50.050       10.549        0.044      342.974       18.759      861.974
08/18/2013  04:32:00      -14.785      -25.826        1.758       26.858       16.562       13.677      721.367      274.284      187.072        0.104        0.059       29.758       15.225        0.262      342.936       18.695      861.977
08/18/2013  04:33:00        3.457      -20.515       -2.194       11.943       27.706       12.189      142.640      767.604      148.560        0.075        0.053       20.804       13.437        0.417      342.935       18.693      861.974
08/18/2013  04:34:00        1.885      -14.980       -1.371       24.392       25.918       13.354      594.948      671.744      178.340        0.084        0.072       15.098       11.518        0.582      342.890       18.615      861.979
08/18/2013  04:35:00        2.474      -27.179        5.894       28.394       35.294       28.348      806.211     1245.659      803.631        0.182        0.143       27.291       25.585        0.879      343.020       18.837      861.981
08/18/2013  04:36:00       10.738        9.600       29.328       20.775       25.768       17.358      431.612      663.971      301.290        0.123        0.070       14.404       13.328        0.856      342.862       18.568      861.967
08/18/2013  04:37:00        2.319       -4.758        8.752        9.967        7.758       11.390       99.340       60.182      129.734        0.020        0.014        5.293        8.408        2.523      342.657       18.221      861.975
08/18/2013  04:38:00      -32.275      -39.559       -7.455       48.575       25.178       14.994     2359.513      633.935      224.815        0.294        0.161       51.055       17.737        0.121      342.888       18.613      861.975
08/18/2013  04:39:00      -26.473     -104.091        3.543       62.075       37.901       24.402     3853.314     1436.513      595.462        0.872        0.294      107.405       27.171        0.064      343.551       19.745      861.965
08/18/2013  04:40:00        1.681       10.166       20.269       35.376       37.735       19.963     1251.479     1423.897      398.522        0.179        0.154       10.305       22.282        4.676      343.251       19.231      861.967
08/18/2013  04:41:00       24.661       -3.431       26.797       20.107       13.520       15.274      404.284      182.794      233.295        0.108        0.041       24.899       12.209        0.240      342.856       18.559      861.973
08/18/2013  04:42:00       -6.057      -30.348        4.705       13.954       16.418       11.530      194.713      269.559      132.936        0.079        0.030       30.946       11.902        0.148      343.091       18.959      861.970
08/18/2013  04:43:00      -23.354      -42.249       16.499       28.043       46.081       16.949      786.413     2123.415      287.261        0.290        0.160       48.274       15.291        0.100      343.282       19.284      861.988
08/18/2013  04:44:00      -14.033     -142.643        5.144       34.170       52.412       22.346     1167.604     2747.026      499.353        1.249        0.221      143.332       12.280        0.007      343.364       19.425      862.007
08/18/2013  04:45:00      -27.550     -149.814       -4.621       40.496       47.467       30.544     1639.934     2253.162      932.924        1.402        0.241      152.326       19.976        0.017      343.163       19.080      862.003
08/18/2013  04:46:00      -21.935      -81.707        9.057       57.387       38.048       29.150     3293.262     1447.629      849.750        0.641        0.280       84.600       26.594        0.099      343.122       19.012      862.016
08/18/2013  04:47:00      -68.201      -76.367        8.718       63.629       54.497       27.553     4048.652     2969.917      759.176        0.917        0.389      102.388       29.523        0.083      342.912       18.652      862.017
08/18/2013  04:48:00      -24.712      -65.719       17.189       46.850       54.607       34.657     2194.939     2981.925     1201.094        0.580        0.319       70.212       30.568        0.190      342.851       18.549      862.022
08/18/2013  04:49:00      -71.003      -72.046        3.935       53.086       62.994       32.373     2818.167     3968.214     1047.998        0.904        0.392      101.154       31.446        0.097      342.761       18.397      862.029
08/18/2013  04:50:00      -76.491      -57.689       18.522       88.569       46.988       34.812     7844.389     2207.873     1211.895        1.039        0.563       95.806       22.503        0.055      342.664       18.231      862.025
08/18/2013  04:51:00      -97.333     -123.067        6.190      126.762      100.016       43.954    16068.518    10003.231     1931.923        2.633        1.400      156.905       48.313        0.095      342.687       18.270      862.030
08/18/2013  04:52:00     -140.032     -139.531        0.001       80.311       65.806       43.267     6449.803     4330.397     1872.054        2.586        0.633      197.681       47.327        0.057      342.540       18.018      862.021
08/18/2013  04:53:00      -63.174     -102.346        7.040       95.936       71.938       44.730     9203.663     5175.138     2000.800        1.544        0.819      120.273       37.693        0.098      342.675       18.250      861.995
08/18/2013  04:54:00      -82.787      -91.206       22.560       72.787       75.930       47.303     5298.009     5765.417     2237.572        1.449        0.665      123.175       40.336        0.107      342.572       18.075      862.000
08/18/2013  04:55:00      -37.001      -56.648        9.291       60.311       48.436       42.465     3637.383     2346.037     1803.280        0.622        0.389       67.662       25.395        0.141      342.626       18.169      862.001
08/18/2013  04:56:00     -113.831      -76.798        6.463       88.470       57.181       37.385     7826.948     3269.688     1397.602        1.569        0.625      137.315       37.610        0.075      342.648       18.203      861.997
08/18/2013  04:57:00     -122.991      -38.700       -4.741       63.814       43.368       40.797     4072.263     1880.810     1664.378        1.213        0.381      128.936       34.566        0.072      342.532       18.007      862.030
08/18/2013  04:58:00      -42.036      -51.452        7.856       51.398       75.310       28.691     2641.791     5671.579      823.154        0.680        0.457       66.441       22.156        0.111      342.554       18.045      862.026
08/18/2013  04:59:00      -86.735      -98.488        0.933       54.576       49.770       27.469     2978.590     2477.094      754.535        1.172        0.311      131.236       23.969        0.033      342.574       18.078      862.028
08/18/2013  05:00:00      -42.544      -57.003       18.907       58.441       92.637       33.341     3415.381     8581.558     1111.652        0.926        0.655       71.129       30.973        0.190      342.750       18.378      862.020
08/18/2013  05:01:00      -76.268      -74.531        3.404       75.198       49.993       28.030     5654.786     2499.328      785.688        1.016        0.447      106.638       21.559        0.041      342.609       18.139      862.030
08/18/2013  05:02:00       -6.486      -86.639       11.156       72.258       60.198       32.203     5221.206     3623.771     1037.022        0.878        0.494       86.882       24.526        0.080      342.686       18.271      862.037
08/18/2013  05:03:00      -18.572      -15.930      -19.067       47.172       41.600       27.754     2225.155     1730.550      770.300        0.284        0.236       24.469       23.074        0.889      342.617       18.152      862.031
08/18/2013  05:04:00      -85.868      -24.276        5.786       68.929       58.662       33.102     4751.189     3441.215     1095.771        0.864        0.464       89.234       34.590        0.150      342.602       18.126      862.056
08/18/2013  05:05:00      -78.844      -81.779        0.283       72.622       39.935       28.304     5273.942     1594.769      801.113        1.029        0.383      113.597       31.324        0.076      342.596       18.117      862.053
08/18/2013  05:06:00      -35.522     -120.830       12.883       54.050       54.222       32.853     2921.368     2940.014     1079.344        1.148        0.347      125.944       25.856        0.042      342.609       18.139      862.050
08/18/2013  05:07:00      -92.942     -133.099        9.473       75.872       83.348       32.598     5756.490     6946.862     1062.599        2.010        0.688      162.337       32.147        0.039      342.652       18.209      862.041
08/18/2013  05:08:00      -28.811     -144.287       15.292       47.651       66.869       43.402     2270.589     4471.421     1883.756        1.525        0.431      147.135       28.529        0.038      342.653       18.211      862.036
08/18/2013  05:09:00      -54.898      -51.579      -12.278       77.068       53.984       28.411     5939.416     2914.218      807.212        0.774        0.483       75.327       21.715        0.083      342.620       18.157      862.057
08/18/2013  05:10:00     -134.304      -65.392       -0.996       38.125       35.301       24.144     1453.490     1246.134      582.946        1.280        0.164      149.377       19.283        0.017      342.527       17.999      862.073
08/18/2013  05:11:00      -66.184     -107.385       -4.021       44.204       28.906       20.091     1953.953      835.550      403.634        0.956        0.160      126.142       18.255        0.021      342.531       18.006      862.076
08/18/2013  05:12:00     -104.081      -47.212        2.982       42.683       45.004       24.770     1821.852     2025.405      613.558        0.877        0.223      114.289       21.761        0.036      342.501       17.955      862.089
08/18/2013  05:13:00     -138.060      -73.909      -13.849       28.144       35.922       18.778      792.100     1290.420      352.610        1.357        0.122      156.598       10.823        0.005      342.557       18.049      862.120
08/18/2013  05:14:00      -92.208      -70.432       -9.915       28.045       17.668       14.721      786.523      312.159      216.699        0.744        0.066      116.031        9.098        0.006      342.581       18.091      862.113
08/18/2013  05:15:00      -98.914      -73.877       -6.003       39.843       41.035       24.006     1587.468     1683.870      576.309        0.956        0.192      123.458       20.772        0.028      342.568       18.069      862.110
08/18/2013  05:16:00      -98.568      -55.095       -7.834       37.618       26.580       15.445     1415.117      706.487      238.551        0.759        0.118      112.921       18.253        0.026      342.568       18.070      862.138
08/18/2013  05:17:00      -75.182      -23.724      -11.563       18.073       14.326        8.914      326.632      205.231       79.457        0.348        0.031       78.836        7.982        0.010      342.637       18.185      862.142
08/18/2013  05:18:00      -37.209      -10.049        0.955       14.786       11.417       15.354      218.628      130.340      235.746        0.104        0.029       38.542       10.538        0.075      342.663       18.229      862.136
08/18/2013  05:19:00      -22.145       -9.630        5.594       19.917       10.206        7.507      396.682      104.156       56.350        0.059        0.028       24.148        9.075        0.141      342.697       18.289      862.136
08/18/2013  05:20:00      -28.685        1.050        1.257       16.743       14.690       10.541      280.332      215.791      111.105        0.072        0.030       28.704       10.221        0.127      342.641       18.191      862.147
08/18/2013  05:21:00      -52.234       -1.333       -5.245       15.331       13.030       11.394      235.033      169.783      129.833        0.165        0.027       52.251        7.821        0.022      342.581       18.090      862.145
08/18/2013  05:22:00      -58.323        5.294       -9.639       20.232       13.922       10.253      409.324      193.814      105.125        0.212        0.035       58.563        8.498        0.021      342.435       17.845      862.151
08/18/2013  05:23:00      -27.686      -14.964       -5.283       15.120       16.202        8.494      228.628      262.519       72.147        0.079        0.028       31.471        8.529        0.073      342.494       17.942      862.157
08/18/2013  05:24:00      -51.080      -28.965       -5.503       34.790       14.464        9.825     1210.344      209.200       96.536        0.250        0.076       58.720       15.600        0.071      342.587       18.100      862.165
08/18/2013  05:25:00      -54.780      -20.529        0.677       24.338       13.447        7.522      592.357      180.828       56.586        0.213        0.041       58.500        7.362        0.016      342.613       18.145      862.167
08/18/2013  05:26:00       -7.029      -12.982        4.090       15.795       10.860       11.823      249.474      117.941      139.785        0.037        0.025       14.762       10.870        0.542      342.639       18.192      862.170
08/18/2013  05:27:00       37.879      -15.090       11.462       34.102       16.612       26.026     1162.940      275.971      677.373        0.195        0.106       40.774       14.001        0.118      342.345       17.689      862.183
08/18/2013  05:28:00      -17.088      -18.023        1.724       30.433       19.343       15.394      926.195      374.169      236.982        0.108        0.077       24.836       10.975        0.195      342.576       18.083      862.197
08/18/2013  05:29:00       -2.108      -29.706       12.319       21.860       22.803       16.844      477.866      519.985      283.714        0.116        0.064       29.781       14.521        0.238      342.531       18.006      862.210
08/18/2013  05:30:00       13.623      -23.466        0.039       13.156       12.406       12.717      173.085      153.910      161.728        0.061        0.024       27.134        7.138        0.069      342.744       18.368      862.205
08/18/2013  05:31:00       27.456      -28.412       -5.004       22.551       19.576       19.151      508.546      383.233      366.747        0.142        0.063       39.511        9.812        0.062      342.456       17.879      862.206
08/18/2013  05:32:00       14.006      -24.277       -3.440       19.218       25.071       15.531      369.349      628.556      241.213        0.102        0.062       28.028        9.375        0.112      342.577       18.084      862.210
08/18/2013  05:33:00       -6.105      -39.330        2.458       19.580       16.983       12.539      383.379      288.413      157.233        0.121        0.041       39.801        8.234        0.043      342.777       18.424      862.211
08/18/2013  05:34:00      -43.520        1.243       -3.731       30.855       21.746       11.516      952.007      472.896      132.621        0.173        0.078       43.538       12.541        0.083      342.641       18.193      862.223
08/18/2013  05:35:00      -81.272       -2.016      -13.733       20.534       26.167       11.535      421.658      684.725      133.054        0.402        0.062       81.297       12.427        0.023      342.546       18.032      862.239
08/18/2013  05:36:00      -68.191      -35.732       -6.260       21.521       17.889        9.758      463.163      320.024       95.214        0.342        0.044       76.985        9.073        0.014      342.565       18.062      862.239
08/18/2013  05:37:00      -11.374      -27.450        0.303       23.451       12.657       14.217      549.946      160.204      202.114        0.090        0.046       29.713        9.446        0.101      342.631       18.175      862.225
08/18/2013  05:38:00      -58.392      -40.106       -5.534       18.745       14.216       14.259      351.369      202.097      203.317        0.290        0.038       70.839        8.452        0.014      342.773       18.418      862.219
08/18/2013  05:39:00      -64.377      -36.446       -7.146       26.602       21.229       13.682      707.683      450.652      187.206        0.343        0.067       73.978       10.378        0.020      342.652       18.212      862.211
08/18/2013  05:40:00      -21.921      -15.370        0.657       17.243        8.424       10.311      297.306       70.966      106.314        0.060        0.024       26.772        6.172        0.053      342.560       18.054      862.211
08/18/2013  05:41:00      -50.003      -29.029       -3.832       29.787       18.334       11.532      887.279      336.138      132.990        0.236        0.068       57.818       12.395        0.046      342.529       18.003      862.218
08/18/2013  05:42:00      -94.052      -52.050      -10.622       30.321       19.570       16.789      919.350      382.986      281.866        0.663        0.079      107.495       11.737        0.012      342.472       17.905      862.228
08/18/2013  05:43:00      -64.827      -43.741       -1.403       35.994       20.767       16.374     1295.595      431.264      268.116        0.406        0.100       78.204        9.374        0.014      342.412       17.802      862.234
08/18/2013  05:44:00      -13.753      -19.655        5.929       21.284       34.561       13.483      453.005     1194.453      181.795        0.122        0.091       23.989       19.063        0.631      342.429       17.834      862.234
08/18/2013  05:45:00        9.050        1.413       14.340       14.412       12.770       11.118      207.719      163.068      123.608        0.039        0.025        9.160        9.326        1.037      342.199       17.440      862.240
08/18/2013  05:46:00      -40.859      -14.870      -11.101       45.735       19.660       14.736     2091.672      386.507      217.140        0.235        0.135       43.480       17.468        0.161      342.344       17.687      862.257
08/18/2013  05:47:00      -92.750      -55.186       -3.130       23.330       18.053       12.854      544.273      325.924      165.213        0.635        0.052      107.926       10.149        0.009      342.430       17.835      862.269
08/18/2013  05:48:00      -68.221      -57.698       -4.732       24.439       20.518       14.631      597.265      420.982      214.063        0.462        0.062       89.349       14.296        0.026      342.407       17.795      862.289
08/18/2013  05:49:00      -49.376      -30.439        0.489       18.932       28.317       13.445      358.414      801.836      180.763        0.235        0.067       58.005       15.185        0.069      342.353       17.702      862.303
08/18/2013  05:50:00      -57.378      -39.222        0.057       27.997       10.554       11.641      783.854      111.383      135.513        0.293        0.052       69.503       13.117        0.036      342.344       17.689      862.313
08/18/2013  05:51:00       -8.857      -52.617       -4.831       31.151       30.067       20.303      970.368      904.044      412.192        0.258        0.114       53.358        8.936        0.028      342.153       17.364      862.318
08/18/2013  05:52:00      -43.651      -39.046        8.624       44.914       34.695       25.503     2017.260     1203.730      650.406        0.369        0.194       58.566       23.498        0.161      342.270       17.562      862.318
08/18/2013  05:53:00      -97.533      -59.625       -4.580       34.256       25.319       17.512     1173.479      641.060      306.654        0.760        0.106      114.315       19.873        0.030      342.318       17.644      862.319
08/18/2013  05:54:00      -91.807      -51.858        3.591       33.802       25.910       19.032     1142.558      671.342      362.204        0.665        0.109      105.441       16.081        0.023      342.268       17.559      862.335
08/18/2013  05:55:00      -78.913      -16.089        2.438       24.052       32.802       15.494      578.500     1075.973      240.067        0.419        0.095       80.536       12.122        0.023      342.181       17.412      862.368
08/18/2013  05:56:00      -81.977      -31.883       -3.722       21.930       18.404       14.008      480.943      338.716      196.215        0.438        0.051       87.959       11.528        0.017      342.188       17.424      862.399
08/18/2013  05:57:00      -36.458      -22.553        7.395       36.445       18.854       13.056     1328.236      355.479      170.457        0.187        0.093       42.870       11.083        0.067      342.148       17.353      862.429
08/18/2013  05:58:00      -37.337      -30.159        0.009       29.042       14.519       13.703      843.452      210.797      187.774        0.177        0.062       47.996       15.779        0.108      342.281       17.582      862.462
08/18/2013  05:59:00      -51.704      -24.577       -1.377       23.033       16.234       10.791      530.498      263.535      116.444        0.209        0.046       57.248        8.270        0.021      342.243       17.517      862.483
08/18/2013  06:00:00      -48.870      -80.597        1.523       33.473       32.728       18.073     1120.470     1071.094      326.642        0.570        0.126       94.256       18.020        0.037      342.208       17.455      862.497
08/18/2013  06:01:00      -54.125      -63.788        2.860       48.892       46.461       25.972     2390.441     2158.589      674.570        0.611        0.261       83.657       23.280        0.077      342.233       17.499      862.512
08/18/2013  06:02:00      -47.587      -41.684        9.252       40.206       37.692       21.604     1616.561     1420.673      466.752        0.380        0.175       63.262       14.282        0.051      342.167       17.387      862.536
08/18/2013  06:03:00      -92.082      -38.597      -10.923       35.478       26.519       21.965     1258.704      703.254      482.448        0.627        0.122       99.844       18.032        0.033      342.202       17.446      862.572
08/18/2013  06:04:00      -45.440      -62.765       -0.818       42.559       38.657       26.028     1811.288     1494.358      677.456        0.499        0.199       77.487       27.490        0.126      342.242       17.514      862.597
08/18/2013  06:05:00      -64.623      -44.117       -8.578       24.210       40.734       17.355      586.126     1659.297      301.208        0.437        0.127       78.246       19.232        0.060      342.224       17.484      862.611
08/18/2013  06:06:00      -61.547      -54.563        3.019       54.633       25.902       19.300     2984.750      670.923      372.480        0.540        0.201       82.251       20.878        0.064      342.186       17.419      862.618
08/18/2013  06:07:00     -105.093      -46.775       -3.845       37.557       30.298       20.323     1410.507      917.988      413.006        0.799        0.137      115.033       20.744        0.033      342.126       17.317      862.641
08/18/2013  06:08:00     -123.539      -58.543       -4.588       38.556       41.242       21.052     1486.558     1700.886      443.188        1.117        0.182      136.708       22.678        0.028      342.103       17.280      862.655
08/18/2013  06:09:00     -113.275      -73.641       -0.798       28.341       32.872       21.115      803.212     1080.583      445.827        1.029        0.116      135.108       20.396        0.023      342.117       17.302      862.649
08/18/2013  06:10:00      -84.422      -72.647       -4.836       26.030       32.377       16.269      677.547     1048.295      264.670        0.721        0.100      111.377       12.403        0.012      342.157       17.371      862.645
08/18/2013  06:11:00      -92.653      -66.991       -2.419       54.005       26.007       24.116     2916.537      676.390      581.591        0.863        0.209      114.334       28.605        0.063      342.178       17.407      862.650
08/18/2013  06:12:00     -104.577      -47.807       -6.674       30.797       30.870       18.637      948.449      952.968      347.336        0.776        0.112      114.986       18.775        0.027      342.150       17.359      862.659
08/18/2013  06:13:00     -113.979      -68.572       -9.070       37.559       33.912       24.504     1410.715     1150.012      600.469        1.047        0.158      133.016       22.433        0.028      342.125       17.316      862.664
08/18/2013  06:14:00      -68.884      -32.376        4.696       46.895       42.485       18.427     2199.177     1805.008      339.551        0.508        0.217       76.113       23.420        0.095      342.085       17.247      862.665
08/18/2013  06:15:00      -98.763      -79.444       -2.162       53.134       51.297       24.725     2823.245     2631.366      611.312        1.107        0.303      126.749       28.941        0.052      342.084       17.248      862.666
08/18/2013  06:16:00     -122.191      -85.753       -1.082       33.549       45.615       24.930     1125.509     2080.739      621.484        1.306        0.191      149.278       20.842        0.019      342.092       17.261      862.693
08/18/2013  06:17:00      -85.494      -19.276        4.842       45.496       35.113       26.869     2069.859     1232.946      721.955        0.586        0.201       87.640       29.487        0.113      342.036       17.163      862.712
08/18/2013  06:18:00      -88.695      -56.640       -2.466       39.396       41.107       21.396     1552.011     1689.755      457.771        0.739        0.185      105.237       16.945        0.026      342.104       17.280      862.726
08/18/2013  06:19:00     -125.200      -65.966        3.346       60.738       52.666       31.847     3689.122     2773.694     1014.219        1.376        0.374      141.515       30.799        0.047      342.025       17.146      862.734
08/18/2013  06:20:00     -149.477      -81.767       -4.941       48.662       36.422       28.862     2367.999     1326.538      833.031        1.679        0.226      170.380       27.260        0.026      342.014       17.125      862.751
08/18/2013  06:21:00     -100.066      -58.915       -1.643       60.881       42.609       24.586     3706.475     1815.485      604.462        0.981        0.306      116.122       26.051        0.050      342.003       17.108      862.768
08/18/2013  06:22:00     -100.115      -33.341        0.196       50.783       32.084       26.060     2578.915     1029.383      679.135        0.771        0.214      105.521       26.128        0.061      342.006       17.115      862.768
08/18/2013  06:23:00     -118.517      -77.406       -2.686       65.793       36.039       23.009     4328.770     1298.819      529.402        1.310        0.308      141.555       13.745        0.009      342.024       17.142      862.763
08/18/2013  06:24:00     -114.236      -62.090       -1.361       51.620       44.213       28.450     2664.653     1954.830      809.398        1.117        0.271      130.019       22.259        0.029      342.011       17.122      862.782
08/18/2013  06:25:00     -103.506     -109.491       -3.161       48.580       67.536       31.390     2360.063     4561.102      985.316        1.531        0.395      150.671       35.069        0.054      342.007       17.115      862.810
08/18/2013  06:26:00     -127.368      -81.088       -9.292       78.908       53.127       28.402     6226.485     2822.426      806.659        1.637        0.493      150.989       32.604        0.047      342.017       17.133      862.823
08/18/2013  06:27:00      -96.904      -94.472       -5.135       62.267       50.218       31.312     3877.192     2521.887      980.443        1.286        0.369      135.334       35.419        0.068      341.968       17.050      862.820
08/18/2013  06:28:00     -124.145      -81.278        0.559       56.395       49.819       23.810     3180.411     2481.942      566.905        1.412        0.311      148.385       26.991        0.033      341.949       17.016      862.830
08/18/2013  06:29:00     -113.726     -107.474       -2.323       53.743       41.190       26.487     2888.268     1696.578      701.542        1.489        0.264      156.475       22.423        0.021      341.905       16.940      862.860
08/18/2013  06:30:00     -114.910      -82.446       -9.699       49.962       37.587       22.803     2496.250     1412.809      519.985        1.226        0.221      141.427       22.622        0.026      341.911       16.953      862.878
08/18/2013  06:31:00      -90.191      -82.046       -1.073       53.331       37.327       29.493     2844.242     1393.290      869.854        0.999        0.255      121.926       26.987        0.049      341.894       16.924      862.887
08/18/2013  06:32:00     -124.406      -95.290        2.154       57.780       63.278       34.692     3338.585     4004.130     1203.518        1.655        0.427      156.707       41.651        0.071      341.838       16.827      862.896
08/18/2013  06:33:00     -133.741     -117.703        1.968       65.550       60.713       35.847     4296.835     3686.040     1285.006        2.050        0.463      178.159       36.214        0.041      341.802       16.766      862.915
08/18/2013  06:34:00     -177.640     -159.197      -14.787       52.902       51.886       31.857     2798.633     2692.119     1014.840        3.181        0.325      238.536       25.941        0.012      341.806       16.770      862.929
08/18/2013  06:35:00     -168.595     -141.505      -13.446       67.392       62.759       39.989     4541.696     3938.661     1599.088        2.935        0.504      220.109       41.082        0.035      341.804       16.767      862.956
08/18/2013  06:36:00     -156.834     -132.780      -13.341       52.136       69.548       33.403     2718.124     4836.862     1115.789        2.554        0.434      205.493       29.721        0.021      341.802       16.765      862.973
08/18/2013  06:37:00     -132.591      -82.364        2.261       73.997       47.655       32.134     5475.591     2271.024     1032.586        1.657        0.439      156.091       26.784        0.029      341.801       16.765      862.982
08/18/2013  06:38:00     -139.809      -99.605        6.318       77.675       55.398       43.265     6033.457     3068.923     1871.857        2.024        0.549      171.661       40.808        0.057      341.796       16.756      862.984
08/18/2013  06:39:00     -179.651     -129.273       -4.198       63.560       51.992       37.735     4039.858     2703.159     1423.922        2.858        0.408      221.328       35.318        0.025      341.785       16.735      862.986
08/18/2013  06:40:00     -140.346     -113.029       -2.345       68.409       68.420       36.342     4679.778     4681.301     1320.722        2.158        0.534      180.202       32.746        0.033      341.800       16.763      863.004
08/18/2013  06:41:00     -157.178     -105.520       -9.528       54.728       52.257       30.337     2995.178     2730.825      920.312        2.129        0.332      189.313       21.624        0.013      341.797       16.756      863.014
08/18/2013  06:42:00     -123.734      -85.400        3.038       63.165       58.600       40.119     3989.854     3433.967     1609.569        1.582        0.452      150.344       44.851        0.089      341.777       16.725      863.035
08/18/2013  06:43:00     -137.529      -82.491      -17.592       40.596       39.773       25.401     1647.999     1581.883      645.213        1.495        0.194      160.372       15.630        0.009      341.765       16.705      863.064
08/18/2013  06:44:00     -104.227      -28.651       12.298       53.087       46.425       28.771     2818.252     2155.294      827.777        0.882        0.290      108.093       28.468        0.069      341.712       16.616      863.081
08/18/2013  06:45:00     -120.713      -50.023        2.449       64.039       32.888       22.484     4100.973     1081.617      505.537        1.138        0.284      130.667       27.170        0.043      341.704       16.602      863.089
08/18/2013  06:46:00     -155.372      -57.949        2.775       43.501       41.094       27.117     1892.317     1688.681      735.349        1.591        0.216      165.827       28.742        0.030      341.684       16.566      863.095
08/18/2013  06:47:00     -146.821      -17.620       -2.287       58.589       36.891       24.479     3432.668     1360.973      599.238        1.363        0.270      147.875       21.536        0.021      341.665       16.535      863.101
08/18/2013  06:48:00     -147.399      -81.521        5.812       55.264       33.407       24.228     3054.076     1116.045      587.008        1.658        0.238      168.440       18.070        0.012      341.734       16.652      863.120
08/18/2013  06:49:00     -135.487      -58.132       -2.779       50.011       38.807       23.743     2501.069     1505.965      563.745        1.316        0.229      147.431       16.251        0.012      341.745       16.672      863.130
08/18/2013  06:50:00     -128.397      -73.074       -4.089       38.841       35.641       18.499     1508.614     1270.312      342.223        1.248        0.156      147.734       19.199        0.017      341.785       16.739      863.145
08/18/2013  06:51:00     -135.081      -13.407       -8.764       48.894       31.485       23.332     2390.642      991.290      544.369        1.121        0.196      135.745       18.297        0.018      341.735       16.654      863.168
08/18/2013  06:52:00     -133.468      -39.632       -9.052       53.928       44.609       22.429     2908.224     1989.952      503.048        1.243        0.270      139.228       23.925        0.030      341.744       16.668      863.168
08/18/2013  06:53:00     -106.254      -51.259        2.513       52.317       36.168       25.133     2737.089     1308.109      631.688        0.930        0.234      117.972       29.761        0.064      341.865       16.875      863.162
08/18/2013  06:54:00     -151.950      -44.672       -3.793       52.294       37.052       27.094     2734.654     1372.839      734.082        1.497        0.242      158.380       29.528        0.035      341.866       16.876      863.165
08/18/2013  06:55:00     -128.448      -70.317        5.839       72.812       40.485       28.068     5301.561     1639.017      787.825        1.460        0.386      146.435       32.201        0.048      341.937       16.995      863.171
08/18/2013  06:56:00      -68.587      -61.916       15.045       53.609       48.526       33.230     2873.923     2354.781     1104.253        0.755        0.317       92.401       34.593        0.140      341.998       17.101      863.166
08/18/2013  06:57:00     -104.102      -50.996        2.515       47.646       41.208       23.743     2270.188     1698.091      563.722        0.899        0.227      115.921       23.849        0.042      342.036       17.165      863.159
08/18/2013  06:58:00     -121.620      -28.644       -6.898       45.506       31.135       22.497     2070.818      969.383      506.105        0.960        0.177      124.947       20.125        0.026      341.987       17.082      863.143
08/18/2013  06:59:00     -133.789      -30.668       -3.515       46.060       39.589       23.144     2121.559     1567.308      535.624        1.154        0.211      137.259       24.231        0.031      342.006       17.114      863.140
08/18/2013  07:00:00     -177.343      -70.146        2.178       34.201       35.255       18.655     1169.727     1242.882      347.995        1.957        0.138      190.712       16.334        0.007      342.154       17.364      863.143
08/18/2013  07:01:00     -118.019      -46.044        1.049       54.869       40.677       22.415     3010.646     1654.629      502.423        1.061        0.258      126.683       23.948        0.036      342.177       17.403      863.153
08/18/2013  07:02:00     -118.669      -43.175        1.764       61.114       46.149       23.931     3734.959     2129.715      572.676        1.119        0.322      126.279       23.240        0.034      342.143       17.347      863.161
08/18/2013  07:03:00     -148.215      -46.947       -2.770       55.381       29.070       19.082     3067.079      845.080      364.105        1.423        0.214      155.473       25.066        0.026      342.140       17.342      863.157
08/18/2013  07:04:00      -98.579      -47.154        0.554       52.766       21.791       16.910     2784.250      474.828      285.945        0.774        0.177      109.277       22.719        0.043      342.185       17.419      863.172
08/18/2013  07:05:00      -42.345      -11.487        5.879       36.443       26.013       21.339     1328.081      676.672      455.372        0.221        0.123       43.875       21.399        0.238      342.403       17.788      863.193
08/18/2013  07:06:00      -63.498      -20.455        1.100       30.219       27.893       19.383      913.177      778.039      375.707        0.326        0.103       66.712       17.962        0.072      342.326       17.657      863.210
08/18/2013  07:07:00      -96.522      -26.190        0.173       30.811       34.145       17.620      949.303     1165.908      310.475        0.621        0.121      100.012       16.828        0.028      342.352       17.700      863.229
08/18/2013  07:08:00      -76.221      -24.994       -3.893       30.192       36.432       15.920      911.535     1327.258      253.455        0.447        0.125       80.214       14.422        0.032      342.393       17.772      863.245
08/18/2013  07:09:00      -70.525      -17.916       -0.398       31.751       15.576       11.258     1008.114      242.600      126.745        0.334        0.069       72.765       13.243        0.033      342.418       17.815      863.251
08/18/2013  07:10:00      -52.541       -7.084       -1.398       21.864       21.168       12.070      478.033      448.103      145.683        0.194        0.054       53.017        9.267        0.031      342.484       17.926      863.258
08/18/2013  07:11:00      -46.029      -44.786       -1.739       21.541       15.744       14.160      464.027      247.880      200.508        0.252        0.046       64.222        7.769        0.015      342.515       17.979      863.268
08/18/2013  07:12:00      -15.359      -16.104        7.678       21.294       19.923       14.655      453.455      396.918      214.757        0.081        0.053       22.254       11.085        0.248      342.606       18.133      863.268
08/18/2013  07:13:00      -60.731      -31.307        0.446       39.584       22.655       15.521     1566.912      513.256      240.907        0.349        0.116       68.325       14.196        0.043      342.601       18.125      863.276
08/18/2013  07:14:00      -36.920      -33.878        7.446       56.121       21.579       18.982     3149.546      465.641      360.312        0.327        0.199       50.108       26.336        0.276      342.613       18.146      863.262
08/18/2013  07:15:00      -61.595      -56.957        0.596       38.827       17.330       19.078     1507.499      300.314      363.983        0.460        0.109       83.893       22.785        0.074      342.606       18.133      863.257
08/18/2013  07:16:00      -96.219      -26.416       -6.937       14.239       16.403       12.468      202.753      269.062      155.440        0.532        0.031       99.780        9.662        0.009      342.639       18.188      863.254
08/18/2013  07:17:00      -65.299      -48.738        0.490       36.719       19.856       19.070     1348.285      394.250      363.665        0.437        0.105       81.482       25.220        0.096      342.755       18.387      863.251
08/18/2013  07:18:00      -11.053      -15.157       17.943       33.827       22.617       24.519     1144.239      511.520      601.196        0.147        0.113       18.759       22.187        1.399      342.911       18.652      863.246
08/18/2013  07:19:00      -41.811      -42.906        6.955       40.914       35.619       25.442     1673.976     1268.733      647.279        0.361        0.179       59.909       25.990        0.188      342.797       18.459      863.250
08/18/2013  07:20:00      -50.666      -49.341        1.235       42.216       33.573       20.860     1782.158     1127.142      435.127        0.417        0.167       70.722       24.168        0.117      342.810       18.479      863.265
08/18/2013  07:21:00      -56.865      -32.206        1.395       37.081       24.978       20.659     1375.018      623.903      426.787        0.335        0.121       65.351       22.376        0.117      342.866       18.575      863.281
08/18/2013  07:22:00      -42.474      -38.740       -0.472       31.133       20.870       12.902      969.267      435.536      166.470        0.244        0.079       57.488        9.444        0.027      342.790       18.444      863.308
08/18/2013  07:23:00      -12.416      -74.708       -5.115       20.418       22.000        9.013      416.890      483.999       81.237        0.337        0.049       75.733        2.960        0.002      342.797       18.458      863.300
08/18/2013  07:24:00      -68.460      -52.097       -3.455       28.611       25.797       19.075      818.599      665.466      363.840        0.463        0.092       86.028       13.164        0.023      342.810       18.480      863.298
08/18/2013  07:25:00      -65.950      -47.557       -2.186       21.064       26.052       12.972      443.698      678.694      168.280        0.395        0.065       81.308        8.444        0.011      342.797       18.458      863.302
08/18/2013  07:26:00      -82.264      -68.025       -3.830       37.081       32.514       20.284     1374.983     1057.158      411.452        0.713        0.142      106.746       19.251        0.033      342.716       18.319      863.309
08/18/2013  07:27:00      -64.673      -30.329      -10.662       27.309       24.562       13.374      745.790      603.288      178.852        0.337        0.076       71.431        8.268        0.013      342.687       18.272      863.318
08/18/2013  07:28:00      -53.994      -29.327       -6.440       15.876       16.133       11.197      252.050      260.265      125.383        0.223        0.032       61.444        7.052        0.013      342.816       18.491      863.324
08/18/2013  07:29:00      -76.165      -36.333       -3.476       19.555       23.092       13.128      382.382      533.257      172.352        0.411        0.054       84.387        9.453        0.013      342.885       18.608      863.338
08/18/2013  07:30:00      -17.756      -40.701        9.687       32.732       27.711       19.808     1071.416      767.909      392.361        0.215        0.112       44.405       18.957        0.182      342.938       18.699      863.341
08/18/2013  07:31:00      -64.865      -76.026        0.342       58.312       36.845       25.539     3400.293     1357.553      652.221        0.770        0.271       99.937       30.854        0.095      342.956       18.730      863.339
08/18/2013  07:32:00      -76.466      -96.488       -5.046       38.420       28.662       19.225     1476.133      821.501      369.618        0.892        0.133      123.114       22.530        0.033      342.898       18.629      863.341
08/18/2013  07:33:00      -79.778      -78.503       -7.040       53.852       46.298       22.967     2900.066     2143.514      527.465        0.907        0.279      111.926       26.023        0.054      342.882       18.604      863.357
08/18/2013  07:34:00      -57.904      -79.143       -1.663       36.597       29.419       21.201     1339.345      865.483      449.498        0.614        0.133       98.064       20.598        0.044      342.869       18.580      863.362
08/18/2013  07:35:00      -19.111      -37.020        7.558       23.975       36.901       19.126      574.778     1361.666      365.819        0.205        0.115       41.662        8.599        0.043      342.938       18.699      863.375
08/18/2013  07:36:00      -47.400        7.455       11.940       24.037       23.702       17.521      577.769      561.763      306.971        0.195        0.072       47.983        9.762        0.041      342.910       18.650      863.393
08/18/2013  07:37:00      -18.604      -46.891        7.207       34.305       31.383       17.667     1176.838      984.914      312.123        0.253        0.124       50.447       18.996        0.142      342.970       18.752      863.413
08/18/2013  07:38:00      -29.185      -44.633        3.491       33.559       32.258       22.316     1126.182     1040.573      497.983        0.276        0.133       53.328       23.755        0.198      342.950       18.719      863.419
08/18/2013  07:39:00      -28.921      -78.505        6.089       30.956       40.980       16.122      958.287     1679.365      259.914        0.497        0.145       83.662       16.945        0.041      342.937       18.696      863.408
08/18/2013  07:40:00      -17.603      -58.237       10.069       36.606       33.246       25.934     1339.970     1105.329      672.572        0.346        0.156       60.839       26.080        0.184      342.992       18.789      863.385
08/18/2013  07:41:00      -32.809      -44.996       12.221       40.041       42.368       24.497     1603.313     1795.054      600.103        0.362        0.200       55.687       27.186        0.238      343.140       19.043      863.374
08/18/2013  07:42:00      -16.052      -27.260       17.228       35.780       38.329       25.919     1280.200     1469.123      671.785        0.236        0.171       31.636       22.909        0.524      343.152       19.064      863.361
08/18/2013  07:43:00      -69.037      -52.153        1.081       50.961       37.689       20.670     2597.040     1420.496      427.265        0.597        0.222       86.522       20.249        0.055      342.895       18.625      863.376
08/18/2013  07:44:00      -42.622      -44.518        8.324       37.076       41.659       31.208     1374.616     1735.478      973.924        0.398        0.204       61.632       24.121        0.153      343.000       18.804      863.391
08/18/2013  07:45:00      -49.709      -97.676        9.148       37.010       32.884       26.552     1369.735     1081.341      705.003        0.763        0.158      109.597       26.698        0.059      342.951       18.719      863.401
08/18/2013  07:46:00      -49.942     -150.804        1.634       17.999       30.650       14.319      323.950      939.424      205.024        1.335        0.073      158.859        8.867        0.003      342.942       18.705      863.408
08/18/2013  07:47:00      -56.757     -103.787        1.173       35.866       49.779       19.041     1286.381     2477.951      362.549        0.906        0.206      118.293       13.307        0.013      343.007       18.814      863.421
08/18/2013  07:48:00      -39.909      -41.420        6.152       33.699       51.898       24.471     1135.643     2693.407      598.815        0.389        0.221       57.518       21.434        0.139      343.140       19.043      863.424
08/18/2013  07:49:00      -71.100     -103.589       -2.089       37.421       40.563       25.182     1400.324     1645.333      634.157        0.973        0.184      125.642       18.545        0.022      343.016       18.830      863.433
08/18/2013  07:50:00      -88.606     -130.028        0.350       22.042       21.589       15.810      485.846      466.102      249.971        1.298        0.060      157.347       11.804        0.006      342.991       18.788      863.444
08/18/2013  07:51:00     -117.452      -30.083       -8.740       39.780       25.799       20.065     1582.410      665.585      402.586        0.871        0.133      121.243       16.738        0.019      343.069       18.920      863.457
08/18/2013  07:52:00      -78.348      -72.904       -2.439       36.982       37.124       20.049     1367.643     1378.191      401.962        0.730        0.157      107.021       18.426        0.030      343.098       18.971      863.471
08/18/2013  07:53:00      -61.436      -84.136        1.665       39.262       23.813       20.648     1541.522      567.051      426.330        0.670        0.127      104.180       21.002        0.041      343.083       18.944      863.481
08/18/2013  07:54:00      -67.157      -22.883       -1.578       24.799       28.851       19.358      614.970      832.373      374.751        0.343        0.091       70.949       15.623        0.048      343.152       19.062      863.498
08/18/2013  07:55:00      -38.901      -24.367        3.769       26.317       21.504       16.177      692.604      462.426      261.699        0.177        0.071       45.903       13.322        0.084      343.387       19.464      863.516
08/18/2013  07:56:00      -63.039      -39.882        7.765       35.861       29.011       19.453     1286.036      841.657      378.420        0.407        0.125       74.596       21.740        0.085      343.301       19.316      863.510
08/18/2013  07:57:00      -92.209      -61.115       -0.225       31.709       41.888       18.041     1005.485     1754.645      325.487        0.766        0.154      110.624       12.539        0.013      343.236       19.205      863.509
08/18/2013  07:58:00      -86.285      -73.112        1.145       41.542       37.630       28.777     1725.752     1416.014      828.132        0.838        0.198      113.095       20.947        0.034      343.256       19.240      863.518
08/18/2013  07:59:00      -46.177      -72.516        3.024       35.856       37.298       18.435     1285.667     1391.121      339.849        0.521        0.151       85.970       21.256        0.061      343.318       19.344      863.521
08/18/2013  08:00:00      -60.779      -35.365       -0.897       28.733       28.313       18.400      825.601      801.598      338.569        0.346        0.098       70.319       16.955        0.058      343.330       19.365      863.520
08/18/2013  08:01:00      -36.804      -28.475        1.348       33.431       22.492       18.383     1117.651      505.886      337.927        0.206        0.098       46.533       13.413        0.083      343.407       19.496      863.524
08/18/2013  08:02:00      -54.501      -31.239       -3.262       45.014       33.169       20.464     2026.271     1100.206      418.780        0.375        0.177       62.819       21.433        0.116      343.407       19.495      863.531
08/18/2013  08:03:00      -67.390      -64.157       -1.266       25.227       30.426       17.182      636.422      925.737      295.219        0.526        0.093       93.046       12.883        0.019      343.345       19.393      863.533
08/18/2013  08:04:00      -76.172      -62.260       -0.069       23.723       27.471       14.422      562.802      754.681      207.989        0.560        0.076       98.379       10.997        0.012      343.375       19.443      863.540
08/18/2013  08:05:00      -67.068      -45.703        1.426       20.060       27.303       18.276      402.423      745.448      333.999        0.404        0.074       81.159       17.977        0.049      343.480       19.623      863.554
08/18/2013  08:06:00      -50.999      -86.646       -7.838       25.797       33.601       18.506      665.484     1129.008      342.480        0.615        0.107      100.541       14.877        0.022      343.439       19.552      863.568
08/18/2013  08:07:00      -39.434     -135.997        3.795       16.219       22.487       15.276      263.062      505.684      233.355        1.053        0.050      141.599        7.557        0.003      343.464       19.591      863.570
08/18/2013  08:08:00      -34.112     -109.293        3.383       17.612       23.436       14.534      310.189      549.243      211.247        0.710        0.054      114.493       11.833        0.011      343.539       19.722      863.574
08/18/2013  08:09:00      -38.573      -37.350        8.452       29.639       54.820       25.996      878.449     3005.200      675.790        0.376        0.228       53.693       26.513        0.244      343.809       20.183      863.577
08/18/2013  08:10:00      -39.661      -17.268       -7.713       36.477       26.383       24.583     1330.536      696.058      604.331        0.228        0.132       43.257       18.817        0.189      343.772       20.120      863.571
08/18/2013  08:11:00      -36.199       15.715        7.735       23.666       20.943       29.143      560.063      438.622      849.305        0.173        0.092       39.463       17.554        0.198      344.143       20.753      863.582
08/18/2013  08:12:00      -27.205       -9.250       -2.727       24.241       28.072       21.289      587.630      788.016      453.219        0.133        0.091       28.734       13.401        0.218      343.803       20.172      863.590
08/18/2013  08:13:00      -38.831        2.426       -4.825       25.465       18.225       13.675      648.474      332.148      187.001        0.135        0.058       38.906        8.439        0.047      343.791       20.152      863.607
08/18/2013  08:14:00      -52.881        1.709       -2.916       36.111       21.571       16.391     1303.991      465.305      268.678        0.242        0.102       52.908       13.179        0.062      343.797       20.161      863.620
08/18/2013  08:15:00      -67.118      -21.580        4.900       46.449       36.935       28.820     2157.465     1364.183      830.607        0.467        0.218       70.502       30.063        0.182      344.026       20.552      863.622
08/18/2013  08:16:00      -37.180      -15.764        6.096       30.559       33.792       20.023      933.838     1141.870      400.936        0.207        0.124       40.384       10.661        0.070      343.985       20.484      863.630
08/18/2013  08:17:00      -61.802      -21.873       -6.716       30.522       34.213       22.615      931.564     1170.541      511.426        0.348        0.131       65.558       17.920        0.075      343.872       20.289      863.642
08/18/2013  08:18:00      -54.906      -21.536       -6.750       34.548       31.486       23.789     1193.560      991.337      565.936        0.314        0.138       58.979       13.525        0.053      343.936       20.399      863.647
08/18/2013  08:19:00      -45.793      -23.417        2.678       22.774       23.916       15.270      518.669      571.980      233.168        0.199        0.066       51.433        6.687        0.017      343.916       20.363      863.650
08/18/2013  08:20:00      -44.948      -18.322        3.343       42.496       32.570       22.212     1805.922     1060.835      493.356        0.286        0.168       48.538       22.629        0.217      344.080       20.645      863.651
08/18/2013  08:21:00      -90.563      -45.199        0.613       42.981       31.118       23.071     1847.366      968.310      532.281        0.680        0.167      101.215       24.513        0.059      343.940       20.406      863.664
08/18/2013  08:22:00      -56.879      -37.959        4.896       47.632       41.440       24.942     2268.801     1717.245      622.086        0.465        0.230       68.382       11.363        0.028      343.946       20.416      863.682
08/18/2013  08:23:00      -35.153      -33.019        7.578       27.252       31.772       19.998      742.681     1009.479      399.916        0.227        0.108       48.228       15.917        0.109      344.176       20.810      863.695
08/18/2013  08:24:00       -9.916      -37.753        0.959       27.653       34.424       18.154      764.696     1185.003      329.567        0.190        0.114       39.034       17.032        0.190      344.123       20.719      863.710
08/18/2013  08:25:00      -20.538       -7.751        6.087       25.827       17.052       23.539      667.054      290.759      554.078        0.102        0.076       21.952       15.783        0.517      344.590       21.518      863.718
08/18/2013  08:26:00      -37.762        1.711       -5.659       24.144       23.779       26.653      582.923      565.437      710.392        0.166        0.093       37.800       22.094        0.342      344.323       21.059      863.733
08/18/2013  08:27:00      -57.634        8.453       -3.871       31.492       18.302       20.391      991.777      334.969      415.787        0.258        0.087       58.251       14.584        0.063      344.163       20.787      863.737
08/18/2013  08:28:00      -26.221       -9.464       -1.758       20.036       20.894       22.327      401.436      436.571      498.489        0.106        0.067       27.876       16.568        0.353      344.396       21.185      863.734
08/18/2013  08:29:00      -43.960       22.272       -6.525       27.473       30.946       26.237      754.753      957.660      688.380        0.244        0.120       49.280        9.547        0.038      344.281       20.990      863.739
08/18/2013  08:30:00      -26.293      -34.303        1.405       26.554       22.720       14.433      705.117      516.209      208.322        0.165        0.071       43.221       10.139        0.055      344.270       20.969      863.740
08/18/2013  08:31:00      -34.007      -26.553        8.320       25.255       30.234       15.240      637.821      914.110      232.273        0.186        0.089       43.146       12.599        0.085      344.304       21.028      863.746
08/18/2013  08:32:00      -28.852      -22.785       -8.841       27.984       26.128       20.571      783.112      682.673      423.146        0.166        0.094       36.764        5.182        0.020      344.296       21.014      863.762
08/18/2013  08:33:00      -22.353      -28.293       -4.523       28.810       31.839       17.979      830.012     1013.698      323.242        0.174        0.108       36.058       15.982        0.196      344.482       21.333      863.775
08/18/2013  08:34:00      -46.190       10.526       -5.766       16.563       20.305       15.436      274.341      412.311      238.265        0.160        0.046       47.374       12.918        0.074      344.286       20.997      863.785
08/18/2013  08:35:00      -32.583        1.405       -3.700       14.625       20.626       12.248      213.886      425.442      150.017        0.093        0.039       32.613       10.335        0.100      344.415       21.217      863.797
08/18/2013  08:36:00      -31.063      -16.755       -8.587       22.834       25.888       12.657      521.406      670.167      160.208        0.134        0.068       35.293        8.484        0.058      344.417       21.221      863.806
08/18/2013  08:37:00      -29.585       -1.867        4.627       30.300       23.768       28.122      918.099      564.908      790.864        0.159        0.114       29.644       24.004        0.656      344.812       21.896      863.818
08/18/2013  08:38:00       -9.984      -10.337       25.043       20.999       27.364       20.450      440.967      748.811      418.189        0.122        0.080       14.371       15.381        1.146      344.900       22.047      863.824
08/18/2013  08:39:00        8.055       19.920       32.658       18.562       23.100       16.587      344.551      533.628      275.115        0.134        0.058       21.487        6.838        0.101      345.037       22.283      863.838
08/18/2013  08:40:00       26.870       50.368       28.438       26.579       30.020       25.295      706.453      901.222      639.852        0.316        0.112       57.087       22.106        0.150      344.649       21.618      863.845
08/18/2013  08:41:00       23.925       17.019       -6.454       38.380       32.360       21.676     1473.053     1047.152      469.844        0.195        0.150       29.360       16.338        0.310      344.670       21.655      863.848
08/18/2013  08:42:00       17.407        7.099      -14.055       17.753       29.447       18.772      315.182      867.142      352.402        0.104        0.077       18.799        8.770        0.218      344.440       21.260      863.851
08/18/2013  08:43:00      -18.582        9.619       16.396       20.584       22.715       15.349      423.716      515.986      235.578        0.094        0.059       20.924        6.677        0.102      344.623       21.574      863.841
08/18/2013  08:44:00        6.182        1.619       35.034       19.034       12.891       12.696      362.292      166.171      161.177        0.098        0.034        6.391        9.999        2.448      345.281       22.699      863.840
08/18/2013  08:45:00       10.004       10.060        2.262       17.810       17.780       25.065      317.214      316.121      628.261        0.073        0.063       14.187       14.158        0.996      344.713       21.728      863.843
08/18/2013  08:46:00       30.241       -1.103       38.874       30.963       32.158       23.809      958.735     1034.138      566.881        0.249        0.128       30.261       10.225        0.114      344.887       22.025      863.846
08/18/2013  08:47:00        3.200        9.144       22.758       23.474       26.309       26.584      551.040      692.173      706.694        0.128        0.097        9.687       12.736        1.728      344.969       22.166      863.860
08/18/2013  08:48:00      -38.411      -18.491      -13.194       20.860       23.033       22.500      435.123      530.526      506.260        0.173        0.074       42.631       15.391        0.130      344.594       21.523      863.870
08/18/2013  08:49:00      -36.748      -12.269       -1.626        8.728       13.862        9.361       76.174      192.152       87.626        0.093        0.018       38.742        9.645        0.062      344.788       21.855      863.881
08/18/2013  08:50:00      -21.548       -2.907       16.482       23.398       19.938       15.913      547.477      397.538      253.222        0.097        0.060       21.744       13.021        0.359      345.324       22.774      863.887
08/18/2013  08:51:00      -15.591       -8.638       19.644       14.821       16.742       13.582      219.653      280.289      184.480        0.069        0.034       17.824        8.041        0.204      345.285       22.707      863.889
08/18/2013  08:52:00        4.069       -7.539       11.556       28.290        9.106       19.691      800.304       82.928      387.727        0.074        0.064        8.567       17.416        4.133      345.141       22.460      863.882
08/18/2013  08:53:00       -2.754       12.518       25.045       11.466       15.436       10.334      131.473      238.256      106.800        0.063        0.024       12.817        8.404        0.430      345.746       23.497      863.879
08/18/2013  08:54:00      -21.054       26.211       23.500       16.400       16.318       13.618      268.947      266.292      185.444        0.120        0.036       33.620        4.477        0.018      345.395       22.896      863.868
08/18/2013  08:55:00      -19.532       -0.708       -0.927       19.783       27.332       15.759      391.361      747.056      248.339        0.088        0.069       19.545        9.374        0.230      345.267       22.675      863.852
08/18/2013  08:56:00      -30.532       -4.475        1.737       18.407        9.617       12.374      338.811       92.483      153.110        0.077        0.029       30.858       11.564        0.140      345.332       22.788      863.845
08/18/2013  08:57:00      -41.125       -4.816        4.406       18.300       20.855       11.050      334.884      434.929      122.093        0.131        0.045       41.406        8.350        0.041      345.177       22.522      863.834
08/18/2013  08:58:00      -37.295        6.756        5.817       31.192       15.024       16.395      972.966      225.718      268.804        0.147        0.073       37.903       17.404        0.211      345.419       22.937      863.832
08/18/2013  08:59:00      -15.633       -2.444       11.567       18.480       12.410       16.760      341.519      154.007      280.887        0.058        0.039       15.823       15.800        0.997      345.723       23.458      863.829
08/18/2013  09:00:00      -29.556      -14.677       -3.430       20.042       16.853       13.060      401.677      284.016      170.557        0.098        0.043       33.000        9.767        0.088      345.200       22.561      863.832
08/18/2013  09:01:00      -11.330      -23.825       -5.725       26.216       25.030       16.519      687.298      626.500      272.865        0.116        0.079       26.382       11.129        0.178      345.357       22.830      863.835
08/18/2013  09:02:00      -20.332      -17.262        4.550       40.442       20.700       19.856     1635.561      428.486      394.264        0.159        0.123       26.672       21.978        0.679      345.835       23.651      863.831
08/18/2013  09:03:00      -48.570      -29.979        1.045       41.855       35.502       23.048     1751.878     1260.362      531.217        0.340        0.177       57.078       15.395        0.073      345.398       22.900      863.828
08/18/2013  09:04:00      -44.127      -16.177       -2.967       39.865       27.631       18.751     1589.244      763.477      351.600        0.246        0.135       46.998        6.294        0.018      345.348       22.814      863.831
08/18/2013  09:05:00      -33.138       -2.788        3.034       54.574       30.823       24.138     2978.323      950.036      582.657        0.281        0.226       33.255       15.593        0.220      345.574       23.202      863.829
08/18/2013  09:06:00      -34.200      -35.798        9.097       39.252       23.167       26.234     1540.714      536.693      688.222        0.265        0.138       49.509       18.162        0.135      345.498       23.071      863.827
08/18/2013  09:07:00      -51.086        2.077       10.224       32.946       29.517       18.811     1085.418      871.241      353.836        0.251        0.116       51.128       19.371        0.144      345.659       23.347      863.827
08/18/2013  09:08:00      -36.298      -15.170       11.231       26.341       21.903       23.170      693.869      479.738      536.872        0.169        0.086       39.341       12.176        0.096      345.877       23.723      863.827
08/18/2013  09:09:00      -31.878      -18.388        8.143       16.972       25.497       16.937      288.042      650.074      286.859        0.132        0.061       36.801       13.228        0.129      345.655       23.340      863.840
08/18/2013  09:10:00      -22.299      -31.881       -2.332       32.127       36.742       18.367     1032.134     1349.980      337.335        0.212        0.136       38.906       21.572        0.307      345.631       23.300      863.850
08/18/2013  09:11:00      -47.713     -113.658       -1.903       32.238       33.223       24.280     1039.284     1103.797      589.504        0.896        0.137      123.267       17.580        0.020      345.368       22.849      863.859
08/18/2013  09:12:00      -49.927      -53.724        1.802       50.105       40.609       23.078     2510.465     1649.095      532.571        0.504        0.235       73.342       15.408        0.044      345.526       23.119      863.873
08/18/2013  09:13:00      -73.202      -36.103       -5.412       27.390       32.996       28.361      750.201     1088.752      804.329        0.467        0.132       81.621       22.966        0.079      345.499       23.073      863.875
08/18/2013  09:14:00      -39.811       -7.686        4.202       27.957       27.947       13.949      781.608      781.048      194.569        0.171        0.088       40.546        7.481        0.034      345.595       23.239      863.875
08/18/2013  09:15:00      -77.024      -81.877       -1.487       31.031       30.492       18.420      962.948      929.736      339.288        0.744        0.112      112.413       11.564        0.011      345.441       22.974      863.878
08/18/2013  09:16:00      -60.190      -40.018       -5.181       30.208       34.554       18.365      912.509     1193.976      337.286        0.385        0.122       72.279       12.491        0.030      345.590       23.228      863.882
08/18/2013  09:17:00      -18.438      -28.616       18.915       49.932       45.716       17.480     2493.214     2089.941      305.560        0.320        0.244       34.041       17.690        0.270      345.816       23.617      863.888
08/18/2013  09:18:00        7.890      -11.476       34.813       27.996       38.560       22.716      783.752     1486.857      516.031        0.210        0.139       13.926       24.886        3.193      346.141       24.177      863.887
08/18/2013  09:19:00      -40.909      -31.818        8.458       46.555       32.972       19.833     2167.327     1087.133      393.339        0.320        0.182       51.826       20.364        0.154      345.882       23.731      863.887
08/18/2013  09:20:00      -60.365      -24.718        1.638       58.592       43.863       30.736     3433.055     1923.972      944.717        0.528        0.315       65.229       26.950        0.171      345.972       23.885      863.877
08/18/2013  09:21:00      -43.463      -39.322        3.643       47.659       39.968       26.271     2271.386     1597.409      690.151        0.400        0.228       58.611       23.009        0.154      345.798       23.586      863.855
08/18/2013  09:22:00      -21.483      -26.778       -6.023       19.249       25.975       23.312      370.518      674.687      543.439        0.140        0.079       34.331       10.133        0.087      345.789       23.569      863.841
08/18/2013  09:23:00      -32.585      -13.373        6.058       17.151       37.703       28.398      294.161     1421.494      806.454        0.190        0.126       35.223       27.922        0.628      345.937       23.825      863.828
08/18/2013  09:24:00      -26.950       26.926       49.937       17.993       23.441       23.721      323.765      549.473      562.673        0.269        0.072       38.096       13.097        0.118      346.578       24.928      863.813
08/18/2013  09:25:00       23.758       13.695       60.787       26.815       37.541       18.520      719.023     1409.360      342.983        0.346        0.124       27.423       14.898        0.295      346.439       24.688      863.811
08/18/2013  09:26:00       57.081       83.219       52.316       38.889       30.507       34.660     1512.317      930.675     1201.312        0.828        0.182      100.914       30.350        0.090      345.698       23.416      863.801
08/18/2013  09:27:00       -2.570        9.870       31.604       26.728       29.319       21.732      714.369      859.604      472.274        0.157        0.102       10.200        9.369        0.844      346.447       24.701      863.810
08/18/2013  09:28:00      -61.693      -41.399       -9.915       33.113       29.887       21.558     1096.484      893.256      464.749        0.404        0.123       74.296       13.448        0.033      345.903       23.767      863.815
08/18/2013  09:29:00      -16.520       -4.116        1.893       28.666       33.644       22.067      821.752     1131.928      486.949        0.137        0.122       17.025       23.131        1.846      345.947       23.842      863.815
08/18/2013  09:30:00      -21.203      -14.118       18.530       20.953       14.376       14.968      439.018      206.670      224.045        0.093        0.043       25.473       12.091        0.225      346.420       24.656      863.808
08/18/2013  09:31:00      -34.057      -13.627       -1.031       33.761       20.977       13.736     1139.773      440.042      188.687        0.156        0.088       36.682       12.225        0.111      346.107       24.117      863.807
08/18/2013  09:32:00      -40.751      -32.608        4.250       50.341       35.620       25.231     2534.209     1268.805      636.608        0.359        0.222       52.191       23.657        0.205      346.347       24.530      863.802
08/18/2013  09:33:00       -4.428       25.902       16.071       25.954       24.288       25.126      673.595      589.915      631.303        0.142        0.095       26.278       16.471        0.393      346.615       24.990      863.807
08/18/2013  09:34:00      -29.155       -7.347       23.652       16.692       25.255       13.061      278.634      637.835      170.601        0.128        0.054       30.066        7.137        0.056      346.494       24.783      863.807
08/18/2013  09:35:00       18.513       34.171       64.920       49.210       41.535       38.623     2421.655     1725.124     1491.742        0.568        0.282       38.864       37.035        0.908      346.618       24.995      863.825
08/18/2013  09:36:00       56.663       36.501       57.249       40.887       37.618       32.412     1671.771     1415.098     1050.508        0.598        0.207       67.402       30.745        0.208      346.174       24.232      863.838
08/18/2013  09:37:00       16.319      -88.736       -7.683       44.480       64.536       41.253     1978.507     4164.884     1701.790        0.802        0.392       90.224       34.861        0.149      346.304       24.455      863.846
08/18/2013  09:38:00       46.624     -123.337      -25.146       23.136       29.467       26.671      535.271      868.304      711.347        1.007        0.106      131.855       11.209        0.007      346.052       24.022      863.867
08/18/2013  09:39:00       16.301      -20.723       19.678       32.688       63.606       48.393     1068.512     4045.667     2341.917        0.427        0.373       26.366       51.357        3.794      346.637       25.028      863.878
08/18/2013  09:40:00       12.061       20.336       38.205       41.598       48.314       42.241     1730.355     2334.230     1784.339        0.393        0.292       23.643       35.830        2.297      346.327       24.493      863.876
08/18/2013  09:41:00      -28.236       -4.992       20.675       43.693       34.257       27.545     1909.086     1173.566      758.742        0.254        0.192       28.674       24.438        0.726      346.571       24.916      863.878
08/18/2013  09:42:00       -0.931      -70.946        0.189       30.519       39.832       26.899      931.395     1586.571      723.572        0.414        0.162       70.952       18.404        0.067      346.438       24.685      863.876
08/18/2013  09:43:00       -7.898       -0.889       28.761       18.924       29.941       22.692      358.115      896.436      514.938        0.133        0.088        7.947       15.391        3.750      347.170       25.946      863.890
08/18/2013  09:44:00       21.979      -16.829       12.714       62.089       40.439       32.681     3854.997     1635.279     1068.042        0.374        0.328       27.682       28.858        1.087      346.639       25.031      863.889
08/18/2013  09:45:00       54.389       76.970       96.952       61.007       72.118       47.066     3721.835     5201.020     2215.243        1.471        0.557       94.247       45.919        0.237      346.655       25.058      863.870
08/18/2013  09:46:00       56.366      -82.224       11.664       45.755       80.041       54.865     2093.521     6406.574     3010.161        1.079        0.576       99.689       60.085        0.363      346.676       25.094      863.871
08/18/2013  09:47:00        2.049      -58.748        9.426       55.195       72.120       33.671     3046.518     5201.250     1133.748        0.646        0.469       58.783       38.795        0.436      346.608       24.979      863.863
08/18/2013  09:48:00       13.521       14.043       66.886       42.041       59.812       34.243     1767.456     3577.478     1172.580        0.568        0.326       19.494       33.318        2.921      346.938       25.547      863.864
08/18/2013  09:49:00        8.459       18.065       49.925       30.770       45.200       30.070      946.810     2043.033      904.206        0.339        0.195       19.947       22.087        1.226      346.920       25.514      863.863
08/18/2013  09:50:00       28.032        8.605       56.735       41.269       65.912       44.824     1703.135     4344.345     2009.170        0.607        0.403       29.323       44.573        2.311      346.874       25.437      863.866
08/18/2013  09:51:00       11.290       64.626       73.051       45.583       45.137       32.621     2077.815     2037.323     1064.139        0.741        0.259       65.605       34.719        0.280      346.434       24.680      863.876
08/18/2013  09:52:00       26.018        6.791       42.693       34.003       59.651       38.816     1156.209     3558.270     1506.663        0.438        0.311       26.890       42.969        2.554      346.473       24.746      863.886
08/18/2013  09:53:00       -8.863       -7.056       10.323       29.686       35.788       26.082      881.269     1280.786      680.254        0.154        0.142       11.329       18.475        2.659      346.701       25.138      863.893
08/18/2013  09:54:00       31.647      -18.065       24.348       44.243       65.319       47.489     1957.407     4266.619     2255.186        0.520        0.424       36.440       47.779        1.719      347.243       26.071      863.896
08/18/2013  09:55:00       19.665       24.387       56.383       33.859       34.850       26.151     1146.415     1214.490      683.861        0.360        0.152       31.328       12.162        0.151      347.285       26.144      863.918
08/18/2013  09:56:00       25.262       -9.452       43.620       39.362       63.090       27.305     1549.349     3980.363      745.588        0.445        0.314       26.972       32.495        1.451      347.057       25.751      863.924
08/18/2013  09:57:00       27.438       34.880       56.083       49.941       50.172       26.652     2494.142     2517.273      710.332        0.542        0.286       44.379       24.303        0.300      346.929       25.530      863.925
08/18/2013  09:58:00       58.984       56.117       50.709       48.449       33.108       34.214     2347.329     1096.138     1170.620        0.691        0.231       81.414       28.381        0.122      346.949       25.564      863.924
08/18/2013  09:59:00       94.788       71.620        7.706       58.923       41.464       36.728     3471.870     1719.281     1348.923        1.036        0.327      118.803       16.477        0.019      346.647       25.046      863.915
08/18/2013  10:00:00       11.876        6.756       18.574       44.048       44.113       35.076     1940.262     1945.975     1230.321        0.282        0.256       13.663       16.538        1.465      347.117       25.856      863.922
08/18/2013  10:01:00       11.116       19.786       40.710       37.649       37.636       30.632     1417.453     1416.455      938.299        0.297        0.189       22.695       10.561        0.217      347.218       26.028      863.925
08/18/2013  10:02:00        2.944        5.828       18.074       23.475       27.740       28.744      551.066      769.489      826.212        0.126        0.107        6.529       16.387        6.299      347.518       26.545      863.924
08/18/2013  10:03:00        6.293        2.569       22.325       40.242       51.793       44.531     1619.449     2682.536     1983.032        0.341        0.314        6.797       39.386       33.577      347.457       26.440      863.923
08/18/2013  10:04:00        1.915      133.563      141.668       50.922       68.520       46.763     2593.064     4695.048     2186.813        2.369        0.474      133.577       44.853        0.113      346.901       25.481      863.909
08/18/2013  10:05:00       85.279      -78.986        1.630       58.831       88.130       64.138     3461.093     7766.846     4113.681        1.443        0.767      116.238       73.605        0.401      346.769       25.254      863.912
08/18/2013  10:06:00       11.842        5.004       39.975       45.188       48.656       35.164     2041.932     2367.361     1236.479        0.370        0.282       12.856       41.213       10.276      347.449       26.426      863.896
08/18/2013  10:07:00       11.873      -51.935       16.188       24.942       48.295       32.770      622.121     2332.437     1073.855        0.356        0.201       53.275       35.018        0.432      347.042       25.724      863.890
08/18/2013  10:08:00        4.053      -85.520       -5.666       40.418       46.151       25.832     1633.654     2129.875      667.293        0.590        0.222       85.616       16.235        0.036      346.828       25.356      863.869
08/18/2013  10:09:00        3.776      -58.588       29.641       45.202       62.572       43.012     2043.218     3915.242     1849.995        0.607        0.390       58.710       16.598        0.080      347.281       26.135      863.857
08/18/2013  10:10:00        7.217      -94.761       -6.228       42.939       63.720       41.533     1843.753     4060.269     1725.018        0.835        0.381       95.035       39.487        0.173      347.097       25.819      863.845
08/18/2013  10:11:00       -5.263      -10.433       43.597       16.904       24.806       25.078      285.747      615.324      628.921        0.178        0.076       11.685       19.716        2.847      347.562       26.621      863.844
08/18/2013  10:12:00      -18.673       -9.674        5.367       16.775       31.701       29.296      281.397     1004.974      858.277        0.131        0.107       21.031       21.880        1.082      347.329       26.221      863.841
08/18/2013  10:13:00       52.462       46.020       59.265       52.043       59.035       32.226     2708.471     3485.160     1038.488        0.781        0.362       69.787       34.716        0.247      347.160       25.930      863.853
08/18/2013  10:14:00       37.895       62.993       66.515       42.357       54.433       35.056     1794.139     2962.957     1228.932        0.791        0.299       73.513       35.693        0.236      347.219       26.031      863.857
08/18/2013  10:15:00       99.148       73.860       34.679       57.733       37.791       33.646     3333.079     1428.132     1132.033        1.119        0.295      123.635       23.625        0.037      346.992       25.639      863.852
08/18/2013  10:16:00      109.094       83.300       42.013       68.083       43.484       45.022     4635.275     1890.867     2027.001        1.458        0.428      137.260       37.796        0.076      347.062       25.759      863.848
08/18/2013  10:17:00       55.767       64.406       33.232       63.652       40.981       36.864     4051.571     1679.444     1358.989        0.773        0.355       85.194       34.296        0.162      347.445       26.420      863.832
08/18/2013  10:18:00       14.152       74.028        0.348       41.110       55.665       36.452     1690.015     3098.543     1328.736        0.590        0.306       75.369       34.585        0.211      347.474       26.469      863.827
08/18/2013  10:19:00        7.799       17.326       13.886       25.970       24.784       24.700      674.450      614.263      610.094        0.123        0.095       19.000       18.610        0.959      348.085       27.524      863.811
08/18/2013  10:20:00       37.992       36.532       18.663       29.113       23.129       23.620      847.586      534.969      557.903        0.253        0.097       52.707       16.932        0.103      347.534       26.575      863.803
08/18/2013  10:21:00        5.515       40.231       50.926       23.494       27.059       16.767      551.985      732.200      281.134        0.290        0.078       40.607       13.201        0.106      347.522       26.552      863.789
08/18/2013  10:22:00        0.431       27.983       17.926       18.508       19.746       23.558      342.535      389.920      554.959        0.120        0.064       27.986        9.919        0.126      347.315       26.196      863.780
08/18/2013  10:23:00       36.011       35.616        3.650       21.036       22.292       23.279      442.508      496.944      541.920        0.203        0.074       50.649       11.826        0.055      347.343       26.244      863.767
08/18/2013  10:24:00       41.906       22.960       37.013       35.098       32.683       33.019     1231.887     1068.165     1090.236        0.352        0.170       47.783       30.262        0.401      347.310       26.188      863.770
08/18/2013  10:25:00       51.799       62.119       27.444       34.773       36.002       29.024     1209.148     1296.149      842.365        0.532        0.167       80.882       16.922        0.044      346.919       25.512      863.757
08/18/2013  10:26:00       19.364       10.299       44.250       41.073       36.439       26.734     1687.027     1327.813      714.710        0.308        0.186       21.932        6.590        0.090      347.437       26.406      863.763
08/18/2013  10:27:00       13.186       -6.494       46.799       46.138       74.120       37.570     2128.711     5493.813     1411.477        0.572        0.452       14.699       36.535        6.178      347.431       26.396      863.758
08/18/2013  10:28:00        4.207      -33.386       45.975       24.905       48.675       33.707      620.263     2369.223     1136.171        0.369        0.206       33.650       18.576        0.305      347.946       27.283      863.761
08/18/2013  10:29:00       -0.920       24.031       44.262       21.821       34.222       23.858      476.173     1171.140      569.188        0.238        0.111       24.048       20.308        0.713      347.742       26.932      863.768
08/18/2013  10:30:00       13.840       16.176       39.772       20.171       20.589       19.535      406.879      423.905      381.597        0.162        0.061       21.289       10.374        0.237      347.930       27.257      863.763
08/18/2013  10:31:00       44.177       51.971       48.463       47.010       40.865       32.605     2209.898     1669.948     1063.110        0.597        0.247       68.210       28.680        0.177      347.607       26.699      863.762
08/18/2013  10:32:00      142.798       87.505       19.664       53.995       49.942       39.013     2915.468     2494.219     1522.004        1.768        0.347      167.476       16.458        0.010      347.460       26.444      863.758
08/18/2013  10:33:00       -9.951       43.930       21.218       24.354       39.533       29.857      593.103     1562.830      891.438        0.276        0.152       45.043       29.448        0.427      348.109       27.567      863.758
08/18/2013  10:34:00       31.629       15.034       20.654       36.571       23.096       21.750     1337.457      533.437      473.069        0.200        0.117       35.020       20.244        0.334      347.970       27.325      863.750
08/18/2013  10:35:00       -1.538      -30.352       10.950       31.679       43.903       33.063     1003.588     1927.504     1093.191        0.253        0.201       30.391       11.945        0.154      347.711       26.878      863.737
08/18/2013  10:36:00       38.761       68.389       64.417       56.135       58.822       44.023     3151.092     3460.076     1938.048        0.944        0.427       78.610       36.145        0.211      347.672       26.811      863.721
08/18/2013  10:37:00       20.060       61.295       74.671       43.664       49.469       34.978     1906.542     2447.184     1223.479        0.766        0.279       64.494       29.618        0.211      347.511       26.534      863.713
08/18/2013  10:38:00       41.530      -42.275       20.449       44.955       41.627       44.105     2020.913     1732.842     1945.277        0.481        0.285       59.261       29.390        0.246      347.146       25.905      863.694
08/18/2013  10:39:00       61.406       -8.994       44.598       69.592       47.080       34.048     4843.055     2216.544     1159.291        0.703        0.411       62.061       33.661        0.294      347.565       26.627      863.676
08/18/2013  10:40:00        7.014      -10.468       42.552       22.864       34.191       18.243      522.768     1169.006      332.818        0.200        0.101       12.601        8.265        0.430      348.157       27.648      863.656
08/18/2013  10:41:00      -11.283       62.921       10.449       23.507       57.002       30.527      552.565     3249.240      931.919        0.446        0.237       63.924       35.016        0.300      348.025       27.420      863.657
08/18/2013  10:42:00      -28.108       86.065        6.638       24.891       36.836       30.467      619.576     1356.906      928.232        0.557        0.145       90.539       22.648        0.063      347.984       27.350      863.644
08/18/2013  10:43:00      -17.875       36.742       22.233       19.108       33.627       21.441      365.112     1130.745      459.701        0.206        0.098       40.860       14.255        0.122      348.627       28.461      863.636
08/18/2013  10:44:00       -9.338       28.646       22.765       27.622       36.768       21.403      762.992     1351.890      458.095        0.200        0.129       30.130       17.812        0.349      348.132       27.606      863.629
08/18/2013  10:45:00       -2.757       17.307       17.420       21.325       30.369       22.552      454.752      922.290      508.579        0.125        0.094       17.525       19.171        1.197      348.368       28.013      863.613
08/18/2013  10:46:00      -12.569       83.116        8.368       26.947       63.250       29.335      726.162     4000.622      860.514        0.636        0.279       84.061       32.374        0.148      348.215       27.750      863.600
08/18/2013  10:47:00      -26.221       83.362        4.839       26.709       43.889       28.142      713.374     1926.247      791.964        0.555        0.172       87.389       24.405        0.078      348.225       27.766      863.591
08/18/2013  10:48:00       -8.894       43.405       -1.063       26.291       33.717       23.198      691.224     1136.814      538.159        0.216        0.118       44.307       13.163        0.088      348.223       27.764      863.588
08/18/2013  10:49:00      -10.968       17.573       15.037       18.076       21.876       22.450      326.757      478.580      504.006        0.098        0.065       20.715       11.191        0.292      348.612       28.436      863.579
08/18/2013  10:50:00      -26.255      -17.052        8.674       27.064       22.306       17.250      732.464      497.541      297.575        0.129        0.076       31.307       17.583        0.315      347.761       26.963      863.586
08/18/2013  10:51:00       -4.661      -30.937        9.962       27.119       29.537       32.364      735.434      872.456     1047.398        0.187        0.133       31.286       26.102        0.696      347.941       27.277      863.589
08/18/2013  10:52:00        5.327        5.382       38.489       29.995       32.788       25.376      899.711     1075.086      643.921        0.208        0.131        7.573       18.091        5.708      348.195       27.715      863.598
08/18/2013  10:53:00       55.189      -96.975        2.492       68.232       68.344       48.956     4655.559     4670.947     2396.647        1.209        0.586      111.580       43.192        0.150      347.944       27.279      863.592
08/18/2013  10:54:00       54.561       -4.789       10.455       42.096       56.188       38.634     1772.068     3157.050     1492.622        0.476        0.321       54.770       29.301        0.286      347.610       26.706      863.599
08/18/2013  10:55:00       80.137       77.055       85.199       78.848       72.386       55.194     6217.081     5239.801     3046.370        1.706        0.725      111.173       45.179        0.165      347.746       26.939      863.602
08/18/2013  10:56:00       91.651      -36.169       47.483       79.009       95.728       47.825     6242.427     9163.860     2287.184        1.483        0.885       98.529       43.488        0.195      347.573       26.639      863.578
08/18/2013  10:57:00      176.536      109.599       36.918       89.922       68.522       53.600     8086.028     4695.306     2872.981        3.009        0.783      207.790       28.511        0.019      347.985       27.348      863.580
08/18/2013  10:58:00      152.649       80.691       20.479       86.817       59.272       64.887     7537.192     3513.189     4210.306        2.274        0.763      172.664       59.813        0.120      347.812       27.051      863.578
08/18/2013  10:59:00      185.324      116.344        4.393       62.367       49.463       47.466     3889.651     2446.568     2252.993        2.824        0.429      218.818       27.284        0.016      347.683       26.827      863.575
08/18/2013  11:00:00      167.016      101.765       11.288       55.569       49.085       45.611     3087.894     2409.368     2080.346        2.298        0.379      195.578       22.264        0.013      347.822       27.067      863.579
08/18/2013  11:01:00       57.364       74.305       52.946       83.142       49.419       47.024     6912.529     2442.284     2211.225        1.159        0.578       93.872       32.248        0.118      347.938       27.270      863.570
08/18/2013  11:02:00       93.974       87.465       12.957       81.150       53.763       50.771     6585.304     2890.454     2577.721        1.435        0.603      128.379       34.991        0.074      348.183       27.693      863.568
08/18/2013  11:03:00      112.340       73.513       45.370       59.980       61.155       44.032     3597.649     3739.986     1938.818        1.468        0.464      134.255       26.052        0.038      348.192       27.707      863.574
08/18/2013  11:04:00       53.231       20.218       24.159       38.657       38.176       39.038     1494.376     1457.398     1523.961        0.415        0.224       56.941       29.776        0.273      347.874       27.159      863.580
08/18/2013  11:05:00       18.612      -38.417      -12.206       17.962       51.724       16.834      322.641     2675.400      283.386        0.263        0.164       42.688        9.753        0.052      347.746       26.939      863.582
08/18/2013  11:06:00       -7.636      -36.233        4.919       19.511       34.860       23.617      380.668     1215.218      557.769        0.177        0.108       37.028       10.181        0.076      348.007       27.390      863.576
08/18/2013  11:07:00        4.686      -16.212       15.577       19.957       18.521       20.305      398.278      343.034      412.307        0.084        0.058       16.875       15.672        0.862      348.532       28.298      863.567
08/18/2013  11:08:00       32.442        3.029       44.789       33.040       23.663       24.125     1091.663      559.958      582.010        0.265        0.112       32.583       13.403        0.169      348.461       28.174      863.553
08/18/2013  11:09:00       27.701       -8.439       19.008       32.780       28.724       27.873     1074.502      825.048      776.898        0.194        0.134       28.958       27.388        0.895      348.070       27.499      863.551
08/18/2013  11:10:00       53.050       47.315       62.695       67.212       84.365       61.570     4517.457     7117.422     3790.898        1.220        0.771       71.084       66.203        0.867      347.983       27.346      863.543
08/18/2013  11:11:00       70.297      115.108      123.648       73.816       61.855       59.582     5448.844     3826.069     3550.010        2.315        0.641      134.876       56.182        0.174      347.798       27.027      863.535
08/18/2013  11:12:00       43.339       69.652       96.102       64.265       62.331       40.942     4129.956     3885.179     1676.210        1.283        0.485       82.034       26.135        0.101      348.253       27.814      863.523
08/18/2013  11:13:00       22.726      -21.705       36.869       38.485       75.559       44.059     1481.120     5709.123     1941.200        0.574        0.457       31.426       32.027        1.039      348.179       27.686      863.540
08/18/2013  11:14:00       50.964      -59.272        6.391       49.217       69.179       40.879     2422.337     4785.799     1671.105        0.751        0.444       78.169       40.757        0.272      348.441       28.140      863.522
08/18/2013  11:15:00       55.629       -9.511       51.967       69.495       65.668       47.392     4829.513     4312.349     2245.993        0.863        0.569       56.436       41.246        0.534      348.518       28.272      863.518
08/18/2013  11:16:00       20.091        3.545       66.861       42.476       63.271       31.649     1804.211     4003.170     1001.646        0.585        0.340       20.401       26.975        1.748      348.718       28.619      863.524
08/18/2013  11:17:00       43.825       32.219       63.178       44.403       40.270       36.722     1971.593     1621.694     1348.510        0.595        0.247       54.394       27.829        0.262      348.369       28.016      863.525
08/18/2013  11:18:00      -18.496       -2.871       18.681       55.887       26.036       25.136     3123.371      677.855      631.801        0.257        0.222       18.718       26.190        1.958      348.436       28.131      863.517
08/18/2013  11:19:00      -28.043        5.005       24.449       43.710       33.173       29.051     1910.588     1100.460      843.973        0.263        0.193       28.486       29.550        1.076      348.763       28.696      863.521
08/18/2013  11:20:00      -36.215      -18.514       12.445       25.506       31.256       23.365      650.568      976.913      545.942        0.199        0.109       40.673       17.532        0.186      348.636       28.477      863.524
08/18/2013  11:21:00       10.355       24.917       18.075       23.755       19.384       20.457      564.313      375.735      418.493        0.121        0.068       26.983        9.874        0.134      348.708       28.601      863.529
08/18/2013  11:22:00       42.666       45.254       33.159       63.596       40.803       39.663     4044.461     1664.886     1573.191        0.612        0.364       62.195       25.925        0.174      348.765       28.699      863.519
08/18/2013  11:23:00      147.570      108.672       16.876       35.103       24.442       32.940     1232.227      597.403     1085.012        1.839        0.146      183.266       14.978        0.007      348.115       27.577      863.525
08/18/2013  11:24:00       49.280       37.206       -0.002       39.175       31.765       21.541     1534.663     1008.997      464.035        0.341        0.150       61.748       11.254        0.033      348.447       28.152      863.530
08/18/2013  11:25:00      -69.016      -27.477      -12.570       29.843       25.377       17.860      890.598      644.004      318.976        0.376        0.093       74.284       15.894        0.046      348.216       27.750      863.508
08/18/2013  11:26:00        2.869       16.276       29.551       22.224       15.370       21.526      493.924      236.240      463.386        0.117        0.060       16.527       12.021        0.529      349.370       29.748      863.494
08/18/2013  11:27:00      104.047       64.904       11.599       68.542       46.372       27.114     4698.062     2150.409      735.154        1.138        0.379      122.630        8.176        0.004      348.500       28.242      863.496
08/18/2013  11:28:00       47.827       36.850       22.964       73.695       56.458       30.004     5430.899     3187.527      900.268        0.684        0.476       60.376       32.471        0.289      348.474       28.199      863.484
08/18/2013  11:29:00       19.122       11.704       27.477       29.758       39.942       28.730      885.567     1595.401      825.410        0.228        0.165       22.420       25.693        1.313      348.537       28.308      863.485
08/18/2013  11:30:00       62.612       51.305       33.290       41.884       48.803       39.150     1754.286     2381.750     1532.753        0.666        0.283       80.947       29.134        0.130      348.184       27.694      863.489
08/18/2013  11:31:00      124.464       68.329       -1.355       65.598       46.132       54.403     4303.152     2128.159     2959.663        1.477        0.470      141.986       41.639        0.086      348.298       27.890      863.498
08/18/2013  11:32:00       11.600       34.226       23.555       35.961       33.064       30.003     1293.195     1093.240      900.155        0.257        0.164       36.138       23.453        0.421      348.815       28.786      863.495
08/18/2013  11:33:00       70.201       42.323       23.208       52.795       39.475       34.711     2787.273     1558.283     1204.881        0.640        0.278       81.973       18.585        0.051      348.921       28.971      863.492
08/18/2013  11:34:00       29.864       67.634       69.690       56.614       79.234       61.545     3205.130     6278.066     3787.789        1.179        0.664       73.934       46.149        0.390      348.908       28.947      863.484
08/18/2013  11:35:00       98.429       64.628       21.484       69.082       44.638       38.416     4772.388     1992.589     1475.766        1.128        0.412      117.750       33.156        0.079      348.560       28.346      863.487
08/18/2013  11:36:00       93.915       66.497       10.527       45.270       40.011       35.038     2049.400     1600.900     1227.657        0.911        0.244      115.074       21.180        0.034      348.724       28.629      863.474
08/18/2013  11:37:00       75.150       37.404       15.204       35.574       40.284       33.395     1265.506     1622.838     1115.201        0.564        0.200       83.944       15.459        0.034      348.502       28.246      863.476
08/18/2013  11:38:00       53.936       -6.703       11.481       37.915       49.562       34.143     1437.581     2456.396     1165.760        0.407        0.253       54.351       27.676        0.259      348.153       27.643      863.458
08/18/2013  11:39:00       84.890       49.877       21.679       42.138       28.584       29.707     1775.582      817.064      882.527        0.682        0.174       98.458       26.128        0.070      348.553       28.334      863.448
08/18/2013  11:40:00       44.665       61.549        2.253       40.670       34.169       31.286     1654.022     1167.496      978.815        0.479        0.190       76.048       22.786        0.090      348.468       28.187      863.439
08/18/2013  11:41:00       35.368       36.153       23.593       33.930       22.533       23.882     1151.256      507.727      570.329        0.267        0.111       50.576       14.819        0.086      348.624       28.457      863.411
08/18/2013  11:42:00       29.740       -7.622       31.739       78.156       60.028       57.770     6108.305     3603.380     3337.343        0.750        0.652       30.701       44.493        2.100      348.296       27.889      863.397
08/18/2013  11:43:00       88.629       -2.320       52.624       46.988       27.926       42.994     2207.849      779.873     1848.505        0.773        0.242       88.660       25.853        0.085      348.407       28.081      863.387
08/18/2013  11:44:00       56.036       24.292        1.395       26.317       40.447       24.780      692.588     1635.940      614.065        0.334        0.147       61.074        7.159        0.014      348.363       28.005      863.365
08/18/2013  11:45:00       79.365       68.118       47.952       42.654       35.319       36.290     1819.323     1247.421     1316.988        0.881        0.219      104.589       25.827        0.061      348.475       28.199      863.338
08/18/2013  11:46:00       36.579       -7.926       27.608       54.888       43.633       40.760     3012.671     1903.808     1661.341        0.437        0.329       37.428       36.203        0.936      348.488       28.222      863.333
08/18/2013  11:47:00        7.064       -2.356       43.385       30.907       38.355       33.860      955.224     1471.096     1146.513        0.275        0.179        7.446        8.056        1.171      349.096       29.273      863.325
08/18/2013  11:48:00       22.758        8.859       47.987       28.618       24.929       23.173      819.010      621.469      536.987        0.244        0.099       24.421       14.154        0.336      348.906       28.944      863.315
08/18/2013  11:49:00       36.568       92.709       88.856       65.049       68.148       48.983     4231.328     4644.169     2399.369        1.455        0.564       99.660       40.996        0.169      348.821       28.797      863.310
08/18/2013  11:50:00       58.861       34.001       84.083       56.270       81.873       48.505     3166.284     6703.170     2352.702        1.195        0.611       67.976       45.566        0.449      348.691       28.572      863.314
08/18/2013  11:51:00       46.982       22.288       30.132       51.920       42.452       47.410     2695.730     1802.149     2247.724        0.518        0.337       52.000       46.642        0.805      348.689       28.568      863.330
08/18/2013  11:52:00       -2.868       31.373       19.945       23.356       32.442       31.960      545.501     1052.505     1021.428        0.200        0.131       31.504       15.982        0.257      348.997       29.103      863.318
08/18/2013  11:53:00      -42.721        9.103        1.460       31.533       25.989       28.562      994.357      675.440      815.798        0.220        0.124       43.680       24.923        0.326      349.133       29.339      863.315
08/18/2013  11:54:00        3.391       18.417       17.691       48.354       28.836       29.572     2338.068      831.537      874.529        0.235        0.202       18.726       25.166        1.806      349.232       29.509      863.301
08/18/2013  11:55:00       -3.278       13.972       36.215       10.252       23.245       15.537      105.095      540.313      241.400        0.120        0.044       14.352       15.399        1.151      349.410       29.819      863.309
08/18/2013  11:56:00       12.071       40.912       21.752       21.913       27.844       25.125      480.186      775.286      631.287        0.209        0.094       42.655       15.052        0.125      349.242       29.527      863.306
08/18/2013  11:57:00       91.420       76.476       15.731       77.655       51.049       49.903     6030.286     2605.951     2490.342        1.279        0.556      119.190       27.930        0.055      349.177       29.413      863.308
08/18/2013  11:58:00      135.526       71.669        0.583       70.044       44.328       42.024     4906.126     1964.961     1766.056        1.607        0.432      153.309       19.769        0.017      348.898       28.930      863.305
08/18/2013  11:59:00      145.271       67.805        4.353       57.625       58.944       37.664     3320.623     3474.394     1418.554        1.697        0.411      160.316       34.569        0.046      348.781       28.726      863.312
08/18/2013  12:00:00       69.832       37.138       -5.033       42.790       39.988       29.972     1830.989     1599.032      898.313        0.530        0.216       79.094       23.233        0.086      348.642       28.486      863.311
08/18/2013  12:01:00        6.171      -32.491       -4.733       25.229       16.901       19.574      636.521      285.652      383.157        0.121        0.065       33.072       16.521        0.250      348.768       28.703      863.299
08/18/2013  12:02:00      -22.835      -84.875        3.979       20.946       56.368       25.004      438.753     3177.318      625.218        0.599        0.212       87.893       31.785        0.131      348.943       29.010      863.274
08/18/2013  12:03:00      -10.431      -36.854      -10.712       42.425       38.764       22.354     1799.911     1502.676      499.698        0.269        0.190       38.302       21.124        0.304      349.172       29.405      863.245
08/18/2013  12:04:00       -5.852      -46.993       10.068       39.763       32.048       30.481     1581.078     1027.077      929.094        0.294        0.177       47.356       17.270        0.133      349.113       29.303      863.236
08/18/2013  12:05:00      -23.912      -16.962       28.404       64.431       51.560       29.697     4151.377     2658.446      881.937        0.468        0.385       29.317       40.015        1.863      349.495       29.965      863.240
08/18/2013  12:06:00       18.170       27.460       48.718       36.510       39.837       32.421     1332.973     1587.011     1051.124        0.371        0.199       32.928       28.850        0.768      349.097       29.275      863.252
08/18/2013  12:07:00       83.927       67.926       39.526       99.100       64.576       62.252     9820.784     4170.070     3875.283        1.554        0.893      107.970       65.158        0.364      348.908       28.947      863.228
08/18/2013  12:08:00       88.899       85.478       29.194       54.623       49.414       52.677     2983.681     2441.697     2774.814        1.213        0.410      123.328       22.974        0.035      349.245       29.532      863.232
08/18/2013  12:09:00      146.048       92.749        9.159       88.206       60.401       43.021     7780.221     3648.338     1850.841        2.165        0.664      173.010       27.916        0.026      349.142       29.351      863.230
08/18/2013  12:10:00       49.582       13.854       10.721       52.995       63.228       40.909     2808.497     3997.745     1673.528        0.562        0.424       51.482       41.677        0.655      349.106       29.291      863.238
08/18/2013  12:11:00      134.916       85.448       26.497       63.585       59.499       42.524     4043.110     3540.188     1808.313        1.780        0.470      159.699       29.838        0.035      349.094       29.268      863.204
08/18/2013  12:12:00      110.528       84.632       20.219       75.793       45.887       49.769     5744.626     2105.592     2476.945        1.506        0.516      139.208       21.251        0.023      349.241       29.523      863.204
08/18/2013  12:13:00       -6.173       55.208        0.717       33.257       31.411       28.227     1106.014      986.644      796.783        0.299        0.144       55.552       16.609        0.089      349.503       29.979      863.183
08/18/2013  12:14:00      -20.886       21.603        7.081       34.048       26.568       25.380     1159.274      705.843      644.146        0.173        0.125       30.049       22.011        0.537      349.777       30.456      863.171
08/18/2013  12:15:00       19.984       73.249        0.148       45.462       43.495       29.722     2066.815     1891.821      883.402        0.530        0.242       75.927       18.197        0.057      349.387       29.778      863.171
08/18/2013  12:16:00      168.556       90.624       23.597      114.479      110.277       59.203    13105.369    12160.958     3505.014        3.297        1.439      191.373       29.895        0.024      349.309       29.639      863.182
08/18/2013  12:17:00      148.770       90.733       21.036       78.869       65.513       54.740     6220.305     4291.924     2996.452        2.216        0.675      174.255       42.593        0.060      349.480       29.937      863.167
08/18/2013  12:18:00       54.328       35.365       34.866       62.772       36.915       33.204     3940.347     1362.680     1102.494        0.591        0.320       64.825       21.779        0.113      349.870       30.617      863.167
08/18/2013  12:19:00       89.783       52.880       17.419       72.388       54.618       38.301     5240.003     2983.133     1466.975        1.042        0.485      104.199       37.237        0.128      349.228       29.501      863.154
08/18/2013  12:20:00      133.010      122.432        1.190       72.110       62.024       52.855     5199.885     3847.024     2793.615        2.226        0.592      180.780       39.531        0.048      349.228       29.499      863.154
08/18/2013  12:21:00       68.200       85.783       12.539       62.977       52.914       46.139     3966.133     2799.943     2128.772        1.053        0.445      109.590       32.756        0.089      349.284       29.598      863.140
08/18/2013  12:22:00      112.885       84.147       11.052       68.667       49.105       46.353     4715.160     2411.259     2148.606        1.461        0.464      140.797       31.060        0.049      349.267       29.568      863.123
08/18/2013  12:23:00       23.789       80.564       13.889       41.485       51.771       34.324     1720.992     2680.259     1178.155        0.641        0.279       84.002       26.927        0.103      349.550       30.061      863.112
08/18/2013  12:24:00       24.599      114.548        8.993       51.686      103.029       40.389     2671.421    10615.048     1631.267        1.436        0.746      117.160       50.042        0.182      349.604       30.153      863.094
08/18/2013  12:25:00      -36.556      149.246      -28.475       42.593       98.444       34.979     1814.138     9691.141     1223.550        1.857        0.636      153.658       37.052        0.058      349.150       29.363      863.099
08/18/2013  12:26:00       -2.426       64.240       24.023       77.202       49.331       39.452     5960.113     2433.526     1556.470        0.733        0.498       64.286       35.903        0.312      349.785       30.467      863.076
08/18/2013  12:27:00       73.132       77.832       28.032       45.654       40.537       36.480     2084.274     1643.273     1330.814        0.862        0.253      106.799       29.038        0.074      349.216       29.482      863.073
08/18/2013  12:28:00       91.287       48.948       44.940       91.729       47.339       47.140     8414.204     2241.024     2222.191        1.281        0.644      103.582       38.699        0.140      349.508       29.986      863.055
08/18/2013  12:29:00       75.005       48.711       13.076       30.859       33.746       32.495      952.304     1138.812     1055.915        0.566        0.157       89.435       15.372        0.030      349.160       29.384      863.049
08/18/2013  12:30:00       18.066       21.221       49.519       60.221       99.516       48.820     3626.517     9903.349     2383.383        0.957        0.796       27.870       53.458        3.679      349.570       30.095      863.024
08/18/2013  12:31:00      174.721     -247.573      -39.683       82.723       98.477       53.765     6843.137     9697.696     2890.693        5.641        0.972      303.018       38.516        0.016      349.394       29.786      862.998
08/18/2013  12:32:00      109.117     -132.685      -28.064       51.818       85.282       43.942     2685.095     7273.037     1930.876        2.109        0.594      171.790       36.226        0.044      349.399       29.796      862.995
08/18/2013  12:33:00       24.546       21.081       39.115       39.136       39.701       36.396     1531.658     1576.143     1324.689        0.350        0.222       32.356       23.490        0.527      349.873       30.621      863.004
08/18/2013  12:34:00       52.495       46.644       46.033       43.234       35.933       37.359     1869.186     1291.208     1395.714        0.580        0.228       70.224       20.257        0.083      349.298       29.625      862.995
08/18/2013  12:35:00       92.966       78.294       63.733       56.873       49.629       46.998     3234.544     2463.059     2208.765        1.337        0.395      121.543       34.324        0.080      348.878       28.896      862.970
08/18/2013  12:36:00      186.033      121.245       40.383       45.067       34.321       39.073     2031.018     1177.964     1526.727        2.784        0.237      222.056       28.609        0.017      349.057       29.203      862.962
08/18/2013  12:37:00       47.504       83.933       27.345       67.404       75.071       57.088     4543.265     5635.727     3259.078        1.174        0.672       96.444       39.453        0.167      349.269       29.573      862.941
08/18/2013  12:38:00      118.099       48.550       62.737      113.181      109.546       71.434    12809.899    12000.355     5102.822        2.507        1.496      127.689       66.982        0.275      349.580       30.110      862.925
08/18/2013  12:39:00       88.429       86.085      102.099      102.403       80.615       53.840    10486.308     6498.732     2898.773        2.277        0.994      123.412       52.104        0.178      349.551       30.060      862.900
08/18/2013  12:40:00      119.384       96.997      103.384       91.746       81.239       67.994     8417.413     6599.711     4623.167        2.699        0.982      153.822       43.920        0.082      349.153       29.370      862.899
08/18/2013  12:41:00      122.643       63.748       50.483       75.684       79.446       50.113     5727.997     6311.697     2511.328        1.810        0.728      138.221       48.579        0.124      349.430       29.850      862.907
08/18/2013  12:42:00       42.238      -27.323       21.845       39.280       40.822       23.887     1542.949     1666.412      570.604        0.339        0.189       50.305       24.233        0.232      349.667       30.263      862.899
08/18/2013  12:43:00       29.867       62.897       56.953       71.617       43.367       42.768     5128.930     1880.728     1829.136        0.846        0.442       69.628       29.479        0.179      349.824       30.536      862.887
08/18/2013  12:44:00       44.526       45.432       47.089       53.275       35.247       33.865     2838.213     1242.318     1146.819        0.574        0.261       63.613       25.832        0.165      350.143       31.089      862.887
08/18/2013  12:45:00       13.103       14.268        7.443       34.303       30.189       24.891     1176.673      911.402      619.561        0.157        0.135       19.371        6.423        0.110      350.112       31.038      862.872
08/18/2013  12:46:00        6.150      -39.255       29.600       34.416       59.412       33.898     1184.439     3529.814     1149.085        0.416        0.293       39.733       23.994        0.365      349.876       30.626      862.850
08/18/2013  12:47:00      133.717     -122.777       -0.922       87.195       79.504       54.954     7603.046     6320.886     3019.920        2.495        0.847      181.534       53.197        0.086      349.774       30.446      862.834
08/18/2013  12:48:00       25.618      -22.591      -10.744       72.326       77.825       36.392     5231.046     6056.707     1324.381        0.694        0.631       34.156       24.636        0.520      349.662       30.256      862.832
08/18/2013  12:49:00        1.105       10.535        8.071       39.740       53.586       32.525     1579.269     2871.455     1057.875        0.284        0.275       10.593       20.396        3.708      349.784       30.466      862.820
08/18/2013  12:50:00      151.423     -185.735      -43.116       61.460       65.781       33.492     3777.322     4327.129     1121.698        3.425        0.461      239.638       15.002        0.004      349.602       30.146      862.791
08/18/2013  12:51:00      129.744     -155.483      -32.606       55.310       77.229       35.942     3059.166     5964.353     1291.858        2.619        0.516      202.506       28.006        0.019      349.589       30.125      862.774
08/18/2013  12:52:00       98.884      -22.547       54.323       80.848      116.430       75.017     6536.442    13555.881     5627.523        1.947        1.286      101.422       79.099        0.608      349.863       30.601      862.753
08/18/2013  12:53:00      111.862     -210.717      -14.769       42.219       46.088       28.113     1782.423     2124.111      790.323        3.091        0.235      238.569       17.207        0.005      349.512       29.992      862.762
08/18/2013  12:54:00       30.620     -100.850       -1.325       42.500       75.715       34.114     1806.272     5732.720     1163.792        0.991        0.435      105.396       35.197        0.112      349.890       30.650      862.739
08/18/2013  12:55:00       59.669     -112.791       18.816       84.715       88.609       44.602     7176.667     7851.592     1989.378        1.682        0.851      127.602       49.363        0.150      349.947       30.748      862.731
08/18/2013  12:56:00       55.760      -34.750       21.650       59.013       88.273       52.106     3482.584     7792.111     2715.010        0.939        0.699       65.702       53.232        0.656      349.866       30.608      862.707
08/18/2013  12:57:00      121.742       88.551       72.925       80.135       90.061       57.890     6421.663     8110.967     3351.241        2.293        0.894      150.540       55.139        0.134      349.948       30.748      862.717
08/18/2013  12:58:00       37.046       79.762       98.992       70.107       79.418       49.739     4914.977     6307.255     2474.013        1.561        0.685       87.945       36.875        0.176      349.938       30.734      862.701
08/18/2013  12:59:00      130.712      104.547       20.896       74.971       59.125       54.414     5620.661     3495.792     2960.917        2.026        0.604      167.379       48.273        0.083      349.735       30.379      862.713
08/18/2013  13:00:00        5.474       48.017       13.582       29.683       27.213       29.927      881.089      740.545      895.610        0.252        0.126       48.328       10.138        0.044      350.111       31.035      862.724
08/18/2013  13:01:00      -17.871       -8.238      -29.566       39.079       91.418       26.982     1527.142     8357.244      728.042        0.594        0.531       19.678       30.507        2.403      349.814       30.518      862.716
08/18/2013  13:02:00       99.151       60.152       27.828       88.143       57.911       56.301     7769.230     3353.632     3169.772        1.426        0.715      115.971       33.477        0.083      349.949       30.754      862.692
08/18/2013  13:03:00      218.120      139.183       40.711      120.240       88.003       71.245    14457.544     7744.510     5075.804        4.794        1.364      258.743       45.053        0.030      350.105       31.020      862.676
08/18/2013  13:04:00      107.885      105.059       23.748      143.427       96.767       69.510    20571.430     9363.783     4831.631        2.900        1.738      150.588       56.557        0.141      350.135       31.074      862.697
08/18/2013  13:05:00      -75.330      157.819      -17.422       52.381       81.550       40.537     2743.786     6650.482     1643.218        2.096        0.552      174.875       32.830        0.035      350.108       31.028      862.698
08/18/2013  13:06:00      -71.632       68.680        9.694       72.812       67.040       40.228     5301.613     4494.321     1618.317        1.068        0.571       99.238       46.102        0.216      350.111       31.034      862.660
08/18/2013  13:07:00      -13.977      118.985      -11.066       54.711      115.100       37.677     2993.327    13247.963     1419.546        1.607        0.883      119.803       42.880        0.128      350.312       31.385      862.658
08/18/2013  13:08:00       70.942      245.138      -18.903      132.792       95.552       50.446    17633.668     9130.156     2544.801        4.739        1.465      255.197       57.342        0.050      350.253       31.276      862.653
08/18/2013  13:09:00      239.669      100.577       49.456      109.562       92.103       72.699    12003.884     8482.919     5285.169        4.788        1.289      259.917       51.590        0.039      350.049       30.923      862.649
08/18/2013  13:10:00       27.484       59.029       38.126       53.881       73.681       47.506     2903.139     5428.941     2256.773        0.814        0.529       65.114       37.762        0.336      349.791       30.479      862.653
08/18/2013  13:11:00       12.891       60.468       -3.110       48.507       62.298       38.612     2352.950     3881.028     1490.880        0.578        0.386       61.827       33.397        0.292      350.102       31.019      862.672
08/18/2013  13:12:00        9.048       32.481       24.418       41.444       44.061       31.430     1717.645     1941.373      987.837        0.319        0.232       33.718       24.550        0.530      350.646       31.967      862.651
08/18/2013  13:13:00      214.602      125.902       46.750      127.674       73.035       76.677    16300.657     5334.074     5879.298        4.580        1.376      248.808       76.724        0.095      350.058       30.939      862.636
08/18/2013  13:14:00      169.139      132.230       26.821      111.333       74.565       57.778    12394.952     5559.906     3338.290        3.405        1.065      214.693       25.000        0.014      350.034       30.899      862.630
08/18/2013  13:15:00      112.364       67.940       34.743      103.848       75.596       48.382    10784.470     5714.760     2340.838        1.864        0.942      131.307       28.850        0.048      350.511       31.729      862.613
08/18/2013  13:16:00      115.319       59.598       34.222       89.967       98.546       44.008     8093.990     9711.279     1936.715        1.888        0.987      129.809       28.272        0.047      350.137       31.078      862.607
08/18/2013  13:17:00       64.020       62.427       65.722       78.951       60.885       62.685     6233.218     3706.943     3929.469        1.309        0.693       89.418       49.177        0.302      350.226       31.233      862.610
08/18/2013  13:18:00      141.082       95.481       45.897       36.853       42.474       36.650     1358.129     1804.018     1343.228        1.782        0.225      170.354       13.428        0.006      349.965       30.779      862.603
08/18/2013  13:19:00       76.798       61.072       30.242       61.396       40.233       33.328     3769.434     1618.692     1110.749        0.852        0.325       98.121       21.649        0.049      350.215       31.215      862.600
08/18/2013  13:20:00       21.284       33.519       76.672       52.754       81.684       47.308     2782.981     6672.343     2238.042        0.957        0.585       39.706       47.946        1.458      350.349       31.448      862.601
08/18/2013  13:21:00       77.569     -126.192      -15.537       53.065       88.418       25.638     2815.899     7817.730      657.288        1.673        0.565      148.126       28.491        0.037      349.783       30.463      862.600
08/18/2013  13:22:00      -30.742       -4.901       -3.034       33.512       19.139       22.450     1123.056      366.286      504.017        0.149        0.100       31.130       16.203        0.271      350.346       31.443      862.596
08/18/2013  13:23:00      -38.170        9.887        3.264       37.853       19.761       18.847     1432.868      390.494      355.226        0.187        0.109       39.430       16.304        0.171      350.529       31.761      862.589
08/18/2013  13:24:00        7.472       41.848       15.141       83.541       37.306       26.747     6979.156     1391.756      715.400        0.556        0.454       42.510       18.225        0.184      350.437       31.600      862.574
08/18/2013  13:25:00      116.910       37.143       27.365       47.010       53.847       39.677     2209.955     2899.507     1574.226        1.124        0.334      122.668       17.112        0.019      349.711       30.342      862.569
08/18/2013  13:26:00       -1.897        7.887        9.368       36.695       78.055       35.736     1346.504     6092.572     1277.071        0.443        0.436        8.112       17.327        4.563      350.415       31.564      862.554
08/18/2013  13:27:00       35.026       18.476       45.944       79.709       52.342       49.222     6353.466     2739.649     2422.801        0.760        0.576       39.600       29.290        0.547      350.680       32.023      862.522
08/18/2013  13:28:00       69.633      -35.105       38.293       82.987       65.985       57.024     6886.889     4354.070     3251.749        1.102        0.725       77.982       59.878        0.590      350.265       31.302      862.525
08/18/2013  13:29:00      101.760       81.513       31.033       52.723       54.049       48.566     2779.732     2921.261     2358.657        1.301        0.403      130.381       26.693        0.042      350.249       31.275      862.516
08/18/2013  13:30:00       67.462      103.712        3.349       60.239       45.637       44.007     3628.741     2082.713     1936.610        1.148        0.382      123.722       26.393        0.046      350.149       31.101      862.493
08/18/2013  13:31:00       41.766       25.217       19.000       29.108       21.472       26.680      847.263      461.040      711.819        0.238        0.101       48.788       17.417        0.127      350.241       31.260      862.481
08/18/2013  13:32:00      -22.467       25.817       17.792       34.035       27.800       26.337     1158.406      772.834      693.622        0.206        0.131       34.224       14.928        0.190      350.656       31.983      862.450
08/18/2013  13:33:00       16.953        5.652       17.566       42.632       26.255       25.161     1817.477      689.338      633.055        0.188        0.157       17.871       18.106        1.027      350.153       31.108      862.436
08/18/2013  13:34:00       50.821      -75.572        9.158       47.625       83.262       39.716     2268.132     6932.522     1577.377        0.958        0.539       91.071       39.678        0.190      350.269       31.308      862.427
08/18/2013  13:35:00       40.773     -106.822       -3.747       52.270       73.484       33.501     2732.175     5399.893     1122.342        1.117        0.463      114.339       33.598        0.086      350.498       31.706      862.407
08/18/2013  13:36:00       74.538       33.833       19.860       65.517       99.304       47.548     4292.415     9861.372     2260.803        1.175        0.821       81.857       34.225        0.175      350.299       31.361      862.405
08/18/2013  13:37:00      145.383       81.163       15.734       59.307       42.974       45.103     3517.377     1846.735     2034.286        1.768        0.370      166.504       29.253        0.031      350.268       31.307      862.410
08/18/2013  13:38:00       50.956       66.595        8.807       58.598       39.042       40.550     3433.715     1524.247     1644.302        0.685        0.330       83.854       28.243        0.113      350.392       31.524      862.410
08/18/2013  13:39:00      -25.406       41.947       -0.509       18.720       40.668       18.689      350.430     1653.914      349.294        0.238        0.118       49.041       14.395        0.086      350.683       32.029      862.398
08/18/2013  13:40:00     -106.743       25.240      -36.759       38.023       37.549       25.844     1445.784     1409.961      667.925        0.845        0.176      109.686       16.867        0.024      350.278       31.325      862.380
08/18/2013  13:41:00     -140.340      -59.600      -20.675       26.193       37.180       20.861      686.063     1382.372      435.190        1.309        0.125      152.471       15.583        0.010      350.126       31.061      862.362
08/18/2013  13:42:00     -130.591       -2.236      -13.989       52.804       52.924       26.157     2788.259     2800.945      684.164        1.176        0.314      130.610       22.868        0.031      350.410       31.555      862.345
08/18/2013  13:43:00      -84.541       38.715        0.967       53.192       52.797       29.375     2829.432     2787.558      862.898        0.756        0.324       92.984       31.081        0.112      350.627       31.932      862.344
08/18/2013  13:44:00     -133.970       82.463      -10.073       71.738       56.617       35.293     5146.337     3205.493     1245.630        1.722        0.480      157.315       35.820        0.052      350.427       31.581      862.327
08/18/2013  13:45:00      -44.040       68.290       24.792       76.913       61.246       39.364     5915.587     3751.065     1549.495        0.922        0.561       81.259       43.043        0.281      350.880       32.373      862.311
08/18/2013  13:46:00      -62.313       22.132       23.256       70.176       62.153       38.351     4924.636     3863.049     1470.836        0.758        0.513       66.126       32.240        0.238      351.091       32.739      862.292
08/18/2013  13:47:00     -153.030      -15.133      -11.610       58.362       61.338       39.155     3406.153     3762.331     1533.087        1.624        0.435      153.776       29.413        0.037      350.647       31.965      862.297
08/18/2013  13:48:00      -71.918       16.393       -1.380       61.494       60.637       31.361     3781.547     3676.839      983.483        0.694        0.422       73.763       34.780        0.222      350.871       32.356      862.295
08/18/2013  13:49:00      -67.350       41.027        0.832       43.959       48.477       30.896     1932.394     2350.029      954.549        0.573        0.262       78.862       20.326        0.066      350.618       31.915      862.292
08/18/2013  13:50:00       12.709       29.694       18.007       25.285       32.388       27.651      639.313     1048.978      764.585        0.191        0.123       32.299       20.488        0.402      351.127       32.803      862.270
08/18/2013  13:51:00      -35.990        8.086       14.602       52.668       24.193       29.534     2773.877      585.286      872.233        0.290        0.212       36.887       34.804        0.890      351.521       33.489      862.259
08/18/2013  13:52:00      -30.258        2.312        7.435       64.249       52.989       32.834     4127.912     2807.883     1078.079        0.449        0.401       30.346       27.817        0.840      351.055       32.675      862.250
08/18/2013  13:53:00     -109.950       55.644       12.271       84.893       46.278       40.447     7206.850     2141.656     1635.925        1.316        0.549      123.228       34.008        0.076      350.841       32.302      862.237
08/18/2013  13:54:00       -3.707       28.857       53.489       42.931       30.821       21.233     1843.032      949.908      450.856        0.348        0.162       29.094       23.132        0.632      351.366       33.220      862.230
08/18/2013  13:55:00       -3.079       27.851       22.562       29.432       24.247       26.984      866.254      587.920      728.144        0.174        0.109       28.020       17.097        0.372      351.188       32.908      862.219
08/18/2013  13:56:00       40.527        1.903       23.715       25.191       30.239       25.061      634.600      914.418      628.051        0.219        0.109       40.572       19.146        0.223      351.037       32.645      862.208
08/18/2013  13:57:00       20.524       25.838       16.851       29.722       29.769       21.581      883.408      886.164      465.745        0.180        0.112       32.997       17.228        0.273      350.970       32.529      862.182
08/18/2013  13:58:00       -6.710       41.138       10.992       39.976       62.578       28.821     1598.098     3915.979      830.674        0.410        0.317       41.682        7.142        0.029      351.331       33.158      862.169
08/18/2013  13:59:00       18.084       24.739       16.450       35.297       58.335       27.377     1245.844     3402.969      749.518        0.330        0.270       30.644       23.090        0.568      351.173       32.882      862.149
08/18/2013  14:00:00       31.873       15.860       12.580       62.349       28.503       29.221     3887.425      812.428      853.866        0.349        0.278       35.601       18.155        0.260      350.482       31.679      862.130
08/18/2013  14:01:00      121.079       60.482        7.973       56.696       42.025       37.375     3214.389     1766.103     1396.905        1.238        0.319      135.345       33.109        0.060      350.489       31.692      862.126
08/18/2013  14:02:00       90.430       55.409       34.717       69.142       61.363       40.774     4780.559     3765.389     1662.546        1.133        0.510      106.055       25.970        0.060      350.429       31.587      862.101
08/18/2013  14:03:00       74.441       43.168       50.166       86.826       77.217       49.545     7538.744     5962.473     2454.718        1.294        0.798       86.052       48.429        0.317      350.834       32.292      862.086
08/18/2013  14:04:00       83.717       56.323      108.152       94.672      101.132       76.329     8962.882    10227.598     5826.154        2.344        1.251      100.900       83.444        0.684      350.401       31.536      862.067
08/18/2013  14:05:00      116.809       70.979       51.310       80.072       95.504       48.445     6411.486     9121.099     2346.904        1.959        0.894      136.683       39.968        0.086      350.491       31.693      862.067
08/18/2013  14:06:00      173.156       75.158       49.167      105.754       82.478       68.771    11183.918     6802.570     4729.393        3.038        1.136      188.763       51.705        0.075      350.720       32.091      862.069
08/18/2013  14:07:00       84.957       80.484       27.800       76.526       69.797       62.196     5856.206     4871.592     3868.368        1.453        0.730      117.028       37.039        0.100      350.567       31.826      862.057
08/18/2013  14:08:00       55.470      110.113       18.993       67.462       91.714       46.876     4551.060     8411.472     2197.371        1.536        0.758      123.296       44.018        0.127      350.756       32.155      862.034
08/18/2013  14:09:00       72.817       11.637        4.428       59.915       36.808       28.531     3589.755     1354.860      814.021        0.561        0.288       73.741       23.711        0.103      350.286       31.338      862.034
08/18/2013  14:10:00       24.038        8.274        7.941       61.229       30.260       37.713     3749.036      915.661     1422.276        0.340        0.304       25.423       22.630        0.792      350.519       31.743      862.030
08/18/2013  14:11:00       59.673       67.752       86.975       66.740       62.953       53.856     4454.292     3963.044     2900.496        1.351        0.566       90.284       49.317        0.298      350.101       31.017      862.021
08/18/2013  14:12:00       97.074      -41.602        5.416       36.777       29.795       29.654     1352.574      887.749      879.347        0.715        0.156      105.613       29.037        0.076      350.142       31.088      862.027
08/18/2013  14:13:00      -55.134        1.954        9.581       52.836       32.690       34.937     2791.633     1068.606     1220.612        0.411        0.254       55.168       37.770        0.469      350.624       31.926      862.011
08/18/2013  14:14:00     -112.714       14.736       -7.415       47.303       48.982       21.620     2237.577     2399.202      467.420        0.904        0.255      113.673       15.629        0.019      350.788       32.212      861.970
08/18/2013  14:15:00      -27.115       46.786       11.607       35.529       30.479       26.797     1262.303      928.981      718.056        0.298        0.145       54.076       26.996        0.249      351.220       32.964      861.955
08/18/2013  14:16:00      -10.164       44.599       14.818       31.863       35.937       29.526     1015.254     1291.445      871.763        0.274        0.159       45.743       30.071        0.432      351.228       32.979      861.935
08/18/2013  14:17:00      -27.785       50.822       -4.826       31.167       49.391       32.263      971.381     2439.489     1040.914        0.391        0.223       57.921       27.431        0.224      351.037       32.645      861.926
08/18/2013  14:18:00      -42.313      103.904       -0.100       29.640       63.512       28.363      878.525     4033.770      804.444        0.915        0.286      112.189       30.885        0.076      351.072       32.708      861.902
08/18/2013  14:19:00      -37.132       85.655      -11.993       19.153       40.057       26.537      366.825     1604.594      704.196        0.577        0.134       93.357       18.825        0.041      350.935       32.468      861.876
08/18/2013  14:20:00        5.372       85.160        2.331       66.409       45.918       33.576     4410.128     2108.471     1127.380        0.746        0.382       85.329       20.975        0.060      351.212       32.951      861.852
08/18/2013  14:21:00      104.419      149.683      -19.738      107.841      100.214       50.899    11629.653    10042.939     2590.670        2.898        1.213      182.505       48.078        0.069      350.774       32.183      861.828
08/18/2013  14:22:00       22.901      153.397      -10.698       38.438       65.064       39.389     1477.511     4233.292     1551.465        1.571        0.363      155.097       45.068        0.084      350.970       32.528      861.829
08/18/2013  14:23:00       28.273      158.151       -7.400       47.455       69.022       39.368     2251.949     4763.992     1549.834        1.721        0.428      160.658       37.503        0.054      350.898       32.402      861.815
08/18/2013  14:24:00        5.430       69.621       -3.528       34.235       58.643       33.443     1172.007     3439.057     1118.420        0.531        0.286       69.832       39.627        0.322      351.138       32.822      861.813
08/18/2013  14:25:00        3.900       42.989       17.891       31.304       39.384       28.633      979.932     1551.089      819.865        0.277        0.168       43.166       23.299        0.291      351.399       33.276      861.793
08/18/2013  14:26:00      -49.601      164.613       -8.109       43.913       73.785       38.314     1928.360     5444.164     1467.949        1.923        0.442      171.924       39.275        0.052      350.921       32.441      861.785
08/18/2013  14:27:00       -7.702       56.215        4.774       41.682       38.516       31.101     1737.413     1483.487      967.258        0.371        0.209       56.740       27.636        0.237      351.368       33.222      861.775
08/18/2013  14:28:00       37.917       78.447       -6.866       43.282       40.001       36.091     1873.321     1600.104     1302.553        0.621        0.239       87.130       22.303        0.066      351.161       32.861      861.755
08/18/2013  14:29:00       11.993      129.146        3.361       51.082       96.725       35.460     2609.321     9355.737     1257.445        1.503        0.661      129.702       42.803        0.109      351.291       33.086      861.748
08/18/2013  14:30:00       13.529      119.127       21.003       67.847       97.617       56.531     4603.154     9529.011     3195.711        1.607        0.866      119.893       49.751        0.172      351.434       33.336      861.730
08/18/2013  14:31:00      -15.359      147.614       -5.222       60.511       83.675       42.450     3661.576     7001.574     1802.040        1.726        0.623      148.411       46.028        0.096      351.273       33.055      861.722
08/18/2013  14:32:00       28.712      122.053        4.961       55.374       82.562       53.536     3066.315     6816.520     2866.078        1.425        0.637      125.385       50.846        0.164      351.355       33.199      861.730
08/18/2013  14:33:00       22.848      112.549       -0.141       44.598       84.640       43.628     1988.948     7163.986     1903.369        1.212        0.553      114.845       46.392        0.163      351.148       32.839      861.711
08/18/2013  14:34:00      -11.519      141.152      -14.013       35.020       56.777       35.313     1226.377     3223.669     1246.992        1.297        0.285      141.621       34.468        0.059      350.993       32.569      861.700
08/18/2013  14:35:00      -25.970      153.484      -19.697       19.814       29.963       24.640      392.604      897.771      607.140        1.326        0.095      155.666       18.599        0.014      350.972       32.532      861.690
08/18/2013  14:36:00      -78.984      131.774      -15.564       48.662       52.841       29.783     2368.000     2792.208      887.007        1.495        0.302      153.632       31.702        0.043      351.092       32.739      861.670
08/18/2013  14:37:00      -87.357       87.485      -37.161       54.968       30.758       22.318     3021.482      946.029      498.098        1.056        0.223      123.632       19.014        0.024      350.986       32.558      861.653
08/18/2013  14:38:00      -43.424      100.212        0.115       49.175       73.351       34.995     2418.145     5380.325     1224.651        1.047        0.451      109.215       34.507        0.100      351.323       33.143      861.628
08/18/2013  14:39:00       -6.917       81.533        7.026       28.820       71.872       31.185      830.604     5165.614      972.477        0.686        0.348       81.826       39.622        0.234      351.607       33.641      861.620
08/18/2013  14:40:00      -30.788      179.243       -1.297       51.014       66.409       45.734     2602.390     4410.179     2091.601        2.109        0.455      181.868       38.867        0.046      351.211       32.948      861.614
08/18/2013  14:41:00     -122.480      120.844      -15.737       43.153       54.248       39.698     1862.192     2942.892     1575.920        1.812        0.319      172.060       33.516        0.038      351.282       33.071      861.600
08/18/2013  14:42:00      -24.662       39.201       15.384       52.367       38.996       27.446     2742.293     1520.709      753.269        0.370        0.251       46.314       18.515        0.160      351.611       33.647      861.602
08/18/2013  14:43:00      -20.878       42.200       23.577       73.321       49.029       47.554     5376.032     2403.874     2261.359        0.641        0.502       47.082       58.076        1.522      351.380       33.242      861.585
08/18/2013  14:44:00      -44.583       70.056       -9.728       39.377       43.473       30.232     1550.517     1889.929      913.950        0.567        0.218       83.039       30.174        0.132      351.283       33.077      861.578
08/18/2013  14:45:00      -34.689       70.267        8.285       37.571       29.019       26.629     1411.561      842.120      709.081        0.459        0.148       78.363       25.694        0.108      351.226       32.975      861.567
08/18/2013  14:46:00      -59.621       33.513       -7.594       31.426       35.914       28.613      987.602     1289.791      818.675        0.392        0.155       68.394       27.990        0.167      351.288       33.082      861.543
08/18/2013  14:47:00       31.909       15.047       42.975       48.785       32.949       26.270     2379.937     1085.639      690.118        0.362        0.208       35.279       26.200        0.552      350.463       31.647      861.529
08/18/2013  14:48:00       44.674        2.796       27.396       29.990       24.438       26.012      899.422      597.230      676.612        0.246        0.109       44.762       12.929        0.083      350.599       31.884      861.529
08/18/2013  14:49:00       85.299      -83.757       15.572       66.031       62.746       33.665     4360.154     3937.110     1133.317        1.198        0.472      119.546       25.961        0.047      350.867       32.349      861.492
08/18/2013  14:50:00       78.527     -165.606      -10.597       66.611       81.095       40.714     4437.070     6576.440     1657.597        2.319        0.634      183.281       46.461        0.064      351.132       32.808      861.461
08/18/2013  14:51:00       80.609     -174.390      -20.005       76.054       76.721       42.767     5784.240     5886.130     1828.985        2.540        0.675      192.118       42.422        0.049      351.082       32.720      861.447
08/18/2013  14:52:00       50.399      -82.233       21.804       53.138       73.211       41.884     2823.631     5359.817     1754.286        0.986        0.497       96.449       38.562        0.160      350.852       32.325      861.424
08/18/2013  14:53:00       47.439      -76.866        1.288       54.130       51.270       40.007     2930.048     2628.615     1600.522        0.766        0.358       90.326       38.696        0.184      350.997       32.577      861.413
08/18/2013  14:54:00       35.868      -32.333       18.128       38.585       50.930       31.544     1488.838     2593.867      995.052        0.387        0.254       48.289       35.583        0.543      350.915       32.435      861.405
08/18/2013  14:55:00       48.504       15.754       45.967       67.648       43.179       49.365     4576.219     1864.395     2436.903        0.679        0.444       50.998       31.815        0.389      350.934       32.466      861.385
08/18/2013  14:56:00       15.702       22.080       34.421       55.175       72.130       48.476     3044.312     5202.776     2349.904        0.626        0.530       27.094       26.953        0.990      350.966       32.523      861.347
08/18/2013  14:57:00      137.664       54.919       42.579      107.098       73.193       52.335    11470.021     5357.251     2738.920        2.167        0.978      148.214       41.880        0.080      351.322       33.141      861.338
08/18/2013  14:58:00      168.512      104.490       50.415      121.348       74.002       65.653    14725.352     5476.362     4310.297        3.318        1.226      198.279       52.101        0.069      351.032       32.634      861.307
08/18/2013  14:59:00       89.925       18.521       11.983       73.886       65.281       48.666     5459.129     4261.606     2368.345        1.033        0.604       91.813       47.230        0.265      351.109       32.770      861.297
08/18/2013  15:00:00       94.044       16.524       31.933       72.406       83.348       67.086     5242.654     6946.863     4500.479        1.341        0.834       95.485       61.985        0.421      350.677       32.019      861.275
08/18/2013  15:01:00       98.886       -1.667       62.800      100.525      107.755       69.218    10105.302    11611.140     4791.112        2.011        1.325       98.900       68.922        0.486      350.813       32.253      861.262
08/18/2013  15:02:00       97.425      -46.793       58.699      102.173      123.070       74.676    10439.403    15146.215     5576.508        2.314        1.558      108.079       88.450        0.670      351.169       32.875      861.239
08/18/2013  15:03:00      -45.384       -9.094       26.580       77.307       82.171       59.228     5976.434     6751.997     3507.935        0.954        0.812       46.286       53.868        1.354      351.194       32.919      861.252
08/18/2013  15:04:00       41.120       30.847       20.869       87.995       70.607       38.989     7743.086     4985.408     1520.119        0.866        0.712       51.404       47.296        0.847      351.114       32.780      861.223
08/18/2013  15:05:00      119.575       77.964       12.999       45.149       42.712       38.113     2038.427     1824.307     1452.622        1.293        0.266      142.747        7.651        0.003      351.059       32.684      861.220
08/18/2013  15:06:00       61.907      -51.800       -2.638       78.295      109.758       43.903     6130.144    12046.825     1927.504        1.331        1.005       80.720       43.258        0.287      351.008       32.594      861.210
08/18/2013  15:07:00      -34.232     -143.151      -18.490       70.355       56.480       36.941     4949.813     3190.016     1364.630        1.575        0.475      147.187       19.782        0.018      351.128       32.803      861.169
08/18/2013  15:08:00      -26.618      -24.361       19.450       44.658       29.630       30.633     1994.294      877.947      938.385        0.274        0.191       36.083       21.818        0.366      351.574       33.581      861.131
08/18/2013  15:09:00        0.784        0.487       27.043       23.825       31.303       18.318      567.626      979.892      335.553        0.131        0.094        0.923       15.949      298.385      351.651       33.718      861.111
08/18/2013  15:10:00      -37.170       45.371       27.337       29.196       32.281       26.748      852.417     1042.034      715.432        0.340        0.130       58.653       23.485        0.160      351.017       32.610      861.089
08/18/2013  15:11:00       22.926       38.951       41.760       36.647       30.897       23.956     1342.979      954.609      573.903        0.333        0.144       45.197       17.451        0.149      351.305       33.111      861.066
08/18/2013  15:12:00      -26.595       36.847       38.244       30.765       55.525       27.643      946.475     3083.072      764.115        0.416        0.240       45.442       18.824        0.172      351.565       33.565      861.045
08/18/2013  15:13:00      -79.124       24.013       12.508       58.258       34.476       34.120     3394.026     1188.628     1164.186        0.637        0.287       82.688       40.267        0.237      351.486       33.428      861.021
08/18/2013  15:14:00      -61.297       40.274      -15.176       30.627       42.867       21.531      937.990     1837.566      463.589        0.442        0.162       73.344        9.322        0.016      351.497       33.445      861.001
08/18/2013  15:15:00        5.570        6.596       32.796       23.059       39.166       26.525      531.717     1534.010      703.567        0.196        0.138        8.634       28.322       10.761      351.222       32.968      860.983
08/18/2013  15:16:00      -57.440        9.629       12.665       45.189       34.049       20.941     2042.021     1159.354      438.508        0.360        0.182       58.241       18.583        0.102      351.381       33.246      860.972
08/18/2013  15:17:00      -11.753       -1.801       20.876       43.299       28.050       22.631     1874.840      786.814      512.167        0.187        0.159       11.891       21.412        3.243      351.242       33.004      860.963
08/18/2013  15:18:00        2.443       10.249       20.530       19.402       32.141       24.475      376.435     1033.027      599.032        0.127        0.100       10.536       12.017        1.301      351.107       32.768      860.939
08/18/2013  15:19:00       67.806       30.134       28.306       48.644       48.582       23.622     2366.200     2360.231      557.988        0.579        0.264       74.200       18.833        0.064      351.172       32.881      860.910
08/18/2013  15:20:00      140.240      127.545       26.594       69.844       44.868       45.294     4878.196     2013.100     2051.577        2.279        0.447      189.565       20.350        0.012      351.414       33.300      860.887
08/18/2013  15:21:00      123.817      104.979       22.838       72.827       47.106       39.210     5303.777     2218.936     1537.420        1.797        0.453      162.331       28.314        0.030      351.583       33.596      860.874
08/18/2013  15:22:00       49.793       48.872       35.491       58.197       44.494       40.673     3386.845     1979.754     1654.261        0.657        0.351       69.770       30.826        0.195      351.734       33.862      860.869
08/18/2013  15:23:00       56.390       10.462       -0.343       62.028       69.301       31.180     3847.473     4802.592      972.189        0.645        0.481       57.352       13.548        0.056      351.400       33.279      860.844
08/18/2013  15:24:00        9.087      -15.251      -12.053       35.613       50.880       24.605     1268.269     2588.797      605.418        0.246        0.223       17.753       22.924        1.667      350.736       32.120      860.830
08/18/2013  15:25:00       16.072      -60.379        7.894       53.797       79.505       47.994     2894.077     6321.070     2303.452        0.774        0.576       62.482       32.130        0.264      351.458       33.378      860.804
08/18/2013  15:26:00       90.254     -114.172       -2.770       77.757       87.473       55.869     6046.109     7651.493     3121.319        1.900        0.841      145.536       56.113        0.149      351.486       33.425      860.780
08/18/2013  15:27:00       13.797      -39.135       12.334       35.187       65.815       36.506     1238.107     4331.677     1332.690        0.439        0.345       41.496       40.034        0.931      351.452       33.369      860.788
08/18/2013  15:28:00       53.309      -37.751       26.764       51.398       71.103       31.515     2641.726     5055.691      993.212        0.684        0.435       65.322       36.467        0.312      351.283       33.075      860.774
08/18/2013  15:29:00      -13.137      -12.342       25.782       36.485       49.328       36.186     1331.170     2433.219     1309.429        0.303        0.254       18.025       32.014        3.154      351.835       34.038      860.752
08/18/2013  15:30:00      -24.011      -10.439       28.184       40.615       53.872       42.814     1649.558     2902.203     1832.998        0.393        0.319       26.182       42.819        2.675      351.839       34.046      860.730
08/18/2013  15:31:00       26.359      -72.253        5.372       31.765       57.894       31.488     1008.996     3351.682      991.493        0.565        0.268       76.911       27.302        0.126      351.717       33.832      860.716
08/18/2013  15:32:00       48.630      -62.987        7.175       43.759       50.516       37.639     1914.841     2551.831     1416.657        0.613        0.294       79.575       43.561        0.300      351.601       33.631      860.719
08/18/2013  15:33:00       45.894      -36.219       28.408       54.059       62.507       29.975     2922.393     3907.066      898.487        0.598        0.386       58.464       38.398        0.431      351.636       33.689      860.695
08/18/2013  15:34:00       12.893       30.718       28.836       20.709       29.061       21.082      428.875      844.526      444.461        0.183        0.086       33.314       13.633        0.167      351.523       33.493      860.672
08/18/2013  15:35:00       51.214       37.209       25.642       83.126       51.760       31.686     6909.950     2679.080     1003.984        0.763        0.530       63.304       11.600        0.034      351.371       33.227      860.653
08/18/2013  15:36:00       60.950       72.104        8.816       73.679       45.389       32.560     5428.625     2060.199     1060.158        0.877        0.427       94.414       27.148        0.083      351.640       33.696      860.636
08/18/2013  15:37:00      133.905       82.089       12.427       91.456       63.470       45.632     8364.186     4028.419     2082.245        1.965        0.724      157.064       30.939        0.039      351.632       33.681      860.603
08/18/2013  15:38:00      224.317      150.163       28.690      100.041       72.512       59.450    10008.131     5257.923     3534.339        4.624        0.940      269.939       43.644        0.026      351.694       33.789      860.562
08/18/2013  15:39:00       55.977      164.675       -8.528       69.672      100.985       55.054     4854.184    10198.002     3030.948        2.420        0.904      173.929       52.245        0.090      351.772       33.925      860.567
08/18/2013  15:40:00       42.786       83.392        4.476       62.019       86.801       44.866     3846.365     7534.366     2012.970        1.110        0.670       93.728       47.980        0.262      351.893       34.138      860.563
08/18/2013  15:41:00       31.723       37.991        5.040       58.354       49.096       34.581     3405.218     2410.430     1195.840        0.474        0.351       49.494       25.512        0.266      351.873       34.104      860.557
08/18/2013  15:42:00      -18.099       53.445        9.593       69.887       92.278       48.920     4884.124     8515.146     2393.191        0.953        0.790       56.427       41.986        0.554      351.982       34.295      860.536
08/18/2013  15:43:00      -45.949      171.060      -24.735       72.805       80.698       36.678     5300.595     6512.239     1345.309        2.257        0.658      177.124       31.679        0.032      351.554       33.545      860.541
08/18/2013  15:44:00       49.724       56.330      -13.985       44.714       44.850       28.260     1999.347     2011.534      798.604        0.532        0.240       75.137       24.007        0.102      351.546       33.532      860.545
08/18/2013  15:45:00      113.318       31.777       -4.678       32.749       37.472       32.508     1072.474     1404.173     1056.766        0.870        0.177      117.689       14.680        0.016      351.240       32.999      860.526
08/18/2013  15:46:00       46.400       49.855        1.297       35.595       41.316       27.152     1267.034     1706.990      737.218        0.418        0.186       68.106       18.287        0.072      351.414       33.302      860.518
08/18/2013  15:47:00        8.814       78.573        1.727       24.083       52.159       28.107      579.970     2720.532      789.994        0.517        0.205       79.066       30.334        0.147      351.652       33.720      860.519
08/18/2013  15:48:00       19.606      -19.045        4.055       33.385       55.815       35.288     1114.587     3115.352     1245.210        0.312        0.274       27.333       20.176        0.545      351.249       33.016      860.521
08/18/2013  15:49:00       35.658      -54.357       24.050       38.163       37.894       27.969     1456.443     1435.985      782.284        0.424        0.184       65.009       25.156        0.150      351.456       33.375      860.503
08/18/2013  15:50:00      -81.116        0.525        7.199       82.277       51.393       31.559     6769.571     2641.257      995.950        0.852        0.520       81.118       33.500        0.171      351.541       33.525      860.495
08/18/2013  15:51:00     -182.087      -23.010      -22.898       38.945       46.403       23.459     1516.752     2153.203      550.342        1.921        0.211      183.535       17.803        0.009      351.549       33.538      860.486
08/18/2013  15:52:00     -138.586      -21.049      -14.087       22.136       24.886       19.850      490.007      619.320      394.035        1.068        0.075      140.176       10.552        0.006      351.668       33.745      860.490
08/18/2013  15:53:00      -88.122       -9.176       -6.876       40.690       30.079       30.605     1655.662      904.760      936.695        0.570        0.175       88.598       25.765        0.085      351.913       34.174      860.494
08/18/2013  15:54:00       -5.762       40.814       15.842       18.031       31.945       21.412      325.104     1020.500      458.489        0.188        0.090       41.219       14.511        0.124      351.979       34.289      860.480
08/18/2013  15:55:00      -53.968       41.762      -35.056       29.322       35.949       15.860      859.771     1292.365      251.544        0.414        0.120       68.239        8.110        0.014      351.444       33.356      860.463
08/18/2013  15:56:00      -28.800       19.311        4.368       86.034       53.513       30.596     7401.873     2863.629      936.136        0.621        0.560       34.675       28.890        0.694      351.599       33.626      860.441
08/18/2013  15:57:00       76.738       21.884       22.278       35.907       36.208       37.238     1289.311     1311.011     1386.642        0.542        0.199       79.798       26.599        0.111      350.617       31.915      860.441
08/18/2013  15:58:00      132.499       90.301       58.123       96.635       74.832       72.034     9338.231     5599.853     5188.842        2.460        1.006      160.344       56.385        0.124      351.384       33.249      860.397
08/18/2013  15:59:00      180.155      103.810       52.087       99.080       69.797       58.895     9816.802     4871.664     3468.575        3.205        0.908      207.924       39.864        0.037      351.474       33.406      860.385
08/18/2013  16:00:00      160.114       94.075       28.102      116.530       75.717       71.408    13579.234     5733.039     5099.076        2.984        1.221      185.706       66.126        0.127      351.493       33.439      860.378
08/18/2013  16:01:00      255.259      145.889       28.879       60.367       56.030       47.856     3644.151     3139.335     2290.175        4.817        0.454      294.009       32.504        0.012      351.562       33.558      860.378
08/18/2013  16:02:00       50.149      151.020      -16.420       71.266       79.154       43.704     5078.879     6265.288     1909.998        1.942        0.663      159.129       37.137        0.054      351.535       33.512      860.368
08/18/2013  16:03:00       -1.604       91.871      -12.639       41.956       56.375       31.457     1760.290     3178.091      989.539        0.726        0.296       91.885       27.632        0.090      351.541       33.524      860.354
08/18/2013  16:04:00      -21.803      117.839      -10.441       38.087       53.061       31.467     1450.639     2815.419      990.185        0.986        0.263      119.839       18.476        0.024      351.675       33.758      860.341
08/18/2013  16:05:00      -21.342       32.513       11.140       27.782       40.658       25.076      771.863     1653.064      628.818        0.234        0.153       38.892       24.565        0.399      351.851       34.067      860.330
08/18/2013  16:06:00       -7.260       61.631       18.130       35.609       43.000       33.322     1268.012     1849.034     1110.376        0.420        0.211       62.057       22.195        0.128      351.282       33.073      860.310
08/18/2013  16:07:00       35.861       10.768       34.796       36.768       33.616       29.263     1351.855     1130.056      856.315        0.297        0.167       37.442       17.793        0.226      350.789       32.214      860.307
08/18/2013  16:08:00       61.753      -26.768        5.364       39.661       36.154       30.811     1572.997     1307.085      949.290        0.419        0.191       67.305       24.381        0.131      351.011       32.600      860.310
08/18/2013  16:09:00      105.696        6.462       34.974       65.459       55.218       46.961     4284.911     3049.048     2205.337        1.099        0.477      105.893       42.384        0.160      351.214       32.955      860.300
08/18/2013  16:10:00      100.291     -147.337      -27.225       69.738       90.221       42.737     4863.394     8139.897     1826.413        2.367        0.741      178.232       47.227        0.070      351.627       33.672      860.261
08/18/2013  16:11:00       58.313     -195.767      -25.235       77.991       68.191       51.830     6082.537     4650.070     2686.357        2.789        0.671      204.267       41.550        0.041      351.538       33.516      860.253
08/18/2013  16:12:00       74.045     -245.272      -25.317       95.107      110.232       63.013     9045.410    12151.074     3970.642        4.572        1.258      256.205       74.104        0.084      351.525       33.494      860.267
08/18/2013  16:13:00      -26.823     -109.863       -5.556       72.518       56.365       30.359     5258.890     3176.963      921.692        1.109        0.468      113.090       22.043        0.038      351.543       33.527      860.281
08/18/2013  16:14:00      -22.207      -41.136       19.025       84.216       60.724       38.722     7092.257     3687.409     1499.370        0.741        0.614       46.748       43.797        0.878      351.618       33.658      860.261
08/18/2013  16:15:00      -54.803      -83.409       -0.291       57.357       51.970       35.383     3289.812     2700.839     1251.945        0.860        0.362       99.802       23.324        0.055      351.712       33.822      860.255
08/18/2013  16:16:00      -17.118      -71.754        3.902       40.464       58.118       26.443     1637.296     3377.739      699.250        0.558        0.286       73.767       22.075        0.090      351.710       33.818      860.248
08/18/2013  16:17:00      -42.622      -22.990       10.640       70.519       50.301       30.593     4972.929     2530.175      935.932        0.545        0.422       48.427       26.066        0.290      351.585       33.600      860.238
08/18/2013  16:18:00      -34.718      -27.309        7.227       73.708       44.579       35.497     5432.823     1987.256     1260.054        0.534        0.434       44.172       28.586        0.419      351.560       33.557      860.233
08/18/2013  16:19:00      -21.596        0.212       18.706       33.775       34.342       23.562     1140.745     1179.375      555.146        0.185        0.144       21.597       21.477        0.989      351.739       33.870      860.236
08/18/2013  16:20:00      -13.009       -5.561       -1.376       42.061       36.998       31.234     1769.146     1368.842      975.559        0.216        0.206       14.147       12.934        0.836      351.413       33.300      860.228
08/18/2013  16:21:00       17.565       19.921       19.617       58.958       34.733       35.603     3476.062     1206.378     1267.560        0.352        0.298       26.559       22.213        0.699      350.610       31.903      860.214
08/18/2013  16:22:00       -9.301        1.669       17.953       47.798       37.244       23.851     2284.657     1387.135      568.865        0.233        0.212        9.449       18.041        3.645      350.744       32.136      860.204
08/18/2013  16:23:00       27.334       15.022       13.712       35.406       26.590       28.248     1253.587      707.034      797.964        0.196        0.138       31.190       19.495        0.391      350.052       30.932      860.202
08/18/2013  16:24:00       12.978        2.032       20.521       28.788       32.814       22.754      828.734     1076.791      517.753        0.151        0.121       13.136       22.935        3.049      350.682       32.028      860.210
08/18/2013  16:25:00       27.860      -25.942       20.339       33.906       61.160       30.525     1149.600     3740.601      931.766        0.384        0.291       38.068       35.666        0.878      350.929       32.457      860.209
08/18/2013  16:26:00       45.264      -67.725       30.324       70.838       81.838       52.573     5018.032     6697.383     2763.946        1.101        0.724       81.459       61.237        0.565      351.757       33.900      860.193
08/18/2013  16:27:00       59.699     -172.394       -4.929       39.572       39.950       29.780     1565.942     1595.970      886.833        1.868        0.202      182.438       26.071        0.020      351.668       33.745      860.176
08/18/2013  16:28:00       55.141      -36.079       33.571       68.299       85.822       43.265     4664.703     7365.395     1871.839        0.968        0.695       65.895       44.984        0.466      351.462       33.386      860.164
08/18/2013  16:29:00       59.768        3.048       44.386       80.859       55.209       39.329     6538.209     3047.998     1546.801        0.834        0.557       59.846       43.035        0.517      351.042       32.655      860.170
08/18/2013  16:30:00       97.583     -161.288      -25.091       61.286       53.872       31.574     3755.943     2902.157      996.907        2.191        0.383      188.511       29.023        0.024      351.500       33.449      860.167
08/18/2013  16:31:00       54.846     -111.624      -12.845       52.539       74.044       40.748     2760.316     5482.524     1660.372        1.277        0.495      124.371       43.387        0.122      351.476       33.409      860.171
08/18/2013  16:32:00       10.129      -49.473        8.196       37.570       55.111       33.275     1411.511     3037.220     1107.202        0.409        0.278       50.499       26.143        0.268      351.282       33.073      860.175
08/18/2013  16:33:00       -2.793      -20.938       25.700       21.270       39.265       25.286      452.416     1541.759      639.400        0.187        0.132       21.124       15.230        0.520      351.456       33.375      860.170
08/18/2013  16:34:00       29.446      -45.845       19.488       46.154       59.117       32.970     2130.175     3494.813     1087.028        0.503        0.336       54.487       36.605        0.451      351.406       33.288      860.171
08/18/2013  16:35:00       97.100     -180.492       -5.477       35.849       42.412       22.489     1285.174     1798.796      505.775        2.281        0.179      204.953       16.167        0.006      351.601       33.627      860.164
08/18/2013  16:36:00       30.035      -72.805       -2.238       43.501       47.632       30.092     1892.365     2268.851      905.542        0.564        0.253       78.757       21.273        0.073      351.579       33.592      860.161
08/18/2013  16:37:00       22.568      -18.423       15.333       37.245       31.534       26.960     1387.155      994.417      726.859        0.210        0.155       29.133       19.423        0.445      351.398       33.274      860.159
08/18/2013  16:38:00       42.769      -76.296       18.040       37.844       61.499       29.686     1432.183     3782.102      881.234        0.703        0.305       87.466       32.324        0.137      351.566       33.568      860.158
08/18/2013  16:39:00       41.158      -40.341       13.511       33.700       42.979       29.250     1135.704     1847.182      855.581        0.367        0.192       57.631       26.939        0.218      351.668       33.746      860.158
08/18/2013  16:40:00       13.092       -3.087       -1.697       25.816       17.854       22.259      666.482      318.776      495.453        0.083        0.074       13.451       14.286        1.128      350.909       32.422      860.155
08/18/2013  16:41:00       -8.874       26.830       35.225       25.312       24.932       29.131      640.701      621.594      848.632        0.207        0.106       28.260       25.029        0.784      350.668       32.004      860.153
08/18/2013  16:42:00      104.832      -43.024        9.816       66.158       55.297       33.319     4376.881     3057.761     1110.126        1.074        0.427      113.317       15.051        0.018      350.709       32.075      860.147
08/18/2013  16:43:00       80.970      -80.253       13.597       66.489       97.236       38.868     4420.809     9454.921     1510.742        1.428        0.769      114.003       43.219        0.144      351.526       33.497      860.141
08/18/2013  16:44:00       57.385     -113.190       -7.302       58.600       72.833       47.443     3433.987     5304.685     2250.841        1.357        0.549      126.905       50.052        0.156      351.610       33.643      860.133
08/18/2013  16:45:00        5.963      -25.490       31.692       37.085       67.404       35.035     1375.292     4543.294     1227.452        0.442        0.357       26.178       43.223        2.726      351.679       33.765      860.136
08/18/2013  16:46:00       19.788      -20.447       35.022       30.636       39.065       25.765      938.562     1526.105      663.817        0.258        0.156       28.455       22.546        0.628      351.559       33.555      860.130
08/18/2013  16:47:00       13.392        9.651       38.568       26.914       45.703       17.310      724.376     2088.738      299.622        0.244        0.156       16.507       17.982        1.187      351.194       32.918      860.137
08/18/2013  16:48:00       46.075      -86.083        1.373       43.454       68.876       34.456     1888.260     4743.937     1187.183        0.868        0.391       97.638       23.567        0.058      351.287       33.081      860.135
08/18/2013  16:49:00       63.618      -47.200       -0.750       35.060       48.580       20.933     1229.188     2360.036      438.174        0.515        0.201       79.215       12.599        0.025      351.035       32.643      860.129
08/18/2013  16:50:00       54.305      -26.929       24.609       58.666       66.619       41.711     3441.661     4438.143     1739.816        0.695        0.481       60.615       44.421        0.537      351.618       33.658      860.117
08/18/2013  16:51:00       26.734       24.119       42.099       43.986       39.062       29.741     1934.742     1525.874      884.519        0.371        0.217       36.006       28.981        0.648      351.052       32.672      860.114
08/18/2013  16:52:00       -4.020      -43.882       35.365       49.736       53.821       42.166     2473.686     2896.651     1777.971        0.517        0.357       44.066       18.562        0.177      351.433       33.335      860.110
08/18/2013  16:53:00       36.062      -36.396       15.426       59.622       69.762       31.977     3554.806     4866.797     1022.555        0.615        0.472       51.237       36.375        0.504      351.250       33.017      860.109
08/18/2013  16:54:00       18.806        8.867       23.809       28.851       20.283       23.276      832.363      411.391      541.789        0.139        0.089       20.791       18.918        0.828      350.930       32.460      860.111
08/18/2013  16:55:00        8.365      -16.142       14.702       22.744       35.061       20.418      517.295     1229.285      416.911        0.135        0.108       18.180       14.990        0.680      351.279       33.067      860.107
08/18/2013  16:56:00       13.585      -90.767        8.913       31.915       41.499       23.525     1018.591     1722.130      553.417        0.590        0.165       91.778       20.509        0.050      352.042       34.399      860.107
08/18/2013  16:57:00       47.643      -23.910       12.833       43.126       50.543       30.627     1859.867     2554.640      937.997        0.418        0.268       53.306       28.286        0.282      351.471       33.402      860.101
08/18/2013  16:58:00        3.111       60.996       -0.678       48.129       68.019       37.633     2316.359     4626.630     1416.262        0.604        0.418       61.075       16.661        0.074      351.730       33.854      860.082
08/18/2013  16:59:00      144.656       97.866       32.004       98.955       79.581       53.902     9792.029     6333.089     2905.453        2.528        0.952      174.651       39.233        0.050      351.829       34.025      860.069
08/18/2013  17:00:00      131.963       63.171       58.651       70.053       45.561       47.421     4907.371     2075.789     2248.754        1.704        0.462      146.304       24.319        0.028      351.494       33.442      860.067
08/18/2013  17:01:00       56.116       36.190       50.219       64.017       55.436       45.823     4098.219     3073.172     2099.769        0.812        0.464       66.773       34.932        0.274      351.173       32.884      860.070
08/18/2013  17:02:00       61.977       69.016       50.795       65.992       40.679       46.240     4354.880     1654.766     2138.138        0.966        0.407       92.760       35.692        0.148      351.120       32.789      860.058
08/18/2013  17:03:00       41.767       29.551       42.716       44.190       43.718       41.289     1952.772     1911.235     1704.782        0.500        0.278       51.164       40.553        0.628      351.164       32.867      860.058
08/18/2013  17:04:00       56.671        3.768       21.513       48.418       53.606       39.634     2344.274     2873.642     1570.833        0.524        0.339       56.797       28.112        0.245      351.257       33.030      860.057
08/18/2013  17:05:00      112.838       96.173       76.647       89.320       54.576       63.400     7978.065     2978.531     4019.572        2.141        0.749      148.262       48.047        0.105      351.235       32.988      860.055
08/18/2013  17:06:00       78.315       38.483       48.282       77.963       59.015       46.501     6078.228     3482.767     2162.378        1.083        0.586       87.259       40.446        0.215      351.262       33.038      860.060
08/18/2013  17:07:00       40.095       29.140       19.595       34.928       24.383       26.080     1219.937      594.531      680.149        0.267        0.125       49.566       14.161        0.082      351.348       33.189      860.049
08/18/2013  17:08:00      147.187      112.025       33.385      100.921       82.558       61.076    10184.985     6815.853     3730.270        2.803        1.037      184.969       50.920        0.076      351.223       32.969      860.044
08/18/2013  17:09:00      195.671      115.033       27.250       55.442       55.200       47.501     3073.866     3047.087     2256.300        3.032        0.419      226.979       32.490        0.020      351.590       33.607      860.041
08/18/2013  17:10:00       94.062       33.024        9.722       49.138       50.944       24.460     2414.506     2595.279      598.306        0.782        0.280       99.691       19.853        0.040      351.767       33.919      860.042
08/18/2013  17:11:00      134.596      101.172       67.098      101.237       65.481       38.325    10248.956     4287.818     1468.802        2.443        0.800      168.380       28.092        0.028      351.436       33.337      860.042
08/18/2013  17:12:00      212.051      144.816       52.520       71.507       55.238       43.297     5113.236     3051.288     1874.651        3.937        0.502      256.782       28.234        0.012      351.591       33.608      860.033
08/18/2013  17:13:00      124.168       55.435       13.546       94.098       77.300       43.416     8854.342     5975.255     1884.938        1.769        0.836      135.980       46.633        0.118      351.646       33.706      860.027
08/18/2013  17:14:00       24.667        4.719       21.069       39.631       46.712       25.882     1570.582     2182.030      669.868        0.275        0.221       25.114       21.863        0.758      351.423       33.317      860.030
08/18/2013  17:15:00       76.227       55.971       61.150       53.789       76.279       52.224     2893.244     5818.417     2727.393        1.206        0.572       94.569       55.744        0.347      350.959       32.511      860.029
08/18/2013  17:16:00       64.081       69.228       51.305       81.273       44.000       49.089     6605.320     1936.030     2409.743        1.124        0.548       94.334       50.881        0.291      350.944       32.482      860.029
08/18/2013  17:17:00       45.830       33.246       31.985       61.106       44.778       31.366     3734.004     2005.071      983.810        0.547        0.336       56.619       16.420        0.084      351.218       32.962      860.049
08/18/2013  17:18:00       83.070       25.596        4.526       53.594       39.872       36.617     2872.274     1589.807     1340.800        0.669        0.290       86.924       24.989        0.083      350.570       31.834      860.058
08/18/2013  17:19:00       80.912      -20.516       20.575       24.539       32.452       33.447      602.164     1053.114     1118.674        0.508        0.139       83.473        9.404        0.013      351.016       32.611      860.070
08/18/2013  17:20:00       77.552       -6.701        5.586       28.710       24.154       26.777      824.290      583.406      716.988        0.411        0.106       77.841       19.780        0.065      351.325       33.148      860.071
08/18/2013  17:21:00       48.658      -40.060       10.582       53.861       52.997       27.720     2901.023     2808.726      768.386        0.528        0.324       63.026       30.535        0.235      351.478       33.416      860.068
08/18/2013  17:22:00       40.378      -48.972       20.362       41.180       48.937       41.264     1695.760     2394.798     1702.700        0.512        0.290       63.471       35.784        0.318      351.535       33.513      860.069
08/18/2013  17:23:00       12.378      -19.847       13.574       20.991       40.054       24.748      440.603     1604.312      612.483        0.169        0.133       23.391       26.613        1.294      351.595       33.618      860.070
08/18/2013  17:24:00       38.668       27.886       22.744       36.870       37.377       21.695     1359.382     1397.064      470.676        0.301        0.161       47.674       22.823        0.229      350.792       32.221      860.078
08/18/2013  17:25:00       55.126      -17.286       11.295       47.803       35.745       27.209     2285.090     1277.732      740.338        0.388        0.215       57.772       28.380        0.241      350.694       32.048      860.080
08/18/2013  17:26:00       75.624       -6.201        9.049       38.015       29.268       27.587     1445.125      856.617      761.063        0.445        0.153       75.878       25.252        0.111      350.680       32.024      860.077
08/18/2013  17:27:00        9.751       27.218       40.504       23.162       22.152       18.512      536.474      490.707      342.694        0.192        0.068       28.912       17.381        0.361      350.232       31.243      860.091
08/18/2013  17:28:00       19.731       -9.863       16.323       18.531       19.202       19.472      343.406      368.707      379.172        0.092        0.055       22.059       15.112        0.469      351.271       33.054      860.103
08/18/2013  17:29:00       -4.066        2.582        6.230       11.268       18.133       10.135      126.961      328.815      102.715        0.031        0.028        4.816        9.163        3.620      351.261       33.037      860.095
08/18/2013  17:30:00       -2.391       12.988       19.522       11.611       18.523       22.090      134.817      343.097      487.965        0.076        0.048       13.207       17.612        1.778      351.233       32.989      860.090
08/18/2013  17:31:00       11.835        2.311       23.606       20.194       18.430       12.340      407.798      339.662      152.283        0.080        0.045       12.059        2.908        0.058      350.582       31.853      860.092
08/18/2013  17:32:00        8.260        6.515       27.219       22.114       21.717       18.024      489.013      471.631      324.874        0.107        0.064       10.520       17.170        2.664      350.661       31.992      860.101
08/18/2013  17:33:00        8.213      -22.679       -5.315       17.856       16.325       20.443      318.827      266.499      417.922        0.081        0.050       24.121       14.908        0.382      351.508       33.468      860.105
08/18/2013  17:34:00       19.767        2.846        8.053       26.182       19.611       20.926      685.511      384.573      437.902        0.099        0.075       19.970       13.068        0.428      350.805       32.242      860.103
08/18/2013  17:35:00       -2.082       11.519       22.694        9.858       16.645        9.374       97.186      277.067       87.865        0.056        0.023       11.705        2.518        0.046      350.557       31.809      860.103
08/18/2013  17:36:00       -9.798        9.334        7.793       13.905       15.813        9.344      193.339      250.063       87.317        0.039        0.027       13.532        4.451        0.108      350.911       32.427      860.116
08/18/2013  17:37:00      -27.451        1.295        2.207       15.350       11.892       10.911      235.623      141.430      119.055        0.063        0.025       27.482       10.199        0.138      351.391       33.264      860.127
08/18/2013  17:38:00       -8.586        3.828       -1.340       22.333       21.230       17.270      498.741      450.706      298.239        0.067        0.062        9.401       14.356        2.332      351.383       33.249      860.137
08/18/2013  17:39:00      -18.098      -57.040        9.361       19.626       20.423       12.613      385.195      417.118      159.090        0.231        0.048       59.842        7.615        0.016      351.491       33.438      860.158
08/18/2013  17:40:00      -89.456      -37.702       -1.828       31.561       21.437       16.073      996.117      459.540      258.334        0.557        0.086       97.076       17.209        0.031      351.426       33.322      860.180
08/18/2013  17:41:00     -138.546      -55.424        0.738       59.576       39.638       20.889     3549.312     1571.133      436.353        1.391        0.278      149.221       23.356        0.024      351.525       33.496      860.218
08/18/2013  17:42:00     -138.045      -82.085       -2.361       91.667       50.448       41.020     8402.848     2545.048     1682.674        1.921        0.632      160.606       39.212        0.060      351.658       33.728      860.243
08/18/2013  17:43:00     -296.057     -134.256        2.734      115.236       98.174       62.111    13279.376     9638.185     3857.747        6.622        1.339      325.076       57.823        0.032      351.702       33.803      860.276
08/18/2013  17:44:00     -401.589     -214.845       -8.334      208.110      162.526       94.741    43309.759    26414.862     8975.900       14.309        3.935      455.447      108.775        0.057      351.497       33.446      860.342
08/18/2013  17:45:00     -378.673     -180.225      -20.275      218.079      146.919       85.447    47558.628    21585.088     7301.158       12.635        3.822      419.373      103.296        0.061      351.130       32.804      860.365
08/18/2013  17:46:00     -265.897      -18.540       -0.330      162.367      118.867       71.414    26363.141    14129.373     5099.966        5.831        2.280      266.542       64.171        0.058      351.196       32.918      860.345
08/18/2013  17:47:00     -283.583     -170.542       -8.941      189.403      136.010       81.910    35873.626    18498.732     6709.258        8.532        3.054      330.914       99.816        0.091      351.093       32.739      860.306
08/18/2013  17:48:00     -340.363     -211.052      -26.235      170.173      170.147       67.857    28958.681    28950.028     4604.623       11.179        3.126      400.487       53.922        0.018      351.040       32.646      860.260
08/18/2013  17:49:00     -541.625     -241.512      -20.073      278.556      202.752      104.436    77593.178    41108.423    10906.846       24.083        6.480      593.031      128.887        0.047      350.948       32.486      860.215
08/18/2013  17:50:00     -573.435     -183.384      -21.918      227.452      196.686      116.350    51734.438    38685.471    13537.418       23.343        5.198      602.044      118.160        0.039      350.921       32.441      860.212
08/18/2013  17:51:00     -497.957     -308.646      -29.376      284.797      240.787      113.531    81109.596    57978.339    12889.249       24.801        7.599      585.853      119.791        0.042      350.887       32.382      860.175
08/18/2013  17:52:00     -506.944     -211.970        3.185      280.284      272.209      124.941    78559.259    74097.935    15610.150       23.507        8.413      549.476      147.714        0.072      350.877       32.364      860.141
08/18/2013  17:53:00     -491.735     -200.460      -20.408      302.906      215.677      120.602    91752.060    46516.516    14544.960       21.758        7.641      531.025      149.177        0.079      350.859       32.332      860.149
08/18/2013  17:54:00     -507.282     -185.103       -4.102      259.838      206.457      114.275    67515.686    42624.638    13058.880       20.739        6.160      539.999      130.685        0.059      350.877       32.365      860.169
08/18/2013  17:55:00     -416.059     -173.832       12.315      274.364      211.983      121.718    75275.367    44936.811    14815.346       16.923        6.751      450.913      141.805        0.099      350.860       32.334      860.197
08/18/2013  17:56:00     -419.087     -292.583      -18.645      264.558      190.194      107.495    69990.917    36173.656    11555.271       18.963        5.886      511.116      123.058        0.058      350.839       32.300      860.204
08/18/2013  17:57:00     -455.491     -199.831      -16.875      234.596      185.838       92.298    55035.356    34535.791     8518.988       17.287        4.905      497.398       93.238        0.035      350.864       32.340      860.230
08/18/2013  17:58:00     -429.658     -118.080       -6.888      301.515      192.779      119.078    90911.586    37163.790    14179.548       17.040        7.113      445.588      139.780        0.098      350.819       32.263      860.263
08/18/2013  17:59:00     -386.993     -100.159      -15.917      243.203      158.112       85.961    59147.888    24999.407     7389.314       12.578        4.577      399.744      108.265        0.073      350.831       32.285      860.272
08/18/2013  18:00:00     -276.596     -118.109       19.183      236.366      158.462       93.324    55868.837    25110.129     8709.385        9.024        4.484      300.757      118.280        0.155      350.827       32.278      860.262
08/18/2013  18:01:00     -159.121      -76.368        5.634      133.246      112.698       63.177    17754.484    12700.941     3991.342        3.281        1.722      176.498       67.069        0.144      350.875       32.362      860.252
08/18/2013  18:02:00     -165.114      -41.034       10.745      120.624       83.493       47.918    14550.190     6971.098     2296.168        2.644        1.191      170.137       46.930        0.076      350.943       32.480      860.268
08/18/2013  18:03:00     -146.009     -145.044        0.782      171.359      145.679       90.302    29363.995    21222.421     8154.521        5.054        2.937      205.807       80.884        0.154      350.870       32.353      860.268
08/18/2013  18:04:00     -321.194     -260.605        5.687      246.420      197.345      109.819    60722.692    38945.177    12060.319       14.140        5.586      413.619      135.614        0.108      350.712       32.075      860.224
08/18/2013  18:05:00     -304.470     -245.493       -4.625      300.230      208.682      115.372    90138.096    43548.380    13310.653       14.997        7.350      391.112      133.058        0.116      350.695       32.047      860.187
08/18/2013  18:06:00     -333.007      -64.244       24.523      284.192      174.053      120.552    80764.970    30294.585    14532.711       12.059        6.280      339.148      142.198        0.176      350.706       32.066      860.144
08/18/2013  18:07:00     -525.642     -242.964      -12.668      252.265      189.387       98.150    63637.841    35867.310     9633.363       22.230        5.457      579.077      106.308        0.034      350.673       32.008      860.145
08/18/2013  18:08:00     -445.606     -132.240       -4.252      272.774      246.025      113.443    74405.791    60528.176    12869.421       18.191        7.390      464.815      130.572        0.079      350.660       31.986      860.114
08/18/2013  18:09:00     -496.473     -191.515        5.146      235.792      242.451      108.051    55598.049    58782.715    11674.960       20.460        6.303      532.131      122.562        0.053      350.665       31.993      860.102
08/18/2013  18:10:00     -464.516     -213.630      -17.529      261.024      155.659      102.113    68133.705    24229.582    10427.144       18.224        5.140      511.286      120.290        0.055      350.635       31.941      860.096
08/18/2013  18:11:00     -510.491     -285.999      -22.348      298.695      230.334      120.021    89218.559    53053.557    14405.118       24.976        7.834      585.147      129.395        0.049      350.573       31.833      860.066
08/18/2013  18:12:00     -542.020     -331.338      -25.008      209.653      195.278      112.609    43954.457    38133.484    12680.708       24.947        4.738      635.272      108.200        0.029      350.589       31.861      860.033
08/18/2013  18:13:00     -447.897     -154.203      -32.314      218.600      130.365       88.552    47786.096    16995.127     7841.422       14.902        3.631      473.699      101.094        0.046      350.618       31.911      860.055
08/18/2013  18:14:00     -371.118     -178.352      -28.377      230.633      205.781      102.943    53191.717    42345.676    10597.203       13.822        5.307      411.750      121.492        0.087      350.608       31.896      860.056
08/18/2013  18:15:00     -469.585     -235.542      -23.085      247.203      209.316      105.670    61109.243    43813.075    11166.177       19.629        5.804      525.348      122.753        0.055      350.574       31.836      860.053
08/18/2013  18:16:00     -506.210     -249.002      -20.977      198.313      181.241      101.261    39327.981    32848.147    10253.839       20.055        4.121      564.137       70.656        0.016      350.565       31.818      860.053
08/18/2013  18:17:00     -388.569      -83.609      -10.784      241.878      131.975       82.695    58505.137    17417.383     6838.469       12.041        4.138      397.462       95.807        0.058      350.612       31.902      860.101
08/18/2013  18:18:00     -502.359     -115.153      -24.709      292.191      170.766      101.263    85375.583    29161.181    10254.285       19.549        6.240      515.388      122.913        0.057      350.548       31.790      860.107
08/18/2013  18:19:00     -445.428     -160.928      -16.637      198.400      150.429       87.530    39362.376    22628.789     7661.444       14.710        3.483      473.607       88.710        0.035      350.553       31.797      860.120
08/18/2013  18:20:00     -443.090     -126.113      -13.458      273.015      161.763       94.563    74536.986    26167.362     8942.096       16.101        5.482      460.687      118.904        0.067      350.531       31.761      860.107
08/18/2013  18:21:00     -396.189     -185.690       -8.040      250.008      189.236      101.963    62504.000    35810.148    10396.393       15.009        5.436      437.546      127.027        0.084      350.519       31.740      860.101
08/18/2013  18:22:00     -459.391     -134.755      -26.173      287.070      178.133      105.045    82409.163    31731.330    11034.472       17.751        6.259      478.747      135.470        0.080      350.489       31.688      860.107
08/18/2013  18:23:00     -538.778      -86.403      -29.205      327.279      180.203      102.545   107111.596    32473.284    10515.445       22.433        7.505      545.662      136.229        0.062      350.489       31.687      860.107
08/18/2013  18:24:00     -292.731     -100.202       -5.514      161.914      175.497       98.640    26216.104    30799.216     9729.842        8.124        3.337      309.406       76.967        0.062      350.500       31.705      860.102
08/18/2013  18:25:00     -353.762     -153.769        8.021      307.241      167.842      123.282    94396.742    28170.814    15198.438       14.329        6.888      385.736      136.373        0.125      350.461       31.638      860.101
08/18/2013  18:26:00     -458.989     -141.543      -11.306      266.601      229.994       97.855    71076.151    52897.110     9575.675       18.217        6.677      480.317      119.883        0.062      350.446       31.613      860.129
08/18/2013  18:27:00     -411.789      -62.592      -24.659      213.646      146.120       93.696    45644.620    21351.003     8778.965       12.492        3.789      416.519       97.741        0.055      350.443       31.608      860.138
08/18/2013  18:28:00     -396.775     -184.994      -10.038      231.999      158.511       91.629    53823.587    25125.750     8395.869       13.954        4.367      437.782      115.918        0.070      350.429       31.583      860.134
08/18/2013  18:29:00     -221.282      -95.514       -7.598      128.018      117.637       76.250    16388.657    13838.531     5813.994        4.709        1.802      241.016       28.418        0.014      350.501       31.707      860.128
08/18/2013  18:30:00     -308.770     -164.149       -2.720      294.567      194.678       95.004    86769.868    37899.621     9025.715       12.797        6.685      349.691      133.498        0.146      350.395       31.527      860.119
08/18/2013  18:31:00     -402.531     -260.880      -38.995      263.308      173.650       98.754    69331.352    30154.188     9752.270       17.041        5.462      479.676      117.331        0.060      350.389       31.516      860.090
08/18/2013  18:32:00     -226.744     -114.755       25.754      219.966      190.134      106.904    48384.876    36151.017    11428.543        8.059        4.798      254.129      113.944        0.201      350.382       31.504      860.101
08/18/2013  18:33:00     -307.370     -121.260        3.560      232.901      204.970      119.691    54242.928    42012.640    14325.869       10.987        5.529      330.425      140.070        0.180      350.373       31.487      860.101
08/18/2013  18:34:00     -463.484     -197.480      -15.986      175.010      184.954       85.052    30628.621    34208.135     7233.778       16.306        3.604      503.801       76.947        0.023      350.360       31.466      860.159
08/18/2013  18:35:00     -306.146     -144.660       -9.712      196.149      155.309       86.819    38474.518    24120.761     7537.477        9.243        3.507      338.603       84.675        0.063      350.361       31.467      860.172
08/18/2013  18:36:00     -342.561     -112.734       -5.943      288.250      210.100       90.870    83088.234    44141.902     8257.442       13.277        6.774      360.634      129.393        0.129      350.329       31.410      860.171
08/18/2013  18:37:00     -508.631     -192.431      -39.830      175.020      183.571       81.176    30632.026    33698.342     6589.481       18.411        3.546      543.815       91.103        0.028      350.328       31.408      860.139
08/18/2013  18:38:00     -259.889      -56.409       18.220      208.368      191.979      106.521    43417.132    36855.778    11346.759        8.132        4.581      265.940      113.442        0.182      350.336       31.422      860.134
08/18/2013  18:39:00     -418.502     -197.194      -13.671      238.634      205.482       94.537    56946.027    42222.651     8937.160       16.114        5.405      462.633       87.695        0.036      350.325       31.403      860.116
08/18/2013  18:40:00     -455.278      -32.299       -9.488      256.457      167.970      106.025    65770.105    28214.001    11241.225       15.680        5.261      456.423      115.747        0.064      350.312       31.381      860.146
08/18/2013  18:41:00     -439.330     -165.187       -0.849      277.430      163.034      106.076    76967.453    26580.028    11252.022       16.753        5.740      469.359      106.021        0.051      350.288       31.338      860.163
08/18/2013  18:42:00     -366.382      -53.671      -21.577      164.474      113.220       73.658    27051.582    12818.691     5425.530        9.143        2.265      370.293       76.569        0.043      350.313       31.384      860.184
08/18/2013  18:43:00     -338.009      -74.439       -5.681      205.496      125.720       69.268    42228.525    15805.636     4798.005        9.132        3.142      346.109       70.619        0.042      350.315       31.387      860.207
08/18/2013  18:44:00     -403.457     -153.152      -12.362      249.741      151.088       77.925    62370.599    22827.514     6072.263       13.881        4.564      431.548       97.297        0.051      350.284       31.333      860.206
08/18/2013  18:45:00     -270.804      -48.310        3.821      160.948      138.713       73.537    25904.255    19241.233     5407.725        6.311        2.528      275.079       77.337        0.079      350.242       31.260      860.251
08/18/2013  18:46:00     -508.553      -51.842      -27.981      145.533      139.237       75.147    21179.892    19386.834     5647.067       15.415        2.311      511.188       70.264        0.019      350.284       31.334      860.288
08/18/2013  18:47:00     -268.673       -3.156       -8.489      167.886      119.932       57.754    28185.754    14383.631     3335.504        5.908        2.295      268.691       41.348        0.024      350.301       31.361      860.301
08/18/2013  18:48:00     -493.645     -108.066      -13.851      269.032      186.888       94.693    72378.087    34927.189     8966.793       18.589        5.814      505.335      102.237        0.041      350.248       31.269      860.274
08/18/2013  18:49:00     -474.632      -60.371      -31.067      188.094      186.126       89.398    35379.176    34642.720     7992.061       15.394        3.901      478.456       83.417        0.030      350.235       31.246      860.255
08/18/2013  18:50:00     -495.993     -122.449       -4.810      203.977      204.928       99.214    41606.413    41995.688     9843.489       17.722        4.672      510.884      101.592        0.040      350.227       31.233      860.241
08/18/2013  18:51:00     -445.870      -47.552        2.504      216.976      147.676       89.956    47078.382    21808.063     8091.999       13.901        3.849      448.399      103.663        0.053      350.226       31.230      860.265
08/18/2013  18:52:00     -206.134     -149.711       -4.658      116.512      115.370       66.698    13575.106    13310.143     4448.634        4.812        1.567      254.764       61.362        0.058      350.245       31.263      860.289
08/18/2013  18:53:00     -251.152     -128.347       -0.314      175.504      145.240       85.631    30801.789    21094.729     7332.698        6.938        2.961      282.046      102.035        0.131      350.229       31.237      860.272
08/18/2013  18:54:00     -372.460     -190.632       -1.369      212.290      189.398       96.297    45067.157    35871.488     9273.156       13.263        4.511      418.410      104.322        0.062      350.212       31.205      860.264
08/18/2013  18:55:00     -305.184     -184.257      -10.045      200.738      168.256      101.104    40295.628    28310.128    10221.924       10.300        3.941      356.494      115.600        0.105      350.179       31.149      860.260
08/18/2013  18:56:00     -387.305      -87.132      -21.264      298.868      189.695       99.372    89321.895    35984.083     9874.729       14.659        6.759      396.985      121.115        0.093      350.184       31.158      860.277
08/18/2013  18:57:00     -270.305     -102.367       25.854      192.372      155.259       80.666    37007.157    24105.364     6506.988        7.590        3.381      289.040       87.566        0.092      350.177       31.146      860.306
08/18/2013  18:58:00     -433.272     -203.157      -31.414      332.030      169.427      109.621   110243.703    28705.616    12016.782       19.045        7.548      478.537      155.260        0.105      350.158       31.113      860.335
08/18/2013  18:59:00     -393.623     -265.458       -0.381      295.613      211.831      119.651    87386.991    44872.168    14316.350       18.597        7.329      474.771      135.633        0.082      350.125       31.055      860.351
08/18/2013  19:00:00     -484.067     -230.281      -41.921      203.671      218.288       84.640    41481.789    47649.683     7163.899       19.269        4.815      536.050       93.054        0.030      350.150       31.099      860.365
08/18/2013  19:01:00     -336.794     -121.779      -12.092      159.242      151.972       61.523    25358.001    23095.399     3785.028        9.031        2.612      358.134       48.762        0.019      350.133       31.067      860.401
08/18/2013  19:02:00     -191.929      -32.217        4.228      103.600      103.534       48.026    10733.023    10719.240     2306.516        3.082        1.188      194.615       62.310        0.103      350.103       31.017      860.408
08/18/2013  19:03:00     -226.420      -77.132      -11.085      143.442      132.857       67.249    20575.643    17651.078     4522.373        5.004        2.137      239.197       69.281        0.084      350.129       31.063      860.422
08/18/2013  19:04:00     -190.108      -65.112       16.717      169.795      128.023       66.277    28830.273    16389.891     4392.623        4.513        2.481      200.950       88.845        0.195      350.068       30.959      860.449
08/18/2013  19:05:00     -248.622      -38.121       -3.472      106.050      127.416       55.310    11246.621    16234.778     3059.227        4.690        1.527      251.527       57.584        0.052      350.122       31.050      860.453
08/18/2013  19:06:00     -340.114      -67.486       -8.060      153.811      116.238       53.882    23657.682    13511.201     2903.318        8.018        2.004      346.744       60.169        0.030      350.093       30.998      860.464
08/18/2013  19:07:00     -135.162      -72.791        6.207      159.127      141.129       73.513    25321.501    19917.531     5404.123        3.712        2.532      153.517       69.996        0.208      350.076       30.970      860.458
08/18/2013  19:08:00     -272.310      -78.491       -5.304      138.601      155.196       72.265    19210.147    24085.866     5222.298        6.442        2.426      283.397       80.300        0.080      350.085       30.985      860.489
08/18/2013  19:09:00     -392.769      -71.316      -23.157      149.233      141.189       66.436    22270.459    19934.466     4413.746       10.325        2.331      399.191       73.625        0.034      350.067       30.954      860.513
08/18/2013  19:10:00     -256.698     -121.774       -5.411      159.946      124.841       82.426    25582.854    15585.263     6794.002        6.435        2.398      284.117       73.556        0.067      350.038       30.904      860.532
08/18/2013  19:11:00     -286.014     -130.521       -3.946      171.138      137.747       73.364    29288.051    18974.196     5382.235        7.624        2.682      314.388       79.578        0.064      350.045       30.916      860.562
08/18/2013  19:12:00     -311.319      -72.235       -9.518      184.456      150.363       78.496    34023.952    22608.937     6161.664        8.250        3.140      319.589       86.445        0.073      350.002       30.838      860.584
08/18/2013  19:13:00     -509.095      -32.818      -25.486      160.649      131.038       73.582    25808.209    17171.035     5414.269       15.464        2.420      510.152       79.486        0.024      350.027       30.884      860.619
08/18/2013  19:14:00     -187.800      -44.801        3.149      149.641      113.462       52.422    22392.368    12873.600     2748.044        3.764        1.901      193.070       62.024        0.103      350.039       30.905      860.638
08/18/2013  19:15:00     -298.201      -89.108        2.806      180.030      124.695       79.424    32410.638    15548.957     6308.184        7.556        2.713      311.230       88.537        0.081      350.018       30.868      860.650
08/18/2013  19:16:00     -541.379     -127.625      -23.234      218.157      147.741       90.240    47592.375    21827.477     8143.343       19.373        3.878      556.219       99.856        0.032      350.012       30.858      860.625
08/18/2013  19:17:00     -312.684      -33.807      -12.257      176.314      142.582       74.943    31086.458    20329.485     5616.440        7.804        2.852      314.506       86.520        0.076      349.951       30.755      860.657
08/18/2013  19:18:00     -362.057      -54.686       -4.394      171.270      116.028       69.383    29333.256    13462.605     4813.976        9.084        2.380      366.163       73.696        0.041      349.973       30.791      860.665
08/18/2013  19:19:00     -287.441      -15.291        6.252      179.837      130.165       81.127    32341.210    16942.854     6581.527        6.937        2.793      287.848       85.599        0.088      349.919       30.699      860.656
08/18/2013  19:20:00     -428.454      -37.386      -27.819      193.282      125.018       88.524    37357.918    15629.614     7836.460       12.327        3.041      430.082      113.503        0.070      349.966       30.781      860.660
08/18/2013  19:21:00     -255.859      -56.454      -15.446      141.168       90.826       57.332    19928.337     8249.320     3286.968        5.017        1.573      262.013       60.769        0.054      349.935       30.726      860.678
08/18/2013  19:22:00     -293.655     -105.630        4.421      181.517      134.898       70.314    32948.288    18197.500     4944.014        7.674        2.804      312.076       76.842        0.061      349.932       30.722      860.683
08/18/2013  19:23:00     -280.488     -111.971        5.875      155.926      130.488       65.293    24312.836    17027.201     4263.163        6.842        2.280      302.012       83.122        0.076      349.904       30.671      860.686
08/18/2013  19:24:00     -239.883      -51.296        7.873      206.444      173.811       96.620    42619.162    30210.215     9335.342        7.119        4.108      245.307      114.564        0.218      349.904       30.672      860.661
08/18/2013  19:25:00     -428.454     -286.038        2.389      269.725      192.541      103.079    72751.588    37071.997    10625.248       19.290        6.022      515.160      136.381        0.070      349.908       30.680      860.676
08/18/2013  19:26:00     -465.498     -151.923        1.895      218.113      150.616       86.930    47573.411    22685.129     7556.878       15.878        3.891      489.662       98.852        0.041      349.898       30.661      860.691
08/18/2013  19:27:00     -246.098      -50.253        5.122      129.378      137.414       65.989    16738.666    18882.603     4354.598        5.154        1.999      251.177       65.379        0.068      349.877       30.626      860.710
08/18/2013  19:28:00     -258.815       10.976       -0.993      133.621      115.825       59.422    17854.539    13415.419     3530.973        5.095        1.740      259.047       56.814        0.048      349.869       30.611      860.709
08/18/2013  19:29:00     -187.267      -70.625        2.088      109.386       95.808       58.287    11965.389     9179.190     3397.356        3.230        1.227      200.142       56.889        0.081      349.837       30.558      860.723
08/18/2013  19:30:00     -296.751      -70.175      -27.828      158.453       85.127       66.071    25107.284     7246.626     4365.352        6.523        1.836      304.936       75.319        0.061      349.849       30.574      860.718
08/18/2013  19:31:00     -386.680      -45.026      -12.261      203.797      148.904       84.100    41533.332    22172.322     7072.839       11.123        3.539      389.293      102.803        0.070      349.827       30.538      860.702
08/18/2013  19:32:00     -474.704      -38.765      -32.612      173.627      145.146       75.865    30146.505    21067.264     5755.562       14.243        2.848      476.284       85.637        0.032      349.811       30.509      860.705
08/18/2013  19:33:00     -468.447      -21.901      -35.831      214.437      109.845       78.084    45983.275    12065.815     6097.130       14.267        3.207      468.958       79.826        0.029      349.825       30.533      860.706
08/18/2013  19:34:00     -301.798      -13.448      -12.501      163.062      100.721       68.257    26589.198    10144.732     4658.983        6.640        2.070      302.098       86.859        0.083      349.742       30.391      860.691
08/18/2013  19:35:00     -305.546      -80.569      -13.772      183.922      148.146       76.195    33827.444    21947.234     5805.744        8.080        3.079      315.990       97.737        0.096      349.742       30.390      860.689
08/18/2013  19:36:00     -371.233     -193.343      -28.755      144.251      139.208       82.114    20808.276    19378.926     6742.676       11.147        2.346      418.563       61.589        0.022      349.756       30.415      860.689
08/18/2013  19:37:00     -271.511      -53.137       -5.649      152.812      129.276       68.674    23351.524    16712.319     4716.142        6.067        2.239      276.662       64.029        0.054      349.732       30.374      860.727
08/18/2013  19:38:00     -174.532      -94.499       26.402      168.070      122.073       68.908    28247.670    14901.812     4748.274        4.399        2.395      198.473       79.774        0.162      349.661       30.250      860.761
08/18/2013  19:39:00     -302.371      -71.495      -13.955      125.499      111.873       60.662    15750.073    12515.639     3679.939        6.433        1.597      310.709       59.666        0.037      349.746       30.396      860.805
08/18/2013  19:40:00     -284.630      -12.049       -9.832      113.641      101.845       65.245    12914.178    10372.385     4256.910        5.440        1.377      284.885       59.608        0.044      349.725       30.359      860.821
08/18/2013  19:41:00     -255.044      -32.326       11.191      154.015      100.158       69.314    23720.504    10031.649     4804.432        5.238        1.928      257.085       79.777        0.096      349.716       30.345      860.838
08/18/2013  19:42:00     -317.452      -71.276       -7.151      132.741      139.532       74.756    17620.207    19469.308     5588.511        7.429        2.134      325.356       71.806        0.049      349.720       30.351      860.852
08/18/2013  19:43:00     -423.301      -22.925       -8.893      205.538      128.972       89.580    42245.739    16633.718     8024.656       12.333        3.345      423.921      105.560        0.062      349.720       30.351      860.856
08/18/2013  19:44:00     -358.156      -63.705      -16.234      151.272      120.702       74.242    22883.093    14568.948     5511.948        8.777        2.148      363.777       74.557        0.042      349.732       30.371      860.883
08/18/2013  19:45:00     -253.547      -82.386       -4.310      171.955      131.311       66.215    29568.686    17242.485     4384.443        6.114        2.560      266.597       72.268        0.073      349.685       30.291      860.874
08/18/2013  19:46:00     -332.334      -30.926      -12.978      148.948       98.302       62.031    22185.528     9663.199     3847.824        7.363        1.785      333.770       75.603        0.051      349.670       30.263      860.898
08/18/2013  19:47:00     -333.366      -37.516       -6.307      190.196      125.633       85.393    36174.496    15783.725     7291.934        8.591        2.963      335.470       99.183        0.087      349.646       30.223      860.906
08/18/2013  19:48:00     -321.255      -51.657        1.769      182.929      117.092       88.475    33462.930    13710.627     7827.818        8.043        2.750      325.382       94.398        0.084      349.690       30.299      860.908
08/18/2013  19:49:00     -379.401      -10.939      -28.246      133.003      100.562       58.782    17689.805    10112.776     3455.338        8.805        1.563      379.558       69.522        0.034      349.707       30.328      860.911
08/18/2013  19:50:00     -200.138        4.648        8.274      131.986       94.044       59.263    17420.424     8844.288     3512.077        3.496        1.489      200.192       60.958        0.093      349.593       30.132      860.904
08/18/2013  19:51:00     -307.301     -100.912       -4.235      163.135      131.720       69.166    26612.954    17350.040     4783.990        7.668        2.437      323.446       69.779        0.047      349.654       30.237      860.886
08/18/2013  19:52:00     -252.309      -85.493       -4.583      107.508       98.392       56.735    11557.976     9680.968     3218.847        4.772        1.223      266.400       53.803        0.041      349.647       30.224      860.896
08/18/2013  19:53:00     -255.224     -113.353        5.338      137.220      116.749       59.940    18829.252    13630.376     3592.778        5.703        1.803      279.263       56.807        0.041      349.621       30.179      860.883
08/18/2013  19:54:00     -268.631      -16.707       -1.775      143.724      119.140       58.476    20656.660    14194.233     3419.420        5.535        1.914      269.150       58.082        0.047      349.596       30.138      860.886
08/18/2013  19:55:00     -194.685      -93.250        6.074      154.159      101.165       59.104    23764.958    10234.382     3493.284        4.206        1.875      215.866       61.930        0.082      349.535       30.032      860.878
08/18/2013  19:56:00     -299.677      -74.599       -7.571       98.586      111.542       50.819     9719.131    12441.676     2582.588        6.008        1.237      308.823       52.619        0.029      349.590       30.127      860.885
08/18/2013  19:57:00     -305.724     -108.170      -15.550      120.072       80.208       55.932    14417.311     6433.291     3128.414        6.469        1.199      324.296       53.276        0.027      349.570       30.092      860.880
08/18/2013  19:58:00     -382.993     -112.898       -0.534      206.085      147.846       77.137    42470.902    21858.385     5950.122       11.484        3.514      399.286       86.296        0.047      349.579       30.106      860.891
08/18/2013  19:59:00     -177.757      -56.486        6.854      121.239      105.915       61.677    14698.864    11217.955     3804.004        3.227        1.486      186.516       58.403        0.098      349.566       30.086      860.909
08/18/2013  20:00:00     -246.891     -103.507       -3.366      170.646      136.086       69.832    29120.155    18519.484     4876.551        6.209        2.626      267.710       83.868        0.098      349.568       30.089      860.915
08/18/2013  20:01:00     -214.286      -43.079        1.405      173.518      111.662       66.102    30108.648    12468.354     4369.491        4.735        2.347      218.573       67.948        0.097      349.556       30.068      860.910
08/18/2013  20:02:00     -248.824      -25.176       -2.327      111.911       76.798       57.687    12524.003     5898.008     3327.789        4.215        1.087      250.095       55.218        0.049      349.535       30.031      860.909
08/18/2013  20:03:00     -265.509     -143.386       -3.085      130.698      110.391       72.406    17081.900    12186.167     5242.653        6.278        1.726      301.752       82.737        0.075      349.537       30.035      860.902
08/18/2013  20:04:00     -262.116      -58.387       -1.105      155.283      146.619       72.923    24112.775    21497.016     5317.741        6.151        2.546      268.541       80.940        0.091      349.501       29.972      860.900
08/18/2013  20:05:00     -183.812     -116.199       15.440      191.015      120.416       82.848    36486.790    14499.941     6863.710        5.268        2.893      217.461       99.707        0.210      349.474       29.927      860.901
08/18/2013  20:06:00     -367.552     -109.328      -21.925      133.001      140.021       74.796    17689.308    19605.982     5594.404        9.520        2.144      383.467       75.683        0.039      349.539       30.038      860.906
08/18/2013  20:07:00     -295.422      -83.369       -5.096      158.031       93.625       64.991    24973.818     8765.704     4223.772        6.610        1.898      306.960       70.991        0.053      349.502       29.974      860.921
08/18/2013  20:08:00     -419.252      -62.113      -21.497      119.952      142.213       64.601    14388.578    20224.678     4173.243       10.943        1.939      423.828       62.680        0.022      349.528       30.019      860.919
08/18/2013  20:09:00     -230.367     -136.455        5.737      124.517      135.625       69.451    15504.366    18394.124     4823.394        5.522        1.936      267.748       72.168        0.073      349.437       29.862      860.913
08/18/2013  20:10:00     -262.628       13.964       -1.260      102.865       70.075       47.700    10581.286     4910.453     2275.277        4.347        0.888      262.999       46.925        0.032      349.429       29.847      860.922
08/18/2013  20:11:00     -238.783      -36.729        0.133      119.143       85.776       52.541    14195.149     7357.528     2760.598        4.134        1.216      241.591       49.978        0.043      349.446       29.877      860.905
08/18/2013  20:12:00     -328.563      -89.650      -26.655      107.325      118.707       55.479    11518.582    14091.297     3077.894        7.269        1.434      340.574       38.699        0.013      349.472       29.920      860.916
08/18/2013  20:13:00     -253.612      -38.462        2.285      151.019       90.255       64.435    22806.733     8145.880     4151.861        5.045        1.755      256.512       64.714        0.064      349.391       29.782      860.934
08/18/2013  20:14:00     -307.809      -41.662      -15.818      154.232      116.204       70.812    23787.578    13503.445     5014.407        6.951        2.115      310.616       67.004        0.047      349.439       29.865      860.951
08/18/2013  20:15:00     -341.465      -75.465       -8.771      193.397      123.441       60.057    37402.242    15237.760     3606.854        8.930        2.812      349.704       76.198        0.047      349.462       29.905      860.947
08/18/2013  20:16:00     -350.269     -112.553      -26.998      136.046      109.865       69.698    18508.624    12070.253     4857.776        8.575        1.772      367.908       67.114        0.033      349.450       29.883      860.960
08/18/2013  20:17:00     -318.990      -72.023      -21.068      155.739      121.798       71.681    24254.714    14834.843     5138.218        7.580        2.211      327.020       78.984        0.058      349.459       29.899      860.990
08/18/2013  20:18:00     -307.639        7.504      -16.702      127.056       92.334       59.031    16143.120     8525.562     3484.659        6.156        1.408      307.730       67.241        0.048      349.411       29.815      860.999
08/18/2013  20:19:00     -298.226      -73.570      -12.916       90.009       61.734       42.188     8101.682     3811.067     1779.815        5.410        0.685      307.166       42.476        0.019      349.420       29.830      860.984
08/18/2013  20:20:00     -265.003      -59.187        1.708      114.373       98.070       60.108    13081.163     9617.753     3612.955        5.002        1.316      271.532       64.835        0.057      349.394       29.786      861.006
08/18/2013  20:21:00     -322.215       -5.493      -20.057      121.490      104.788       59.050    14759.702    10980.469     3486.892        6.674        1.461      322.262       54.654        0.029      349.399       29.793      861.008
08/18/2013  20:22:00     -314.937       50.335      -24.622       90.042       70.287       44.196     8107.586     4940.215     1953.250        5.866        0.750      318.934       45.520        0.020      349.376       29.753      861.006
08/18/2013  20:23:00     -246.274      -47.913       -7.627       79.420       72.005       43.115     6307.568     5184.785     1858.891        3.818        0.668      250.891       39.402        0.025      349.332       29.678      860.985
08/18/2013  20:24:00     -257.669      -52.850      -17.598       96.404      107.984       51.572     9293.818    11660.572     2659.633        4.655        1.181      263.033       46.519        0.031      349.308       29.636      860.962
08/18/2013  20:25:00     -219.032      -65.361      -10.507       74.975       59.520       38.744     5621.211     3542.687     1501.091        3.151        0.533      228.577       36.434        0.025      349.316       29.650      860.962
08/18/2013  20:26:00     -229.583      -56.286       -0.726      122.527       96.891       62.819    15012.817     9387.826     3946.200        4.211        1.417      236.382       67.747        0.082      349.267       29.567      860.955
08/18/2013  20:27:00     -291.828      -71.055      -11.066      129.596       75.196       55.181    16795.117     5654.401     3044.979        5.791        1.275      300.354       65.059        0.047      349.346       29.702      860.951
08/18/2013  20:28:00     -379.270      -86.693      -19.860      100.130      102.899       58.847    10026.001    10588.155     3462.926        8.791        1.204      389.052       48.271        0.015      349.347       29.705      860.947
08/18/2013  20:29:00     -408.029      -91.248      -33.555      112.629       89.156       59.573    12685.363     7948.822     3548.954       10.006        1.209      418.107       50.793        0.015      349.392       29.780      860.942
08/18/2013  20:30:00     -448.590     -179.513      -17.805      155.551      125.763       81.094    24196.201    15816.235     6576.170       14.017        2.329      483.175       73.795        0.023      349.383       29.767      860.948
08/18/2013  20:31:00     -374.136      -18.991      -43.255      150.503      139.507       49.372    22651.190    19462.264     2437.626        9.337        2.228      374.618       37.193        0.010      349.395       29.786      860.950
08/18/2013  20:32:00     -302.349     -133.170      -20.444      158.186      114.461       70.911    25022.805    13101.274     5028.370        7.635        2.158      330.378       68.304        0.043      349.358       29.723      860.971
08/18/2013  20:33:00     -179.680      -42.229       -1.471      118.170       94.119       45.699    13964.185     8858.340     2088.358        2.949        1.246      184.576       56.851        0.095      349.238       29.517      860.985
08/18/2013  20:34:00     -238.920      -37.568      -13.411       72.304       75.202       43.936     5227.891     5655.293     1930.405        3.574        0.641      241.856       41.558        0.030      349.249       29.536      861.005
08/18/2013  20:35:00     -193.748      -21.164      -11.670      128.592       74.198       54.792    16535.815     5505.380     3002.111        3.158        1.252      194.900       65.182        0.112      349.255       29.544      861.013
08/18/2013  20:36:00     -389.682      -45.479      -11.355      122.061      118.507       66.156    14899.008    14043.916     4376.561        9.368        1.666      392.327       68.210        0.030      349.299       29.621      861.015
08/18/2013  20:37:00     -263.146      -74.175       -5.065      120.844      117.820       53.277    14603.229    13881.506     2838.438        5.304        1.566      273.400       55.546        0.041      349.250       29.538      861.010
08/18/2013  20:38:00     -212.549      -56.626       11.211      131.878      120.768       67.594    17391.722    14584.790     4568.909        4.252        1.827      219.963       73.981        0.113      349.208       29.465      861.025
08/18/2013  20:39:00     -224.331      -56.375       -6.132      176.780      103.421       74.416    31251.338    10695.824     5537.768        5.050        2.374      231.306       84.342        0.133      349.215       29.477      861.006
08/18/2013  20:40:00     -234.804      -92.642      -15.951      125.971       82.709       47.188    15868.589     6840.727     2226.748        4.445        1.247      252.420       44.971        0.032      349.271       29.573      861.025
08/18/2013  20:41:00     -241.551      -64.748       -8.729      107.219      104.539       52.525    11495.822    10928.486     2758.892        4.390        1.259      250.078       51.254        0.042      349.254       29.544      861.032
08/18/2013  20:42:00     -170.524      -63.560      -11.396      142.327       95.694       58.196    20257.045     9157.323     3386.812        3.302        1.640      181.984       67.046        0.136      349.205       29.459      861.055
08/18/2013  20:43:00     -301.860      -19.002      -21.660       92.664       75.642       46.144     8586.663     5721.647     2129.293        5.419        0.822      302.457       39.449        0.017      349.295       29.614      861.073
08/18/2013  20:44:00     -241.212        0.582      -13.454      127.334       88.354       51.662    16213.901     7806.403     2668.931        4.252        1.334      241.213       63.447        0.069      349.210       29.467      861.077
08/18/2013  20:45:00     -294.866      -58.163      -15.954       62.374       75.472       34.050     3890.522     5695.987     1159.407        5.066        0.537      300.547       24.604        0.007      349.281       29.590      861.094
08/18/2013  20:46:00     -242.683      -12.923      -19.847       76.417       76.713       45.221     5839.550     5884.837     2044.897        3.661        0.688      243.027       48.451        0.040      349.248       29.534      861.096
08/18/2013  20:47:00     -208.885      -12.655      -15.038       76.175       75.732       39.704     5802.581     5735.300     1576.444        2.856        0.656      209.268       37.396        0.032      349.181       29.419      861.102
08/18/2013  20:48:00     -290.015      -51.458      -30.817      106.496       79.256       40.441    11341.436     6281.486     1635.486        5.348        0.963      294.545       47.212        0.026      349.192       29.437      861.146
08/18/2013  20:49:00     -289.183       -3.661      -24.193       79.396       91.821       37.866     6303.680     8431.049     1433.861        5.019        0.808      289.206       36.219        0.016      349.197       29.445      861.147
08/18/2013  20:50:00     -381.165      -13.101      -39.036      101.581       98.118       54.009    10318.716     9627.199     2916.959        8.492        1.143      381.390       49.030        0.017      349.244       29.526      861.166
08/18/2013  20:51:00     -371.785      -74.902      -26.892      107.878       90.502       63.720    11637.636     8190.632     4060.210        8.422        1.194      379.255       62.948        0.028      349.229       29.500      861.169
08/18/2013  20:52:00     -169.820      -67.603       16.354      101.615      106.649       52.099    10325.691    11374.001     2714.334        2.904        1.221      182.781       58.088        0.101      349.177       29.410      861.167
08/18/2013  20:53:00     -302.063     -179.780       -4.870      174.510      112.621       80.005    30453.784    12683.543     6400.846        8.655        2.477      351.515       91.321        0.067      349.256       29.548      861.173
08/18/2013  20:54:00     -178.112      -51.810       -2.581      128.932       98.983       50.149    16623.584     9797.643     2514.900        3.167        1.447      185.495       61.280        0.109      349.243       29.526      861.193
08/18/2013  20:55:00     -191.577      -71.344        4.301      107.445       80.529       50.022    11544.349     6484.997     2502.181        3.117        1.027      204.430       54.528        0.071      349.258       29.553      861.219
08/18/2013  20:56:00     -219.420     -168.355        1.279      134.037      111.847       63.913    17965.822    12509.760     4084.935        5.552        1.728      276.565       69.320        0.063      349.295       29.614      861.268
08/18/2013  20:57:00     -179.164      -71.868      -10.708      111.435       68.542       45.910    12417.854     4698.060     2107.714        2.830        0.961      193.040       48.272        0.063      349.295       29.616      861.312
08/18/2013  20:58:00     -111.210      -23.022       -6.804       91.384      100.219       43.758     8351.015    10043.870     1914.728        1.662        1.015      113.568       39.335        0.120      349.242       29.524      861.348
08/18/2013  20:59:00     -208.143       19.047       -1.267      106.145       72.953       44.835    11266.752     5322.106     2010.186        3.114        0.930      209.012       51.908        0.062      349.240       29.523      861.415
08/18/2013  21:00:00     -132.437       10.526       -3.916       73.249       50.941       36.891     5365.394     2595.034     1360.964        1.349        0.466      132.854       42.180        0.101      349.228       29.502      861.467
08/18/2013  21:01:00     -166.580      -52.776      -20.600       40.141       45.733       22.699     1611.301     2091.492      515.265        1.759        0.211      174.740       20.698        0.014      349.206       29.464      861.517
08/18/2013  21:02:00     -126.820      -25.048       -7.000       40.905       30.982       20.425     1673.180      959.869      417.171        0.990        0.153      129.270       23.264        0.032      349.158       29.380      861.563
08/18/2013  21:03:00      -21.006       15.584       16.070       22.538       21.755       18.575      507.965      473.262      345.030        0.113        0.066       26.156       14.633        0.313      348.765       28.700      861.581
08/18/2013  21:04:00      -87.824      -33.206        5.247       59.983       38.725       26.341     3597.959     1499.650      693.857        0.732        0.290       93.892       30.768        0.107      349.082       29.248      861.607
08/18/2013  21:05:00     -158.617      -77.396        0.055       96.375       59.116       37.484     9288.194     3494.646     1405.069        2.267        0.709      176.492       44.267        0.063      349.362       29.733      861.643
08/18/2013  21:06:00      -80.226      -67.757       -0.339       72.575       40.786       27.029     5267.200     1663.520      730.582        0.934        0.383      105.010       25.028        0.057      349.330       29.680      861.689
08/18/2013  21:07:00      -47.675      -72.255        8.479       67.257       45.220       27.546     4523.503     2044.883      758.761        0.745        0.366       86.566       33.485        0.150      349.285       29.600      861.731
08/18/2013  21:08:00      -65.754      -62.423        5.256       51.367       40.112       21.228     2638.564     1608.977      450.648        0.647        0.235       90.665       26.481        0.085      349.334       29.685      861.771
08/18/2013  21:09:00      -58.129        6.436       -1.711       40.010       24.790       18.290     1600.769      614.563      334.523        0.299        0.127       58.484       17.648        0.091      349.208       29.467      861.818
08/18/2013  21:10:00       28.160       -2.895        5.297       61.079       28.988       21.901     3730.631      840.308      479.645        0.294        0.253       28.308        7.407        0.068      348.735       28.650      861.870
08/18/2013  21:11:00       91.785       31.968       23.597       36.192       47.777       33.988     1309.830     2282.668     1155.167        0.737        0.237       97.193       22.496        0.054      348.063       27.486      861.953
08/18/2013  21:12:00      179.630      113.726       44.910       50.357       44.211       42.292     2535.780     1954.596     1788.631        2.675        0.314      212.604       19.000        0.008      348.361       27.997      861.997
08/18/2013  21:13:00      121.503      105.203       94.760       80.081       69.566       61.268     6412.991     4839.414     3753.806        2.491        0.750      160.719       45.878        0.081      348.317       27.923      862.012
08/18/2013  21:14:00      157.500      102.007       81.155       88.665       57.045       50.074     7861.491     3254.172     2507.403        2.771        0.681      187.647       42.695        0.052      348.138       27.613      862.057
08/18/2013  21:15:00      155.739       77.345       75.607       80.522       63.921       55.641     6483.720     4085.952     3095.923        2.481        0.683      173.887       40.595        0.055      348.362       28.001      862.088
08/18/2013  21:16:00      156.481      119.216       59.777       94.554       62.185       57.887     8940.380     3866.921     3350.906        2.921        0.808      196.720       37.725        0.037      348.611       28.430      862.114
08/18/2013  21:17:00      126.959       99.092       75.852       80.444       57.072       47.165     6471.291     3257.162     2224.505        2.182        0.598      161.052       35.263        0.048      348.604       28.420      862.140
08/18/2013  21:18:00       88.128       69.421       68.887       62.275       50.911       40.726     3878.203     2591.902     1658.599        1.273        0.406      112.187       22.337        0.040      348.600       28.414      862.157
08/18/2013  21:19:00      116.061       96.034       84.155       78.246       60.203       43.490     6122.364     3624.461     1891.412        2.070        0.582      150.641       32.101        0.045      348.493       28.227      862.158
08/18/2013  21:20:00       80.312      -23.333       40.854       58.090       71.504       56.702     3374.444     5112.804     3215.133        1.018        0.585       83.633       54.065        0.418      348.353       27.987      862.181
08/18/2013  21:21:00       26.242        4.283        6.481       28.743       27.403       23.157      826.150      750.924      536.243        0.143        0.106       26.589       11.117        0.175      348.149       27.634      862.176
08/18/2013  21:22:00       13.217      -10.035       16.200       35.069       65.552       43.157     1229.844     4297.128     1862.534        0.396        0.369       16.595       37.836        5.198      348.137       27.614      862.196
08/18/2013  21:23:00       47.702      -19.698       -2.164       26.697       38.728       22.794      712.723     1499.873      519.589        0.270        0.137       51.609       19.769        0.147      348.294       27.886      862.199
08/18/2013  21:24:00       19.983       11.264       19.223       14.559       17.766       10.453      211.954      315.636      109.266        0.077        0.032       22.939        1.668        0.005      348.361       28.001      862.205
08/18/2013  21:25:00       -2.464       -1.936        1.295       16.872       14.597       11.875      284.680      213.068      141.027        0.033        0.032        3.133       11.046       12.426      348.241       27.793      862.207
08/18/2013  21:26:00        1.545        4.740        8.310       15.106       19.698       12.779      228.182      388.029      163.302        0.044        0.039        4.986       13.289        7.105      348.108       27.564      862.218
08/18/2013  21:27:00      -46.569      -14.781        2.693       28.774       26.380       12.450      827.927      695.911      155.000        0.204        0.084       48.858       17.985        0.136      348.452       28.160      862.227
08/18/2013  21:28:00      -65.930      -68.791       -6.976       38.457       29.465       17.245     1478.951      868.213      297.398        0.589        0.132       95.284       20.560        0.047      348.649       28.497      862.256
08/18/2013  21:29:00      -86.778     -101.226      -12.322       22.631       25.090       22.885      512.170      629.507      523.718        0.980        0.083      133.331       15.450        0.013      348.946       29.015      862.269
08/18/2013  21:30:00      -70.004      -95.777       -8.294       44.774       33.359       18.288     2004.691     1112.847      334.436        0.880        0.173      118.633        9.669        0.007      348.983       29.077      862.288
08/18/2013  21:31:00      -74.186      -81.691       -5.928       36.325       30.124       12.764     1319.531      907.476      162.918        0.730        0.119      110.350       16.770        0.023      349.012       29.126      862.289
08/18/2013  21:32:00      -92.893        5.210       -5.324       23.069       21.436       15.730      532.163      459.498      247.428        0.496        0.062       93.039       15.722        0.029      348.819       28.793      862.281
08/18/2013  21:33:00      -63.351       17.909       -1.901       23.052       15.781       14.739      531.375      249.046      217.246        0.267        0.050       65.834       13.984        0.045      348.639       28.482      862.279
08/18/2013  21:34:00      -80.727       -1.383       -2.718       24.054       32.603       17.136      578.601     1062.943      293.626        0.423        0.097       80.739       16.696        0.043      348.668       28.533      862.297
08/18/2013  21:35:00      -83.805      -12.321       -1.003       18.642       14.569       10.535      347.518      212.241      110.989        0.392        0.034       84.706        8.810        0.011      348.555       28.335      862.327
08/18/2013  21:36:00      -64.900       -8.596        0.405       34.146       24.508       16.163     1165.979      600.619      261.254        0.316        0.101       65.467       16.116        0.061      348.414       28.093      862.321
08/18/2013  21:37:00      -33.366      -24.594       11.594       42.157       33.103       23.314     1777.215     1095.831      543.528        0.263        0.171       41.451       23.602        0.324      348.225       27.766      862.323
08/18/2013  21:38:00     -111.550      -70.879        0.401       42.940       36.903       27.402     1843.847     1361.847      750.859        1.071        0.198      132.163       25.987        0.039      348.425       28.111      862.345
08/18/2013  21:39:00      -79.374      -41.178        7.831       67.142       41.634       27.890     4507.996     1733.359      777.831        0.754        0.351       89.419       30.055        0.113      348.545       28.320      862.357
08/18/2013  21:40:00      -81.138      -50.771        4.413       45.269       72.207       35.993     2049.325     5213.921     1295.529        0.887        0.428       95.714       35.104        0.135      348.836       28.823      862.353
08/18/2013  21:41:00      -41.701      -23.364       15.110       39.845       40.737       28.495     1587.656     1659.484      811.938        0.329        0.203       47.800       29.793        0.388      348.624       28.456      862.330
08/18/2013  21:42:00      -21.978      -29.943       -8.009       47.625       30.545       23.523     2268.107      933.003      553.335        0.260        0.188       37.143       25.824        0.483      348.901       28.934      862.331
08/18/2013  21:43:00      -52.055      -19.901        3.093       25.535       31.455       16.021      652.060      989.404      256.661        0.251        0.095       55.729       12.914        0.054      348.850       28.849      862.328
08/18/2013  21:44:00       40.172      -31.298        4.520       62.454       25.838       17.363     3900.446      667.623      301.464        0.374        0.243       50.925       13.048        0.066      348.259       27.826      862.335
08/18/2013  21:45:00       17.268       -7.436       11.249       26.937       27.080       19.268      725.584      733.323      371.240        0.115        0.092       18.801       17.544        0.871      348.330       27.947      862.348
08/18/2013  21:46:00       23.510       -9.058        6.578       27.448       22.952       15.589      753.370      526.775      243.019        0.110        0.076       25.195       16.430        0.425      348.331       27.948      862.357
08/18/2013  21:47:00       38.923        4.216       21.923       34.548       19.793       19.386     1193.558      391.779      375.809        0.199        0.098       39.150       10.951        0.078      347.881       27.171      862.363
08/18/2013  21:48:00       39.621        2.576       29.581       35.763       21.707       27.879     1278.992      471.198      777.244        0.249        0.126       39.705       21.627        0.297      347.610       26.704      862.375
08/18/2013  21:49:00       63.198       19.474       -7.295       30.360       28.907       21.842      921.715      835.611      477.053        0.333        0.112       66.130       17.860        0.073      348.035       27.437      862.382
08/18/2013  21:50:00       48.336       12.643       -5.598       13.446       20.545       12.193      180.789      422.099      148.681        0.164        0.038       49.962        3.425        0.005      348.833       28.819      862.387
08/18/2013  21:51:00       18.590       59.532       -0.328       22.775       34.710       18.897      518.681     1204.750      357.110        0.298        0.104       62.367       17.001        0.074      348.453       28.162      862.384
08/18/2013  21:52:00       61.300       32.650       25.232       27.178       21.421       16.130      738.639      458.878      260.189        0.346        0.073       69.453       10.364        0.022      348.317       27.925      862.403
08/18/2013  21:53:00       78.959       55.185       26.431       39.667       27.149       21.421     1573.454      737.051      458.854        0.637        0.138       96.332        7.816        0.007      348.512       28.262      862.399
08/18/2013  21:54:00       97.584       51.329       19.289       26.801       27.063       18.996      718.314      732.431      360.838        0.717        0.091      110.260       11.853        0.012      348.881       28.901      862.409
08/18/2013  21:55:00       66.660       47.837       12.539       35.496       35.345       26.360     1259.946     1249.265      694.835        0.505        0.160       82.048       18.291        0.050      348.626       28.458      862.426
08/18/2013  21:56:00       98.130       59.516       16.237       34.375       28.720       26.825     1181.640      824.846      719.590        0.808        0.136      114.768        6.903        0.004      348.114       27.575      862.430
08/18/2013  21:57:00       66.344       38.945       17.282       36.277       28.109       24.065     1316.015      790.111      579.109        0.445        0.134       76.930       18.269        0.056      348.602       28.416      862.431
08/18/2013  21:58:00       99.400       57.854       24.183       31.530       28.832       28.330      994.150      831.311      802.569        0.822        0.131      115.010        8.654        0.006      348.268       27.840      862.446
08/18/2013  21:59:00       93.313       57.840       24.093       32.272       34.590       31.460     1041.500     1196.499      989.732        0.793        0.161      109.785       11.840        0.012      348.224       27.766      862.458
08/18/2013  22:00:00       74.832       59.279       46.159       32.297       29.862       22.356     1043.069      891.717      499.775        0.684        0.122       95.466        3.725        0.002      348.196       27.716      862.487
08/18/2013  22:01:00       79.682       46.359       26.764       33.357       26.577       27.212     1112.670      706.311      740.474        0.589        0.128       92.187       11.872        0.017      347.854       27.126      862.492
08/18/2013  22:02:00       23.758       19.466       31.938       26.724       17.152       15.411      714.190      294.181      237.514        0.160        0.062       30.714       11.976        0.152      347.717       26.886      862.498
08/18/2013  22:03:00        8.333       21.490       11.658       27.031       22.281       22.197      730.672      496.430      492.699        0.119        0.086       23.049       17.210        0.557      347.831       27.085      862.511
08/18/2013  22:04:00        6.190       16.539       11.847       19.158       16.432       21.133      367.011      270.005      446.604        0.077        0.054       17.659       14.739        0.697      347.658       26.786      862.513
08/18/2013  22:05:00       -9.966       27.458        4.545       13.367       15.305       12.419      178.674      234.243      154.229        0.072        0.028       29.211        3.288        0.013      348.079       27.515      862.516
08/18/2013  22:06:00       10.063       15.023       12.538       15.473       25.687       11.827      239.407      659.798      139.889        0.076        0.052       18.082        8.523        0.222      347.850       27.118      862.527
08/18/2013  22:07:00       -7.252       35.735        0.478       15.544       32.336        8.767      241.614     1045.602       76.858        0.135        0.068       36.463       11.572        0.101      348.092       27.536      862.524
08/18/2013  22:08:00       -0.602       27.213        9.610       14.808       23.752        6.727      219.281      564.166       45.256        0.083        0.041       27.220        8.487        0.097      347.882       27.176      862.521
08/18/2013  22:09:00       33.587       19.183       14.777       28.976       20.175       16.794      839.612      407.049      282.047        0.162        0.076       38.679        7.671        0.039      347.517       26.544      862.529
08/18/2013  22:10:00       15.536       44.012        9.483       19.657       22.901       15.961      386.387      524.434      254.748        0.172        0.058       46.674       15.489        0.110      348.105       27.557      862.523
08/18/2013  22:11:00        7.829       68.061        1.329       27.446       40.106       21.600      753.257     1608.510      466.562        0.376        0.141       68.510       18.782        0.075      348.366       28.010      862.516
08/18/2013  22:12:00       26.508       36.497        9.249       29.499       29.672       24.610      870.220      880.413      605.656        0.224        0.118       45.108       18.567        0.169      348.219       27.755      862.514
08/18/2013  22:13:00       30.095       30.888        9.953       22.385       16.267       15.075      501.096      264.605      227.266        0.148        0.050       43.125       11.072        0.066      348.200       27.720      862.496
08/18/2013  22:14:00       66.493       37.755       27.961       34.187       21.454       17.232     1168.777      460.266      296.948        0.428        0.096       76.464       14.499        0.036      348.218       27.754      862.504
08/18/2013  22:15:00       86.924       52.394       18.175       27.836       25.596       20.275      774.848      655.165      411.070        0.624        0.092      101.493        8.638        0.007      347.923       27.246      862.506
08/18/2013  22:16:00       56.170       45.586       14.646       24.856       30.862       28.653      617.830      952.435      820.981        0.392        0.120       72.340       11.916        0.027      347.680       26.825      862.508
08/18/2013  22:17:00       41.964       28.558       19.108       31.975       18.048       21.017     1022.406      325.732      441.707        0.237        0.089       50.760        8.672        0.029      347.546       26.596      862.510
08/18/2013  22:18:00       46.858       31.774       27.313       22.750       20.585       22.023      517.573      423.739      485.013        0.269        0.071       56.615       10.121        0.032      347.573       26.641      862.501
08/18/2013  22:19:00       20.729       22.721        5.392       28.330       18.480       15.908      802.605      341.501      253.062        0.119        0.070       30.756       13.548        0.194      347.689       26.841      862.497
08/18/2013  22:20:00      -17.036        1.139       -2.141       25.892       16.878       13.420      670.384      284.882      180.094        0.072        0.057       17.074       10.467        0.376      347.721       26.895      862.505
08/18/2013  22:21:00      -46.477        8.338       -0.825       13.912       12.534        8.056      193.535      157.094       64.896        0.132        0.021       47.219        5.448        0.013      347.897       27.201      862.510
08/18/2013  22:22:00      -44.910      -17.408      -12.337       11.303       13.394        6.636      127.762      179.402       44.040        0.141        0.018       48.166        5.363        0.012      347.752       26.950      862.519
08/18/2013  22:23:00      -40.731      -37.089       -7.415       16.207       10.729        8.776      262.674      115.112       77.013        0.177        0.023       55.087        6.511        0.014      347.666       26.799      862.536
08/18/2013  22:24:00      -82.159      -30.979       -9.192       23.110       15.562        7.821      534.061      242.162       61.163        0.432        0.042       87.805        5.977        0.005      347.451       26.429      862.539
08/18/2013  22:25:00      -91.865      -10.156      -14.965       15.302       11.881        9.413      234.147      141.160       88.607        0.462        0.023       92.425        6.815        0.005      347.394       26.333      862.539
08/18/2013  22:26:00      -86.757      -14.002      -16.001       18.858       22.928       13.331      355.635      525.706      177.721        0.452        0.053       87.880       12.367        0.020      347.417       26.371      862.543
08/18/2013  22:27:00      -97.903      -23.153      -13.596       20.402       16.731       12.606      416.242      279.925      158.903        0.558        0.043      100.603       11.327        0.013      347.356       26.264      862.537
08/18/2013  22:28:00      -89.276      -14.854      -12.472       22.589       21.603       16.790      510.277      466.673      281.907        0.480        0.063       90.504        7.708        0.007      347.348       26.253      862.538
08/18/2013  22:29:00      -63.363      -35.156       -6.655       28.349       24.722       12.674      803.662      611.182      160.620        0.343        0.079       72.462       10.300        0.020      347.293       26.156      862.548
08/18/2013  22:30:00      -27.758      -31.631        3.269       32.453       27.756       21.735     1053.227      770.415      472.393        0.204        0.115       42.083       19.542        0.216      347.206       26.007      862.548
08/18/2013  22:31:00      -70.415      -41.138       -4.065       36.655       26.968       16.505     1343.604      727.261      272.419        0.450        0.117       81.551       18.031        0.049      347.234       26.056      862.556
08/18/2013  22:32:00      -90.460      -24.400       -4.417       25.739       24.452       14.091      662.474      597.902      198.555        0.513        0.073       93.693       12.132        0.017      347.266       26.112      862.558
08/18/2013  22:33:00      -99.214       -4.930       -9.945       27.333       28.890       18.260      747.069      834.658      333.444        0.594        0.096       99.336       12.518        0.016      347.203       26.002      862.549
08/18/2013  22:34:00      -47.136       16.375       11.961       56.564       25.786       28.555     3199.524      664.897      815.388        0.366        0.234       49.900       29.988        0.361      347.068       25.770      862.561
08/18/2013  22:35:00     -102.838       32.081       -1.751       47.768       32.479       23.838     2281.807     1054.908      568.232        0.776        0.195      107.726       20.567        0.036      347.226       26.043      862.558
08/18/2013  22:36:00      -91.812       12.007       -6.991       32.081       28.556       18.280     1029.163      815.455      334.171        0.540        0.109       92.593       12.508        0.018      347.216       26.024      862.556
08/18/2013  22:37:00      -89.353        5.190      -10.762       29.222       27.496       18.090      853.952      756.052      327.254        0.503        0.097       89.503       13.845        0.024      347.259       26.099      862.568
08/18/2013  22:38:00      -51.250      -22.386        1.095       24.621       24.651       22.209      606.202      607.648      493.221        0.242        0.085       55.926        9.201        0.027      347.211       26.016      862.580
08/18/2013  22:39:00      -64.505       -7.613       -6.031       34.281       22.833       13.656     1175.200      521.354      186.489        0.307        0.094       64.953       12.502        0.037      347.122       25.862      862.593
08/18/2013  22:40:00      -80.343      -19.614      -12.261       29.869       31.784       17.627      892.169     1010.206      310.712        0.460        0.111       82.703       11.921        0.021      347.130       25.877      862.621
08/18/2013  22:41:00      -53.603        0.062       -4.922       24.757       20.879       14.903      612.890      435.916      222.087        0.208        0.064       53.603       13.341        0.062      347.082       25.795      862.641
08/18/2013  22:42:00      -26.415      -17.524       -5.878       23.809       21.109       17.167      566.874      445.592      294.717        0.117        0.065       31.699       12.726        0.161      347.106       25.834      862.651
08/18/2013  22:43:00      -24.346      -23.043       -9.737       19.361       17.044       19.415      374.845      290.493      376.942        0.113        0.052       33.522       16.707        0.248      347.217       26.027      862.661
08/18/2013  22:44:00      -47.446       18.988       -1.025       23.791       15.266       15.791      566.029      233.058      249.368        0.183        0.052       51.104        7.141        0.020      347.263       26.107      862.656
08/18/2013  22:45:00      -51.835       -6.624       -1.254       16.669       11.566       11.363      277.856      133.775      129.121        0.164        0.027       52.257        7.484        0.021      347.335       26.228      862.649
08/18/2013  22:46:00      -54.368      -10.232      -10.546       14.238       13.441        9.366      202.716      180.648       87.713        0.182        0.024       55.322        9.870        0.032      347.172       25.950      862.654
08/18/2013  22:47:00      -40.775       -4.625       -7.777       15.562       16.371        8.810      242.162      268.001       77.621        0.117        0.029       41.036        7.226        0.031      347.158       25.925      862.645
08/18/2013  22:48:00      -35.771       19.905       -8.563       20.113       25.151        9.237      404.525      632.566       85.325        0.144        0.056       40.936        9.331        0.052      347.323       26.209      862.629
08/18/2013  22:49:00      -28.395       37.947        1.392       15.975       37.281       13.000      255.195     1389.880      168.988        0.203        0.091       47.395        8.830        0.035      347.324       26.212      862.627
08/18/2013  22:50:00      -43.758      -10.659       -4.497        8.155        7.385        7.460       66.497       54.536       55.659        0.111        0.009       45.038        3.829        0.007      347.207       26.009      862.624
08/18/2013  22:51:00      -62.121       -8.811       -8.842       11.543       10.318        6.814      133.245      106.454       46.432        0.215        0.014       62.743        3.649        0.003      347.177       25.957      862.627
08/18/2013  22:52:00      -68.313       -7.973      -12.945       11.342       14.078        8.256      128.639      198.176       68.169        0.265        0.020       68.777        4.957        0.005      347.194       25.988      862.638
08/18/2013  22:53:00      -57.120      -10.321       -9.246       18.808       12.648       14.143      353.751      159.981      200.013        0.208        0.036       58.045       12.811        0.049      347.251       26.085      862.633
08/18/2013  22:54:00      -56.367       -9.101       -3.787       15.443       12.658       13.047      238.500      160.234      170.212        0.192        0.028       57.097        7.794        0.019      347.120       25.858      862.622
08/18/2013  22:55:00      -56.359       -0.619      -11.784       13.945       11.671        9.405      194.474      136.211       88.446        0.187        0.021       56.362        7.886        0.020      347.170       25.945      862.615
08/18/2013  22:56:00      -50.504        2.599       -9.885       17.853       19.981        8.049      318.724      399.238       64.792        0.172        0.039       50.571        6.676        0.017      347.354       26.263      862.608
08/18/2013  22:57:00      -32.029       85.256       -4.725       14.059       18.603       11.266      197.644      346.080      126.912        0.449        0.034       91.074        6.577        0.005      347.842       27.103      862.589
08/18/2013  22:58:00      -39.024       72.788       -6.170       14.377       15.815       10.946      206.702      250.127      119.815        0.372        0.029       82.590        8.255        0.010      347.777       26.992      862.584
08/18/2013  22:59:00      -41.477       17.798       -5.246       11.044       25.759        7.847      121.971      663.515       61.577        0.146        0.042       45.135        4.979        0.012      347.358       26.270      862.568
08/18/2013  23:00:00      -53.557       -0.761       -3.170       14.094       11.522        6.427      198.641      132.749       41.306        0.163        0.019       53.562        4.880        0.008      347.187       25.974      862.551
08/18/2013  23:01:00      -79.552       -2.890      -12.463       18.796       13.195       10.598      353.299      174.107      112.309        0.357        0.032       79.604       10.589        0.018      346.990       25.636      862.544
08/18/2013  23:02:00      -78.091       -1.616       -9.985       35.362       20.026       14.472     1250.480      401.035      209.451        0.403        0.093       78.108       13.471        0.030      346.938       25.545      862.550
08/18/2013  23:03:00      -87.504       -4.965       -5.705       32.749       22.902       18.153     1072.501      524.503      329.532        0.482        0.096       87.645       15.330        0.031      346.808       25.322      862.539
08/18/2013  23:04:00     -149.984       19.109      -17.455       23.768       24.212       16.788      564.907      586.244      281.839        1.230        0.072      151.196       10.878        0.005      346.922       25.519      862.527
08/18/2013  23:05:00     -121.502       13.315      -20.669       27.988       19.282       16.087      783.307      371.798      258.779        0.839        0.071      122.230       13.465        0.012      346.827       25.354      862.529
08/18/2013  23:06:00      -94.874       14.813      -20.004       28.873       16.056       14.014      833.672      257.785      196.384        0.545        0.064       96.023       14.493        0.023      346.908       25.495      862.534
08/18/2013  23:07:00      -90.913        6.141      -24.042       23.544       16.146       15.577      554.298      260.680      242.646        0.497        0.053       91.121       11.369        0.016      347.000       25.652      862.522
08/18/2013  23:08:00      -91.108       -0.565      -15.835       24.386       14.803       17.580      594.688      219.133      309.044        0.484        0.056       91.110       14.501        0.025      346.999       25.651      862.519
08/18/2013  23:09:00     -104.711        1.178      -17.931       21.488       18.514       13.526      461.755      342.757      182.946        0.614        0.049      104.718        8.712        0.007      347.017       25.682      862.521
08/18/2013  23:10:00      -77.906      -12.502      -17.068       33.445       21.207       13.491     1118.588      449.749      182.019        0.413        0.088       78.903        7.200        0.008      346.936       25.542      862.521
08/18/2013  23:11:00     -105.567        6.210      -12.195       33.177       26.496       15.132     1100.712      702.049      228.985        0.668        0.102      105.749       10.306        0.009      346.850       25.395      862.511
08/18/2013  23:12:00     -143.237       20.666      -16.912       44.645       30.196       20.283     1993.137      911.806      411.380        1.227        0.166      144.720       18.969        0.017      346.820       25.342      862.508
08/18/2013  23:13:00     -173.757       20.638      -17.073       39.975       35.504       20.320     1597.992     1260.519      412.888        1.709        0.164      174.979       14.137        0.007      346.802       25.312      862.510
08/18/2013  23:14:00     -159.857       18.718      -19.683       37.555       41.821       21.374     1410.367     1749.020      456.847        1.495        0.181      160.949       14.893        0.009      346.777       25.269      862.508
08/18/2013  23:15:00     -166.464       34.564      -21.151       50.482       36.430       21.002     2548.464     1327.160      441.102        1.683        0.216      170.015       20.669        0.015      346.811       25.326      862.503
08/18/2013  23:16:00     -159.104       37.751      -15.534       51.530       33.126       26.870     2655.346     1097.308      721.991        1.573        0.224      163.521       22.671        0.019      346.835       25.367      862.511
08/18/2013  23:17:00     -189.914        9.276      -22.192       33.330       34.782       17.817     1110.894     1209.818      317.429        1.964        0.132      190.141       12.604        0.004      346.791       25.292      862.512
08/18/2013  23:18:00     -150.101        5.322      -12.593       50.824       34.558       20.557     2583.111     1194.242      422.581        1.346        0.210      150.195       18.806        0.016      346.768       25.254      862.509
08/18/2013  23:19:00     -165.043       40.677       -9.247       45.678       34.972       25.687     2086.516     1223.074      659.845        1.647        0.198      169.982       18.890        0.012      347.046       25.732      862.525
08/18/2013  23:20:00     -180.043       51.250      -17.839       37.043       38.034       24.193     1372.199     1446.604      585.303        1.938        0.170      187.195       16.629        0.008      347.154       25.917      862.536
08/18/2013  23:21:00     -155.554       36.475      -18.442       26.688       48.115       25.455      712.249     2315.006      647.979        1.477        0.184      159.773       25.301        0.025      347.076       25.781      862.540
08/18/2013  23:22:00     -155.005       37.621      -11.234       36.228       39.607       30.169     1312.504     1568.706      910.145        1.468        0.190      159.505       23.718        0.022      347.223       26.036      862.555
08/18/2013  23:23:00      -87.892       25.487      -10.140       27.708       32.268       20.711      767.731     1041.249      428.939        0.536        0.112       91.513       14.521        0.025      347.204       26.003      862.561
08/18/2013  23:24:00      -64.346       50.069       -0.298       33.230       33.802       25.843     1104.258     1142.563      667.859        0.478        0.146       81.531       15.708        0.037      347.419       26.375      862.557
08/18/2013  23:25:00      -68.238       -8.006       -5.973       33.191       46.338       19.337     1101.662     2147.205      373.908        0.419        0.181       68.706       15.783        0.053      347.358       26.271      862.559
08/18/2013  23:26:00       -3.238        5.442        7.667       10.355       21.256       11.949      107.235      451.826      142.767        0.040        0.035        6.332        6.678        1.112      346.795       25.299      862.546
08/18/2013  23:27:00      -21.230       -8.244        5.073       14.083        9.041        9.873      198.322       81.734       97.482        0.046        0.019       22.775        3.033        0.018      347.019       25.687      862.543
08/18/2013  23:28:00      -42.366      -43.053       -6.666       15.819       23.390       12.435      250.227      547.111      154.640        0.232        0.048       60.402       11.361        0.035      347.128       25.874      862.554
08/18/2013  23:29:00      -42.991      -28.914        3.579       25.599       22.021       13.829      655.334      484.937      191.243        0.201        0.067       51.809       16.097        0.097      347.115       25.850      862.562
08/18/2013  23:30:00      -55.433      -30.849       -5.149       10.715       11.803        9.509      114.806      139.299       90.430        0.220        0.017       63.438        7.010        0.012      347.226       26.042      862.564
08/18/2013  23:31:00      -70.761      -35.100      -10.326       12.188       11.087        9.393      148.552      122.920       88.223        0.335        0.018       78.988        7.670        0.009      347.275       26.126      862.572
08/18/2013  23:32:00      -77.515      -30.815       -6.947       12.049       10.344        8.019      145.169      106.991       64.302        0.366        0.016       83.416        6.724        0.006      347.292       26.153      862.584
08/18/2013  23:33:00      -88.070      -39.429       -2.554       13.879       15.524        7.571      192.629      240.980       57.313        0.490        0.025       96.493        7.435        0.006      347.245       26.073      862.576
08/18/2013  23:34:00      -42.866      -27.707        2.735       27.397       22.066       14.263      750.576      486.893      203.436        0.203        0.072       51.041        8.139        0.025      347.121       25.862      862.573
08/18/2013  23:35:00       -5.373      -24.733       11.642       18.198       21.555       15.117      331.170      464.603      228.533        0.090        0.051       25.310       13.213        0.273      346.991       25.638      862.580
08/18/2013  23:36:00      -28.869      -67.457        0.207       32.891       37.444       20.170     1081.802     1402.071      406.833        0.414        0.145       73.375       20.389        0.077      346.992       25.639      862.580
08/18/2013  23:37:00      -60.589      -92.663       -0.185       44.534       42.845       29.271     1983.266     1835.728      856.798        0.847        0.234      110.713       27.876        0.063      346.893       25.468      862.579
08/18/2013  23:38:00     -109.376      -76.432        0.100       48.501       54.565       30.675     2352.328     2977.355      940.936        1.204        0.314      133.435       27.689        0.043      346.859       25.410      862.575
08/18/2013  23:39:00     -130.784      -80.309       -5.102       43.861       37.850       25.996     1923.745     1432.599      675.779        1.381        0.202      153.473       18.957        0.015      346.868       25.426      862.579
08/18/2013  23:40:00     -151.697      -94.525       -0.509       37.127       44.447       26.710     1378.424     1975.543      713.398        1.801        0.203      178.737       26.925        0.023      346.942       25.553      862.576
08/18/2013  23:41:00     -120.790      -69.227       -0.159       54.815       34.185       26.679     3004.699     1168.626      711.744        1.213        0.244      139.222       22.348        0.026      346.898       25.477      862.573
08/18/2013  23:42:00     -136.722      -66.922        1.235       41.319       30.867       20.618     1707.238      952.788      425.102        1.313        0.154      152.222       20.030        0.017      346.986       25.629      862.561
08/18/2013  23:43:00     -135.369      -41.836        2.011       45.624       33.907       25.615     2081.593     1149.691      656.143        1.198        0.194      141.686       25.226        0.032      347.005       25.661      862.572
08/18/2013  23:44:00     -120.085      -40.664        5.333       47.258       33.044       21.874     2233.285     1091.874      478.477        0.995        0.190      126.783       24.546        0.037      346.987       25.630      862.580
08/18/2013  23:45:00      -81.020      -42.154        8.822       31.301       32.163       21.171      979.766     1034.475      448.200        0.544        0.123       91.330       18.557        0.041      346.957       25.579      862.593
08/18/2013  23:46:00      -28.541      -28.636        8.659       35.351       30.806       16.640     1249.717      949.030      276.898        0.209        0.124       40.430       18.030        0.199      346.743       25.210      862.603
08/18/2013  23:47:00      -26.341      -10.741        7.051       24.462       15.473        9.961      598.390      239.410       99.220        0.090        0.047       28.446        3.775        0.018      346.765       25.248      862.624
08/18/2013  23:48:00        5.594      -43.092       11.289       23.954       33.824       15.409      573.808     1144.073      237.442        0.199        0.098       43.454       12.322        0.080      346.699       25.136      862.645
08/18/2013  23:49:00      -40.620      -99.651        0.798       29.923       26.781       17.000      895.365      717.225      288.998        0.674        0.095      107.611       16.132        0.022      347.040       25.721      862.663
08/18/2013  23:50:00      -33.989      -52.504        3.330       24.391       23.815       16.022      594.900      567.147      256.713        0.267        0.071       62.545       11.488        0.034      347.008       25.665      862.676
08/18/2013  23:51:00      -20.937      -44.632        8.627       15.590       38.351       15.507      243.041     1470.813      240.462        0.223        0.098       49.299        8.511        0.030      347.016       25.680      862.697
08/18/2013  23:52:00      -11.994      -91.830        2.847       17.364       27.384       14.251      301.495      749.856      203.093        0.492        0.063       92.610       11.668        0.016      347.252       26.086      862.718
08/18/2013  23:53:00      -21.697      -85.986        2.262       18.909       36.245       16.792      357.546     1313.714      281.957        0.491        0.098       88.681       12.864        0.021      347.184       25.970      862.726
08/18/2013  23:54:00      -38.130     -110.019        2.130       39.683       51.883       23.181     1574.736     2691.864      537.369        0.918        0.240      116.439       26.569        0.052      347.189       25.978      862.732
08/18/2013  23:55:00      -80.228     -148.642       -6.184       48.297       43.695       26.737     2332.567     1909.272      714.876        1.676        0.248      168.911       24.104        0.020      347.059       25.754      862.754
08/18/2013  23:56:00      -51.580     -125.503       -2.444       38.041       51.439       27.739     1447.148     2645.945      769.439        1.164        0.243      135.689       26.759        0.039      347.006       25.662      862.783
08/18/2013  23:57:00      -64.950     -119.941       -7.203       44.790       47.138       22.592     2006.120     2222.030      510.379        1.170        0.237      136.397       17.905        0.017      346.965       25.591      862.815
08/18/2013  23:58:00      -32.182      -64.222        3.906       62.591       44.531       23.875     3917.696     1982.967      570.032        0.582        0.324       71.834       20.365        0.080      346.929       25.529      862.849
08/18/2013  23:59:00      -47.474      -96.491       -4.969       30.039       38.719       24.211      902.318     1499.183      586.172        0.729        0.149      107.537       12.722        0.014      346.983       25.621      862.874
